[[{"header":{"parameterUnit":"m.s-1","parameterCategory":1,"la1":30.6,"la2":28.766,"lo1":-90.7593,"lo2":-88.6598,"dx":0.0162,"dy":0.0183,"nx":116,"ny":114,"refTime":"2023-01-04T18:00:00:Z","depth":0,"parameterNumber":2,"parameterNumberName":"U-component_of_WINDS"},"data":[0.0,0.0,0.0,0.0,0.0,0.0,0.0,0.0,0.0,0.0,0.0,0.0,0.0,0.0,0.0,0.0,0.0,0.0,0.0,0.0,0.0,0.0,0.0,0.0,0.0,0.0,0.0,0.0,0.0,0.0,0.0,0.0,0.0,0.0,0.0,0.0,0.0,0.0,0.0,0.0,0.0,0.0,0.0,0.0,0.0,0.0,0.0,0.0,0.0,0.0,0.0,0.0,0.0,0.0,0.0,0.0,0.0,0.0,0.0,0.0,0.0,0.0,0.0,0.0,0.0,0.0,0.0,0.0,0.0,0.0,0.0,0.0,0.0,0.0,0.0,0.0,0.0,0.0,0.0,0.0,0.0,0.0,0.0,0.0,0.0,0.0,0.0,0.0,0.0,0.0,0.0,0.0,0.0,0.0,0.0,0.0,0.0,0.0,0.0,0.0,0.0,0.0,0.0,0.0,0.0,0.0,0.0,0.0,0.0,0.0,0.0,0.0,0.0,0.0,0.0,0.0,0.0,0.0,0.0,0.0,0.0,0.0,0.0,0.0,0.0,0.0,0.0,0.0,0.0,0.0,0.0,0.0,0.0,0.0,0.0,0.0,0.0,0.0,0.0,0.0,0.0,0.0,0.0,0.0,0.0,0.0,0.0,0.0,0.0,0.0,0.0,0.0,0.0,0.0,0.0,0.0,0.0,0.0,0.0,0.0,0.0,0.0,0.0,0.0,0.0,0.0,0.0,0.0,0.0,0.0,0.0,0.0,0.0,0.0,0.0,0.0,0.0,0.0,0.0,0.0,0.0,0.0,0.0,0.0,0.0,0.0,0.0,0.0,0.0,0.0,0.0,0.0,0.0,0.0,0.0,0.0,0.0,0.0,0.0,0.0,0.0,0.0,0.0,0.0,0.0,0.0,0.0,0.0,0.0,0.0,0.0,0.0,0.0,0.0,0.0,0.0,0.0,0.0,0.0,0.0,0.0,0.0,0.0,0.0,0.0,0.0,0.0,0.0,0.0,0.0,0.0,0.0,0.0,0.0,0.0,0.0,0.0,0.0,0.0,0.0,0.0,0.0,0.0,0.0,0.0,0.0,0.0,0.0,0.0,0.0,0.0,0.0,0.0,0.0,0.0,0.0,0.0,0.0,0.0,0.0,0.0,0.0,0.0,0.0,0.0,0.0,0.0,0.0,0.0,0.0,0.0,0.0,0.0,0.0,0.0,0.0,0.0,0.0,0.0,0.0,0.0,0.0,0.0,0.0,0.0,0.0,0.0,0.0,0.0,0.0,0.0,0.0,0.0,0.0,0.0,0.0,0.0,0.0,0.0,0.0,0.0,0.0,0.0,0.0,0.0,0.0,0.0,0.0,0.0,0.0,0.0,0.0,0.0,0.0,0.0,0.0,0.0,0.0,0.0,0.0,0.0,0.0,0.0,0.0,0.0,0.0,0.0,0.0,0.0,0.0,0.0,0.0,0.0,0.0,0.0,0.0,0.0,0.0,0.0,0.0,0.0,0.0,0.0,0.0,0.0,0.0,0.0,0.0,0.0,0.0,0.0,0.0,0.0,0.0,0.0,0.0,0.0,0.0,0.0,0.0,0.0,0.0,0.0,0.0,0.0,0.0,0.0,0.0,0.0,0.0,0.0,0.0,0.0,0.0,0.0,0.0,0.0,0.0,0.0,0.0,0.0,0.0,0.0,0.0,0.0,0.0,0.0,0.0,0.0,0.0,0.0,0.0,0.0,0.0,0.0,0.0,0.0,0.0,0.0,0.0,0.0,0.0,0.0,0.0,0.0,0.0,0.0,0.0,0.0,0.0,0.0,0.0,0.0,0.0,0.0,0.0,0.0,0.0,0.0,0.0,0.0,0.0,0.0,0.0,0.0,0.0,0.0,0.0,0.0,0.0,0.0,0.0,0.0,0.0,0.0,0.0,0.0,0.0,0.0,0.0,0.0,0.0,0.0,0.0,0.0,0.0,0.0,0.0,0.0,0.0,0.0,0.0,0.0,0.0,0.0,0.0,0.0,0.0,0.0,0.0,0.0,0.0,0.0,0.0,0.0,0.0,0.0,0.0,0.0,0.0,0.0,0.0,0.0,0.0,0.0,0.0,0.0,0.0,0.0,0.0,0.0,0.0,0.0,0.0,0.0,0.0,0.0,0.0,0.0,0.0,0.0,0.0,0.0,0.0,0.0,0.0,0.0,0.0,0.0,0.0,0.0,0.0,0.0,0.0,0.0,0.0,0.0,0.0,0.0,0.0,0.0,0.0,0.0,0.0,0.0,0.0,0.0,0.0,0.0,0.0,0.0,0.0,0.0,0.0,0.0,0.0,0.0,0.0,0.0,0.0,0.0,0.0,0.0,0.0,0.0,0.0,0.0,0.0,0.0,0.0,0.0,0.0,0.0,0.0,0.0,0.0,0.0,0.0,0.0,0.0,0.0,0.0,0.0,0.0,0.0,0.0,0.0,0.0,0.0,0.0,0.0,0.0,0.0,0.0,0.0,0.0,0.0,0.0,0.0,0.0,0.0,0.0,0.0,0.0,0.0,0.0,0.0,0.0,0.0,0.0,0.0,0.0,0.0,0.0,0.0,0.0,0.0,0.0,0.0,0.0,0.0,0.0,0.0,0.0,0.0,0.0,0.0,0.0,0.0,0.0,0.0,0.0,0.0,0.0,0.0,0.0,0.0,0.0,0.0,0.0,0.0,0.0,0.0,0.0,0.0,0.0,0.0,0.0,0.0,0.0,0.0,0.0,0.0,0.0,0.0,0.0,0.0,0.0,0.0,0.0,0.0,0.0,0.0,0.0,0.0,0.0,0.0,0.0,0.0,0.0,0.0,0.0,0.0,0.0,0.0,0.0,0.0,0.0,0.0,0.0,0.0,0.0,0.0,0.0,0.0,0.0,0.0,0.0,0.0,0.0,0.0,0.0,0.0,0.0,0.0,0.0,0.0,0.0,0.0,0.0,0.0,0.0,0.0,0.0,0.0,0.0,0.0,0.0,0.0,0.0,0.0,0.0,0.0,0.0,0.0,0.0,0.0,0.0,0.0,0.0,0.0,0.0,0.0,0.0,0.0,0.0,0.0,0.0,0.0,0.0,0.0,0.0,0.0,0.0,0.0,0.0,0.0,0.0,0.0,0.0,0.0,0.0,0.0,0.0,0.0,0.0,0.0,0.0,0.0,0.0,0.0,0.0,0.0,0.0,0.0,0.0,0.0,0.0,0.0,0.0,0.0,0.0,0.0,0.0,0.0,0.0,0.0,0.0,0.0,0.0,0.0,0.0,0.0,0.0,0.0,0.0,0.0,0.0,0.0,0.0,0.0,0.0,0.0,0.0,0.0,0.0,0.0,0.0,0.0,0.0,0.0,0.0,0.0,0.0,0.0,0.0,0.0,0.0,0.0,0.0,0.0,0.0,0.0,0.0,0.0,0.0,0.0,0.0,0.0,0.0,0.0,0.0,0.0,0.0,0.0,0.0,0.0,0.0,0.0,0.0,0.0,0.0,0.0,0.0,0.0,0.0,0.0,0.0,0.0,0.0,0.0,0.0,0.0,0.0,0.0,0.0,0.0,0.0,0.0,0.0,0.0,0.0,0.0,0.0,0.0,0.0,0.0,0.0,0.0,0.0,0.0,0.0,0.0,0.0,0.0,0.0,0.0,0.0,0.0,0.0,0.0,0.0,0.0,0.0,0.0,0.0,0.0,0.0,0.0,0.0,0.0,0.0,0.0,0.0,0.0,0.0,0.0,0.0,0.0,0.0,0.0,0.0,0.0,0.0,0.0,0.0,0.0,0.0,0.0,0.0,0.0,0.0,0.0,0.0,0.0,0.0,0.0,0.0,0.0,0.0,0.0,0.0,0.0,0.0,0.0,0.0,0.0,0.0,0.0,0.0,0.0,0.0,0.0,0.0,0.0,0.0,0.0,0.0,0.0,0.0,0.0,0.0,0.0,0.0,0.0,0.0,0.0,0.0,0.0,0.0,0.0,0.0,0.0,0.0,0.0,0.0,0.0,0.0,0.0,0.0,0.0,0.0,0.0,0.0,0.0,0.0,0.0,0.0,0.0,0.0,0.0,0.0,0.0,0.0,0.0,0.0,0.0,0.0,0.0,0.0,0.0,0.0,0.0,0.0,0.0,0.0,0.0,0.0,0.0,0.0,0.0,0.0,0.0,0.0,0.0,0.0,0.0,0.0,0.0,0.0,0.0,0.0,0.0,0.0,0.0,0.0,0.0,0.0,0.0,0.0,0.0,0.0,0.0,0.0,0.0,0.0,0.0,0.0,0.0,0.0,0.0,0.0,0.0,0.0,0.0,0.0,0.0,0.0,0.0,0.0,0.0,0.0,0.0,0.0,0.0,0.0,0.0,0.0,0.0,0.0,0.0,0.0,0.0,0.0,0.0,0.0,0.0,0.0,0.0,0.0,0.0,0.0,0.0,0.0,0.0,0.0,0.0,0.0,0.0,0.0,0.0,0.0,0.0,0.0,0.0,0.0,0.0,0.0,0.0,0.0,0.0,0.0,0.0,0.0,0.0,0.0,0.0,0.0,0.0,0.0,0.0,0.0,0.0,0.0,0.0,0.0,0.0,0.0,0.0,0.0,0.0,0.0,0.0,0.0,0.0,0.0,0.0,0.0,0.0,0.0,0.0,0.0,0.0,0.0,0.0,0.0,0.0,0.0,0.0,0.0,0.0,0.0,0.0,0.0,0.0,0.0,0.0,0.0,0.0,0.0,0.0,0.0,0.0,0.0,0.0,0.0,0.0,0.0,0.0,0.0,0.0,0.0,0.0,0.0,0.0,0.0,0.0,0.0,0.0,0.0,0.0,0.0,0.0,0.0,0.0,0.0,0.0,0.0,0.0,0.0,0.0,0.0,0.0,0.0,0.0,0.0,0.0,0.0,0.0,0.0,0.0,0.0,0.0,0.0,0.0,0.0,0.0,0.0,0.0,0.0,0.0,0.0,0.0,0.0,0.0,0.0,0.0,0.0,0.0,0.0,0.0,0.0,0.0,0.0,0.0,0.0,0.0,0.0,0.0,0.0,0.0,0.0,0.0,0.0,0.0,0.0,0.0,0.0,0.0,0.0,0.0,0.0,0.0,0.0,0.0,0.0,0.0,0.0,0.0,0.0,0.0,0.0,0.0,0.0,0.0,0.0,0.0,0.0,0.0,0.0,0.0,0.0,0.0,0.0,0.0,0.0,0.0,0.0,0.0,0.0,0.0,0.0,0.0,0.0,0.0,0.0,0.0,0.0,0.0,0.0,0.0,0.0,0.0,0.0,0.0,0.0,0.0,0.0,0.0,0.0,0.0,0.0,0.0,0.0,0.0,0.0,0.0,0.0,0.0,0.0,0.0,0.0,0.0,0.0,0.0,0.0,0.0,0.0,0.0,0.0,0.0,0.0,0.0,0.0,0.0,0.0,0.0,0.0,0.0,0.0,0.0,0.0,0.0,0.0,0.0,0.0,0.0,0.0,0.0,0.0,0.0,0.0,0.0,0.0,0.0,0.0,0.0,0.0,0.0,0.0,0.0,0.0,0.0,0.0,0.0,0.0,0.0,0.0,0.0,0.0,0.0,0.0,0.0,0.0,0.0,0.0,0.0,0.0,0.0,0.0,0.0,0.0,0.0,0.0,0.0,0.0,0.0,0.0,0.0,0.0,0.0,0.0,0.0,0.0,0.0,0.0,0.0,0.0,0.0,0.0,0.0,0.0,0.0,0.0,0.0,0.0,0.0,0.0,0.0,0.0,0.0,0.0,0.0,0.0,0.0,0.0,0.0,0.0,0.0,0.0,0.0,0.0,0.0,0.0,0.0,0.0,0.0,0.0,0.0,0.0,0.0,0.0,0.0,0.0,0.0,0.0,0.0,0.0,0.0,0.0,0.0,0.0,0.0,0.0,0.0,0.0,0.0,0.0,0.0,0.0,0.0,0.0,0.0,0.0,0.0,0.0,0.0,0.0,0.0,0.0,0.0,0.0,0.0,0.0,0.0,0.0,0.0,0.0,0.0,0.0,0.0,0.0,0.0,0.0,0.0,0.0,0.0,0.0,0.0,0.0,0.0,0.0,0.0,0.0,0.0,0.0,0.0,0.0,0.0,0.0,2.8551,0.0,0.0,0.0,0.0,0.0,0.0,0.0,0.0,0.0,0.0,0.0,0.0,0.0,0.0,0.0,0.0,0.0,0.0,0.0,0.0,0.0,0.0,0.0,0.0,0.8379,0.8545,0.8957,0.8621,0.0,0.0,0.0,0.0,0.0,0.0,0.0,0.0,0.0,0.8694,0.9306,1.0884,1.3387,1.6581,1.4528,1.2805,1.1396,0.0,0.0,0.0,0.0,0.0,0.0,0.0,0.0,0.0,0.0,0.0,0.0,0.0,0.0,0.0,0.0,0.0,0.0,0.0,0.0,0.0,0.0,0.0,0.0,0.0,0.0,0.0,0.0,0.0,0.0,0.0,0.0,0.0,0.0,0.0,0.0,0.0,0.0,0.0,0.0,0.0,0.0,0.0,0.0,0.0,0.0,0.0,0.0,0.0,0.0,0.0,0.0,0.0,0.0,0.0,0.0,0.0,0.0,0.0,0.0,0.0,0.0,0.0,0.0,0.0,0.0,0.0,0.0,0.0,0.0,0.0,3.2951,0.0,0.0,0.0,0.0,0.0,0.0,0.0,0.0,0.0,0.0,0.0,0.0,0.0,0.0,0.0,0.0,0.0,0.0,0.0,0.0,0.0,0.8184,0.898,0.9119,0.9555,1.0465,0.9836,0.9435,0.9483,0.8635,0.0,0.0,0.0,0.0,0.8064,0.874,0.9856,1.1475,1.4897,1.8044,2.0933,2.0816,1.9465,1.6994,1.3628,0.0,0.0,0.0,0.0,0.0,0.0,0.0,0.0,0.0,0.0,0.0,0.0,0.0,0.0,0.0,0.0,0.0,0.0,0.0,0.0,0.0,0.0,0.0,0.0,0.0,0.0,0.0,0.0,0.0,0.0,0.0,0.0,0.0,0.0,0.0,0.0,0.0,0.0,0.0,0.0,0.0,0.0,0.0,0.0,0.0,0.0,0.0,0.0,0.0,0.0,0.0,0.0,0.0,0.0,0.0,0.0,0.0,0.0,0.0,0.0,0.0,0.0,0.0,2.7629,2.8779,3.219,3.2206,3.2175,3.2322,3.459,3.558,3.4868,0.0,0.0,0.0,0.0,0.0,0.0,0.0,0.0,0.0,0.0,0.0,0.0,0.0,0.0,0.0,0.0,0.0,0.0,0.0,0.0,0.8394,0.9635,1.0038,1.0676,1.1925,1.1594,1.1009,1.0287,0.9546,0.0,0.0,0.0,0.0,0.877,0.9413,1.1216,1.4183,2.078,2.4478,2.5447,2.5647,2.5544,2.497,2.0356,1.8251,1.793,0.0,0.0,0.0,0.0,0.0,0.0,0.0,0.0,0.0,0.0,0.0,0.0,0.0,0.0,0.0,0.0,0.0,0.0,0.0,0.0,0.0,0.0,0.0,0.0,0.0,0.0,0.0,0.0,0.0,0.0,0.0,0.0,0.0,0.0,0.0,0.0,0.0,0.0,0.0,0.0,0.0,2.638,2.6522,0.0,0.0,0.0,0.0,0.0,0.0,0.0,0.0,0.0,0.0,0.0,0.0,0.0,0.0,2.9834,3.1031,3.0865,2.9493,3.1486,3.3336,3.4968,3.4939,3.497,3.5,3.5369,0.0,3.5214,3.1467,0.0,0.0,0.0,0.0,0.0,0.0,0.0,0.0,0.0,0.0,0.0,0.0,0.0,0.0,0.0,0.0,0.0,0.0,0.0,0.0,0.0,1.2911,1.4346,1.631,1.6553,1.566,1.3315,1.2297,0.0,0.0,0.0,0.8784,0.9443,1.1572,1.5314,2.07,2.4941,2.7721,2.9046,2.9191,2.9228,2.9127,2.7027,2.3907,2.0157,1.8568,0.0,0.0,0.0,0.0,0.0,0.0,0.0,0.0,0.0,0.0,0.0,0.0,0.0,0.0,0.0,0.0,0.0,0.0,0.0,0.0,0.0,0.0,0.0,0.0,0.0,0.0,0.0,0.0,0.0,0.0,0.0,0.0,0.0,0.0,0.0,0.0,0.0,0.0,0.0,2.6136,2.6492,2.3496,2.2418,2.132,0.0,0.0,0.0,0.0,0.0,0.0,0.0,0.0,0.0,2.8607,2.9325,3.0347,3.1752,3.2377,3.2374,3.1769,3.2182,3.3472,3.548,3.5503,3.5499,3.5499,3.5508,3.5499,3.5431,3.4213,3.1689,2.7991,0.0,0.0,0.0,0.0,2.3931,2.8934,0.0,0.0,0.0,0.0,0.0,0.0,0.0,0.0,0.0,0.0,0.0,0.0,1.4253,1.6378,1.8467,2.0594,2.1059,1.9864,1.6675,1.5157,1.2845,0.939,0.9234,0.9602,1.0354,1.4577,1.9783,2.5896,2.8025,2.9872,3.1461,3.1461,3.1562,3.1765,3.1765,2.8682,2.3466,2.2526,2.0104,1.6782,0.0,0.0,0.0,0.0,0.0,0.0,0.0,0.0,0.0,0.0,0.0,0.0,0.0,0.0,0.0,0.0,0.0,0.0,0.0,0.0,0.0,0.0,0.0,0.0,0.0,0.0,0.0,0.0,0.0,0.0,0.0,0.0,0.0,0.0,0.0,0.0,0.0,2.7317,2.6886,2.2253,2.3436,2.3759,0.0,0.0,0.0,0.0,0.0,0.0,2.7081,2.741,2.8487,3.0347,3.1063,3.193,3.2968,3.3327,3.3654,3.3976,3.2966,3.3563,3.5478,3.5481,3.5874,3.6529,3.6535,3.6487,3.6408,3.5795,3.5512,3.4691,2.6794,2.3736,2.3747,2.3751,2.8711,3.4636,0.0,0.0,0.0,0.0,0.0,0.0,0.0,0.0,0.0,0.0,0.0,1.5193,1.716,1.9979,2.2274,2.3684,2.3466,2.2209,1.9721,1.7499,1.5068,1.2415,1.091,1.0632,1.167,1.8559,2.3785,2.7205,2.9782,3.1461,3.2205,3.2205,3.2611,3.3288,3.3288,3.2341,3.0446,2.6894,2.5174,2.4342,1.8601,0.0,0.0,0.0,0.0,0.0,0.0,0.0,0.0,0.0,0.0,0.0,0.0,0.0,0.0,0.0,0.0,0.0,0.0,0.0,0.0,0.0,0.0,0.0,0.0,0.0,0.0,0.0,0.0,0.0,0.0,0.0,0.0,0.0,0.0,0.0,0.0,0.0,0.0,2.7535,2.7285,0.0,0.0,0.0,0.0,2.728,2.6841,2.7919,3.1004,3.0642,3.1034,3.2614,3.3508,3.3835,3.3469,3.4733,3.54,3.5429,3.5311,3.5392,3.5481,3.5507,3.6871,3.9215,3.9245,3.9177,3.8987,3.6535,3.5484,3.5462,3.4912,3.4736,3.4714,3.4719,3.5034,3.5769,0.0,0.0,0.0,0.7941,0.7914,0.7914,0.7914,0.8469,0.916,0.9815,1.3231,1.6386,1.8469,2.2485,2.5612,2.7094,2.794,2.7029,2.3755,2.0711,1.7945,1.5438,1.31,1.4026,1.8656,2.3223,2.7028,2.9939,3.1261,3.2273,3.3017,3.3017,3.3152,3.3423,3.3423,3.3119,3.251,3.0683,2.8482,2.5983,2.3298,1.9617,0.0,0.0,0.0,0.0,0.0,0.0,0.0,0.0,0.0,0.0,0.0,0.0,0.0,0.0,0.0,0.0,0.0,0.0,0.0,0.0,0.0,0.0,0.0,0.0,0.0,0.0,0.0,0.0,0.0,0.0,0.0,0.0,0.0,0.0,0.0,0.0,0.0,2.7937,2.8111,0.0,2.6583,2.7889,2.8966,2.9415,3.0432,3.1539,3.2736,3.2826,3.3093,3.3657,3.4588,3.4971,3.4801,3.5251,3.5518,3.5495,3.5516,3.6387,3.7986,3.8052,3.8542,3.9404,3.9405,3.9395,3.9365,3.84,3.7992,3.7999,3.7999,3.8046,3.7994,3.8008,3.7989,3.8165,0.0,0.0,0.0,0.7927,0.7914,0.7914,0.7914,0.8664,0.9803,1.1341,1.5265,1.8887,2.1436,2.5614,2.8619,2.9634,3.0615,2.9702,2.6218,2.3248,2.0312,1.7404,1.5681,1.7624,2.3715,2.6352,2.8971,3.1707,3.2345,3.3051,3.3761,3.3761,3.3897,3.4167,3.4167,3.4167,3.41,3.3355,3.1461,2.8822,2.7264,2.4036,1.991,0.0,0.0,0.0,0.0,0.0,0.0,0.0,0.0,0.0,0.0,0.0,0.0,0.0,0.0,0.0,0.0,0.0,0.0,0.0,0.0,0.0,0.0,0.0,0.0,0.0,0.0,0.0,0.0,0.0,0.0,0.0,0.0,0.0,0.0,0.0,3.0854,2.9131,2.9455,2.9366,2.833,3.0227,3.1509,3.1509,3.2766,3.3511,3.3511,3.4193,3.4639,3.4639,3.5198,3.5518,3.5495,3.6335,3.6828,3.6802,3.6823,3.7734,3.9421,3.9415,3.9425,3.9425,3.9439,3.9414,3.9414,3.943,3.9397,3.9395,3.9425,3.9425,3.9415,3.9395,3.9415,3.9395,0.0,0.0,0.7884,0.7914,0.7914,0.7914,0.7914,0.9037,1.1072,1.4333,1.8699,2.2736,2.6018,2.927,3.119,3.119,3.119,2.9939,2.6962,2.4946,2.2143,1.8205,1.8601,2.1246,2.628,2.7777,2.98,3.2381,3.3085,3.3829,3.4539,3.4539,3.4912,3.5622,3.5622,3.5622,3.5554,3.4844,3.4134,3.322,3.0311,2.8511,2.7052,0.0,0.0,0.0,0.0,0.0,0.0,0.0,0.0,0.0,0.0,0.0,0.0,0.0,0.0,0.0,0.0,0.0,0.0,0.0,0.0,0.0,0.0,0.0,0.0,0.0,0.0,0.0,0.0,0.0,0.0,0.0,0.0,0.0,3.0942,3.152,3.1508,3.1508,3.1558,3.1575,3.1575,3.2764,3.3544,3.3544,3.3565,3.3587,3.3587,3.4801,3.5511,3.5511,3.5604,3.5644,3.5644,3.8129,3.9367,3.9398,3.9364,3.9415,3.9415,3.9361,3.9439,3.9367,3.9416,3.9417,3.955,3.9517,3.956,3.9501,3.949,3.9503,3.9432,3.9384,3.9367,3.9409,0.8428,0.82,0.8009,0.7913,0.7914,0.7914,0.7914,0.9037,1.0892,1.3705,1.841,2.2573,2.5379,2.8971,3.119,3.119,3.119,3.0229,2.7981,2.4743,2.1761,1.9273,2.3321,2.6557,2.85,3.0275,3.209,3.3897,3.41,3.4573,3.5318,3.5318,3.5419,3.5622,3.5622,3.5622,3.5622,3.5385,3.5182,3.4844,3.2949,3.0746,2.8378,0.0,0.0,0.0,0.0,0.0,0.0,0.0,0.0,0.0,0.0,0.0,0.0,0.0,0.0,0.0,0.0,0.0,0.0,0.0,0.0,0.0,0.0,0.0,0.0,0.0,0.0,0.0,0.0,0.0,0.0,0.0,0.0,2.7004,3.0947,3.1528,3.1498,3.1507,3.2347,3.2933,3.2933,3.4133,3.4951,3.4951,3.4931,3.4949,3.4949,3.528,3.5536,3.5536,3.7345,3.834,3.8312,3.9013,3.9415,3.9414,3.9403,3.9361,3.9391,3.9371,3.9416,3.9416,3.9386,4.0501,4.2229,4.2214,4.2212,4.2209,4.2229,4.11,3.9429,3.9416,3.9416,3.9683,0.8428,0.824,0.8065,0.7913,0.7914,0.7914,0.7914,0.9037,1.1323,1.5308,1.9132,2.2998,2.7042,2.9721,3.119,3.119,3.0615,2.9316,2.7105,2.3818,2.2346,2.3185,2.6521,2.9076,3.0603,3.236,3.3626,3.4506,3.481,3.5182,3.5622,3.5622,3.5622,3.5622,3.5622,3.5622,3.5622,3.5622,3.5622,3.5554,3.4675,3.3119,3.1123,2.977,2.8039,2.6219,2.454,2.3809,2.3451,2.1969,0.0,0.0,0.0,0.0,0.0,0.0,0.0,0.0,0.0,0.0,0.0,0.0,0.0,0.0,0.0,0.0,0.0,0.0,0.0,0.0,0.0,0.0,0.0,0.0,2.807,2.8891,3.1182,3.1504,3.1723,3.2254,3.254,3.3098,3.4248,3.5056,3.5472,3.5472,3.5511,3.5955,3.7053,3.7148,3.7129,3.7129,3.8602,3.9446,3.9384,3.9384,3.9403,3.9409,3.9384,3.9371,3.9371,3.9417,3.9965,0.0,4.1053,4.191,4.3289,4.3257,4.3331,0.0,0.0,0.0,0.0,0.0,4.1007,4.1245,0.8403,0.8227,0.8051,0.7941,0.7899,0.7914,0.7914,0.9037,1.1972,1.7746,2.0249,2.3719,2.9568,3.0797,3.119,3.1112,2.9829,2.7933,2.531,2.3096,2.3847,2.813,2.8638,3.0007,3.2476,3.3829,3.4539,3.4607,3.5284,3.5622,3.5622,3.5622,3.5622,3.5622,3.5622,3.5622,3.5622,3.5622,3.5622,3.5622,3.5622,3.5182,3.4269,3.2307,3.1529,3.1089,2.8416,2.7469,2.7097,2.4811,0.0,0.0,0.0,0.0,0.0,0.0,0.0,0.0,0.0,0.0,0.0,0.0,0.0,0.0,0.0,0.0,0.0,0.0,0.0,0.0,0.0,0.0,0.0,0.0,3.1511,3.1514,3.1515,3.1485,3.1926,3.3136,3.2465,3.2908,3.527,3.5776,3.5911,3.5941,3.5908,3.6921,3.9268,0.0,0.0,0.0,0.0,3.9409,3.9409,3.9367,3.9397,3.9397,3.9372,3.958,3.9832,3.9874,4.1113,4.332,4.3287,4.3331,4.3283,4.3319,4.3329,4.3269,4.3334,4.3273,4.3301,4.3289,4.3273,4.3331,0.8403,0.8164,0.797,0.8051,0.7984,0.7914,0.7914,0.9037,1.1833,1.7181,2.0003,2.3583,2.8973,3.0559,3.0998,3.0518,2.9722,2.8108,2.5533,2.5895,2.6867,2.8334,3.0415,3.2334,3.4032,3.4336,3.4776,3.5385,3.5554,3.5622,3.5622,3.5622,3.5622,3.5622,3.5622,3.5622,3.5622,3.5622,3.5622,3.5622,3.5622,3.5182,3.4438,3.3998,3.3491,3.2916,3.2307,3.2104,3.1935,3.0847,2.9327,2.767,2.6859,2.5176,0.0,0.0,0.0,0.0,0.0,0.0,0.0,0.0,0.0,0.0,0.0,0.0,0.0,0.0,0.0,0.0,0.0,0.0,0.0,3.0236,3.1471,3.1485,3.1492,3.1488,3.1575,3.1835,3.3574,3.4931,3.5429,3.7389,3.8672,3.8682,3.865,3.8883,3.9395,3.9384,0.0,3.9421,3.9379,3.9409,3.9409,3.94,3.9372,3.9372,0.0,0.0,4.2516,4.256,4.2831,4.3287,4.3277,4.3319,4.3319,4.3299,4.3329,4.3329,4.3289,4.3289,4.3319,4.3259,4.3289,4.3319,0.853,0.8415,0.8272,0.8115,0.8051,0.7998,0.7899,0.9037,1.1555,1.6099,1.8643,2.1665,2.5986,2.6972,2.7101,2.6447,2.5826,2.5394,2.5291,2.6296,2.7923,3.0241,3.1955,3.3355,3.4472,3.4878,3.525,3.5622,3.5622,3.5622,3.5622,3.5622,3.5622,3.5622,3.5622,3.5622,3.5622,3.5622,3.5622,3.5622,3.5622,3.5385,3.5047,3.5047,3.4844,3.4472,3.4066,3.3964,3.3829,3.3085,3.2104,3.1123,3.0751,2.9093,2.6826,0.0,0.0,0.0,0.0,0.0,0.0,0.0,0.0,0.0,0.0,0.0,0.0,0.0,0.0,2.3865,2.7819,0.0,2.692,3.0878,3.2615,3.3034,3.1691,3.2669,3.348,3.348,3.5859,3.7213,3.6543,3.8243,3.9429,3.9412,3.9405,3.9414,3.9414,3.9421,3.9409,3.9409,3.9414,3.94,3.94,3.9372,4.0025,4.14,4.1338,4.203,4.332,4.3283,4.3277,4.3277,4.3269,4.3329,4.3329,4.3329,4.3329,4.3329,4.3329,4.3329,4.3329,4.3329,4.3329,4.3329,0.87,0.8857,0.8837,0.8496,0.8468,0.8463,0.8379,0.931,1.1394,1.5065,1.7101,1.9431,2.257,2.3028,2.2834,2.2183,2.2023,2.2885,2.504,2.6308,2.8665,3.2334,3.3085,3.3829,3.4675,3.5318,3.5622,3.5622,3.5622,3.5622,3.5622,3.5622,3.5622,3.5622,3.5622,3.5622,3.5622,3.5622,3.5622,3.5622,3.5622,3.5622,3.5622,3.5622,3.5622,3.5554,3.4945,3.4621,3.4476,3.3989,3.3642,3.3422,3.3584,3.2307,3.0229,2.7765,2.6594,0.0,0.0,0.0,0.0,0.0,0.0,0.0,0.0,2.4208,2.4147,2.4393,2.3126,2.3963,3.0289,3.1497,3.1506,3.1516,3.3758,3.4787,3.2616,3.4115,3.5579,3.5854,3.7745,3.8708,3.7842,3.878,3.9415,3.9405,3.9433,3.9409,3.9409,3.9397,3.9427,3.9427,3.9402,3.9669,4.0189,4.0157,4.1203,4.3275,4.3317,4.3283,4.3283,4.3319,4.3329,4.3329,4.3329,4.3329,4.3329,4.3329,4.3329,4.3329,4.3329,4.3329,4.3329,4.3329,4.3329,4.3329,0.8863,0.9414,0.979,0.9653,0.9825,0.9966,0.995,1.0382,1.1721,1.4528,1.6071,1.7943,2.0636,2.1375,2.1502,2.0859,2.2386,2.3948,2.5282,2.7676,3.0337,3.3144,3.3355,3.4066,3.5453,3.5588,3.5622,3.5622,3.5622,3.5622,3.5622,3.5622,3.5622,3.5622,3.5622,3.5622,3.5622,3.5622,3.5622,3.5622,3.5622,3.5622,3.5622,3.5622,3.5622,3.5622,3.552,3.509,3.4651,3.5206,3.4521,3.3591,3.4162,3.3761,3.2606,3.0607,2.9816,2.9231,2.7455,2.69,2.6842,2.6995,2.661,2.5742,0.0,0.0,2.5827,2.1302,2.5605,3.0455,3.1338,3.1516,3.1509,3.1488,3.3713,3.5389,3.5126,3.5305,3.5914,3.708,3.7419,3.8061,3.9083,3.9325,3.9365,3.9421,3.9409,3.9409,3.9409,3.943,3.9402,3.9402,3.937,4.0515,4.2879,4.2848,4.2982,4.3317,4.3307,4.3269,4.3269,4.3329,4.3329,4.3329,4.3329,4.3329,4.3329,4.3329,4.3329,4.3329,4.3329,4.3329,4.3329,4.3329,4.3329,4.3329,0.9805,1.0391,1.0864,1.0784,1.0703,1.0527,1.0235,1.0669,1.1526,1.2861,1.4196,1.5452,1.6504,1.6507,1.6499,1.6624,1.9537,2.2186,2.4155,2.7515,3.0391,3.2671,3.3186,3.3897,3.4945,3.5385,3.5622,3.5622,3.5622,3.5622,3.5622,3.5622,3.5622,3.5622,3.5622,3.5622,3.5622,3.5622,3.5622,3.5622,3.5622,3.5622,3.5622,3.5622,3.5622,3.5442,3.4264,3.3473,0.0,3.3208,3.2925,3.2696,3.4093,3.3261,3.1616,3.1111,3.0108,2.9187,2.9249,2.9173,2.9058,2.8789,2.8616,2.8351,2.7639,2.7544,2.7397,2.6694,2.9202,3.1957,3.3547,3.3788,3.3845,0.0,3.4748,3.5477,3.5472,3.5466,3.5978,3.7276,3.7614,3.8082,3.8712,3.9133,3.9433,3.9409,3.9414,3.943,3.943,3.9372,4.0084,4.1656,4.1624,4.2149,4.3273,4.3313,4.3307,4.3307,4.3269,4.3329,4.3329,4.3329,4.3329,4.3329,4.3329,4.3329,4.3329,4.3329,4.3329,4.3329,4.3329,4.3329,4.3329,4.3329,4.3329,4.3329,1.0046,1.0639,1.1165,1.1056,1.1059,1.101,1.0798,1.1088,1.1464,1.1751,1.2658,1.3256,1.3256,1.2807,1.2777,1.3466,1.6967,2.0246,2.2822,2.6671,2.9794,3.1959,3.2697,3.3525,3.4472,3.5013,3.5419,3.5622,3.5622,3.5622,3.5622,3.5622,3.5622,3.5622,3.5622,3.5622,3.5622,3.5622,3.5622,3.5622,3.5622,3.5622,3.5622,3.5622,3.5161,3.432,3.2862,3.1957,3.1287,3.0506,3.0259,3.0533,3.1966,3.1199,2.9914,3.0823,3.0096,2.9093,2.957,2.9971,3.0204,2.9883,3.0197,3.0559,3.0592,2.958,2.9434,3.208,3.2583,3.3179,3.5124,3.5491,3.5488,3.548,3.5507,3.5494,3.5518,3.6127,3.6948,3.7863,3.8072,3.8292,3.8631,3.914,3.9409,3.9409,3.9387,3.9387,3.9387,4.0098,4.1292,4.3275,4.327,4.3313,4.3313,4.3319,4.3329,4.3329,4.3329,4.3329,4.3329,4.3329,4.3329,4.3329,4.3329,4.3329,4.3329,4.3329,4.3329,4.3329,4.3329,4.3329,4.3329,4.3329,4.3329,4.3329,0.8976,0.9697,1.0381,0.9922,1.0831,1.1707,1.2075,1.1951,1.1811,1.179,1.185,1.185,1.185,1.185,1.2089,1.2771,1.5859,1.8852,2.1471,2.5297,2.8637,3.1308,3.2026,3.2983,3.4472,3.4506,3.4878,3.5622,3.5622,3.5622,3.5622,3.5622,3.5622,3.5622,3.5622,3.5622,3.5622,3.5622,3.5622,3.5622,3.5622,3.5622,3.5622,3.5622,3.4007,3.1831,3.1755,3.1265,3.0254,2.7705,2.6814,2.6796,2.6896,2.7322,2.8188,3.0033,3.0509,3.0038,2.818,2.8629,2.9768,3.0313,3.1001,3.1453,3.1457,3.1397,3.2139,3.4851,3.5368,3.5392,3.5485,3.5473,3.5489,3.5489,3.5502,3.5481,3.5511,3.7677,3.9329,3.9325,3.8742,3.8661,0.0,3.9409,3.9409,3.9409,3.9387,3.9387,3.9387,4.179,4.321,4.327,4.3337,4.3329,4.3329,4.3329,4.3329,4.3329,4.3329,4.3329,4.3329,4.3329,4.3329,4.3329,4.3329,4.3329,4.3329,4.3329,4.3329,4.3329,4.3329,4.3329,4.3329,4.3329,4.3329,4.3329,0.9777,1.0509,1.1043,1.0038,1.0527,1.1097,1.1243,1.1729,1.2003,1.1811,1.179,0.0,0.0,0.0,0.0,0.0,1.5049,1.7334,1.9468,2.3311,2.6236,2.7997,3.0011,3.134,3.1831,3.2685,3.3539,3.4272,3.4667,3.5115,3.5622,3.5622,3.5622,3.5622,3.5622,3.5622,3.5622,3.5622,3.5622,3.5622,3.5622,3.5316,3.4891,3.4439,3.2904,3.064,0.0,2.6614,2.5828,2.4471,2.4315,2.4901,2.623,2.5909,2.525,2.6306,2.7549,2.8697,2.9355,2.9834,3.0462,3.1569,3.1633,3.1516,3.1482,3.2882,3.4422,3.5305,3.2662,3.0812,3.2514,3.4297,3.5518,3.551,3.5478,3.6119,3.7803,3.8832,3.9385,3.9373,3.9212,0.0,0.0,0.0,0.0,3.9409,3.9387,3.94,3.94,4.1888,4.3259,4.3259,4.3269,4.3329,4.3329,4.3329,4.3329,4.3329,4.3329,4.3329,4.3329,4.3329,4.3329,4.3329,4.3329,4.3329,4.3329,4.3329,4.3329,4.3329,4.3329,4.3329,4.3329,4.3329,4.3289,4.3328,0.0,1.0752,1.1122,1.0146,1.0241,0.0,0.0,0.0,0.0,0.0,0.0,0.0,0.0,0.0,0.0,0.0,0.0,1.5546,1.7479,2.0403,2.2928,2.4946,2.6712,2.7985,2.8716,2.9587,3.052,3.1506,3.256,3.3446,3.4141,3.4621,3.4844,3.4844,3.5115,3.5216,3.5172,3.5261,3.5358,3.5525,3.4318,3.3697,3.3353,3.2019,3.012,0.0,2.4705,2.2867,2.1769,2.0828,2.15,2.2832,2.3844,2.439,2.4645,2.407,2.6004,2.8517,2.9535,3.0163,3.0821,3.2198,3.2378,3.2198,3.2188,3.3961,3.5483,3.551,3.1642,2.854,2.927,3.1987,3.4546,3.5983,3.697,3.8069,3.9264,3.9677,3.9745,3.9439,3.9409,3.9409,0.0,0.0,0.0,3.9414,3.9386,3.9812,4.0766,4.2395,4.3329,4.3329,4.3329,4.3329,4.3329,4.3329,4.3329,4.3329,4.3329,4.3329,4.3329,4.3329,4.3329,4.3329,4.3329,4.3329,4.3329,4.3329,4.3329,4.3329,4.3329,4.331,4.3319,4.3319,4.3337,4.3271,0.0,0.0,1.0692,0.0,0.0,0.0,0.0,0.0,0.0,0.0,0.0,0.0,0.0,0.0,0.0,0.0,0.0,0.0,1.5529,1.6797,1.8903,2.2217,2.2401,2.3385,2.5422,2.5454,2.6205,2.7591,2.942,3.0642,3.1318,3.2563,3.3144,3.3178,3.3854,3.4201,3.4192,3.42,3.461,3.4906,3.1704,3.0794,3.1068,2.8543,2.595,2.345,2.2075,2.035,1.8523,1.7204,1.8548,2.0707,2.0168,2.3011,2.6063,2.364,2.6063,2.9415,2.8846,2.9594,3.0881,3.2228,3.3006,3.3517,3.3594,3.4625,3.545,3.531,3.2185,2.8675,2.6158,2.8734,3.2527,3.6443,3.942,4.087,3.9677,4.0179,4.0321,0.0,0.0,0.0,0.0,0.0,0.0,3.9387,0.0,4.0707,4.318,4.3337,4.3329,4.3329,4.3329,4.3329,4.3329,4.3329,4.3329,4.3329,4.3329,4.3329,4.3329,4.3329,4.3329,4.3329,4.3329,4.3329,4.3329,4.3329,4.325,4.328,4.328,4.3269,4.3345,4.3434,4.3478,4.349,0.0,0.0,0.0,0.0,0.0,0.0,0.0,0.0,0.0,0.0,0.0,0.0,0.0,0.0,0.0,0.0,0.0,0.0,1.346,1.4792,1.6514,1.8849,2.0355,2.1865,2.3437,2.3873,2.4808,2.6198,2.7122,2.7956,2.8673,2.9317,2.9582,2.9615,2.9782,2.9882,2.9882,2.9559,2.9544,2.9632,2.8799,2.819,2.7753,2.663,2.4844,2.2738,2.0855,1.9567,1.8583,1.7712,1.957,2.2413,2.3699,2.4926,2.5914,2.6243,2.753,2.9026,2.9804,3.0642,3.1482,3.2467,3.3095,3.3756,3.4767,3.525,3.4951,3.296,2.9721,2.7257,2.7113,2.7594,2.9085,3.2456,3.6322,0.0,4.0708,4.0223,0.0,3.9439,0.0,3.9409,3.9409,3.9371,0.0,0.0,4.1235,4.2576,4.324,4.3337,4.3329,4.3329,4.3329,4.3329,4.3329,4.3329,4.3329,4.3329,4.3329,4.3329,4.3329,4.3329,4.3329,4.3329,4.3329,4.3329,4.3329,4.3329,4.3289,4.3307,4.3307,4.3294,4.3514,4.55,4.6297,4.6286,0.0,0.0,0.0,0.0,0.0,0.0,0.0,0.0,0.0,0.0,0.0,0.0,0.0,0.0,0.0,0.0,0.0,0.0,0.0,1.2777,1.3944,1.589,1.6787,1.7984,1.9666,1.9714,2.0685,2.2624,2.3233,2.4195,2.547,2.5966,2.6191,2.6224,2.6554,2.6846,2.7104,2.6921,2.7115,0.0,0.0,2.5415,2.5093,2.364,2.2391,2.1186,1.9531,1.8681,1.8584,1.9778,2.168,2.3879,2.5854,2.6871,2.744,2.7889,2.8697,2.9654,3.0672,3.145,3.2079,3.2644,3.3119,3.3873,3.5185,3.3662,3.1628,3.0072,2.7569,2.5799,2.6236,2.6763,2.801,0.0,0.0,0.0,4.0231,4.01,3.9738,0.0,3.9409,0.0,3.9371,3.9446,3.9876,0.0,4.25,4.3257,4.3296,4.3319,4.3329,4.3329,4.3329,4.3329,4.3329,4.3329,4.3329,4.3329,4.3329,4.3329,4.3329,4.3329,4.3329,4.3329,0.0,4.3329,4.325,4.3289,4.3278,4.3404,4.4616,4.5012,4.5203,4.6773,4.7286,4.7327,0.0,0.0,0.0,0.0,0.0,0.0,0.0,0.0,0.0,0.0,0.0,1.179,0.0,0.0,0.0,0.0,0.0,0.0,0.0,0.0,1.1768,1.3735,1.3316,1.397,1.5888,1.5351,1.6219,1.8583,1.9086,2.0249,2.1957,2.2559,2.2831,2.2863,2.3479,2.4094,2.4636,2.4634,2.531,2.6187,2.3334,2.2532,2.2832,0.0,1.969,1.9564,1.8433,1.8059,1.8657,2.2253,2.4007,2.5116,2.7259,2.8853,2.9714,2.9175,2.9774,3.0791,3.148,3.2078,3.2557,3.2822,3.3173,3.3841,3.5174,3.0835,2.6525,2.6535,2.5563,2.4597,2.4418,2.5866,2.7748,2.9684,0.0,3.7255,3.8691,3.9529,3.9858,3.9469,3.9367,3.9414,3.9432,3.9699,4.089,4.315,4.3331,4.3296,4.3329,4.3329,4.3329,4.3329,4.3329,4.3329,4.3329,4.3329,4.3329,4.3329,4.3329,4.3329,4.3329,4.3329,4.3329,4.3329,0.0,0.0,4.328,4.3307,4.3545,4.4094,4.6403,4.7304,4.7322,4.7322,4.7272,4.7309,0.0,0.0,0.0,0.0,0.0,0.0,0.0,0.0,0.0,0.0,1.2837,1.179,0.0,0.0,0.0,0.0,0.0,0.0,0.0,0.0,0.0,1.3765,1.4214,1.5111,1.6517,1.6428,1.6846,1.7861,1.7992,1.8208,1.857,1.906,1.928,1.928,1.9406,1.9531,1.9625,1.9259,1.9537,2.0201,1.9606,1.9779,2.0318,1.9869,0.0,0.0,1.8964,1.8731,1.9234,2.2476,2.4447,2.6003,2.8913,3.0455,3.118,3.1061,3.1123,3.1509,3.2168,3.2437,3.2646,3.3235,3.3439,3.3871,3.5212,2.802,2.1089,2.1086,2.313,2.4551,2.3263,2.3791,2.5081,2.6971,3.0702,3.4023,3.5908,3.7195,3.8302,0.0,3.94,3.9402,3.9358,4.1354,0.0,0.0,0.0,4.3269,4.3329,4.3329,4.3329,4.3329,4.3329,4.3329,4.3329,4.3329,4.3329,4.3329,4.3329,4.3329,4.3329,4.3329,4.3329,4.3329,4.3329,0.0,4.328,4.3307,4.4616,4.6637,4.7129,4.7267,4.7336,4.7336,4.7279,4.7309,0.0,0.0,0.0,0.0,0.0,0.0,0.0,1.3047,1.3436,1.5109,1.4479,1.376,1.3406,1.2718,1.2299,0.0,0.0,0.0,0.0,0.0,0.0,1.3795,1.4124,1.4722,1.5681,1.5353,1.583,1.7174,0.0,1.6548,1.7174,1.7091,1.7058,1.7058,1.7058,1.7212,1.7517,1.7269,1.7563,1.8223,1.8583,1.8882,1.9211,1.954,0.0,0.0,1.9332,1.9008,1.8865,2.1258,2.2788,2.4371,2.8111,2.9691,3.0125,2.9929,3.0309,3.0955,3.1278,3.2168,3.3065,3.3389,3.4014,3.4723,3.5338,2.837,2.1328,1.9954,2.1058,2.2134,2.1724,2.3333,2.5272,2.6871,3.0432,3.3724,3.5729,3.6836,3.7913,3.926,3.943,3.9417,3.9416,4.1773,4.3283,0.0,0.0,4.3329,4.3329,4.3329,4.3329,4.3329,4.3329,4.3329,4.3329,4.3329,4.3329,4.3329,4.3329,4.3329,4.3329,4.3329,4.3329,4.325,4.3319,0.0,4.3265,4.3271,4.4863,4.7313,4.7286,4.7276,4.7309,4.7309,4.7309,4.7309,0.0,0.0,0.0,0.0,0.0,0.0,0.0,1.4004,1.4603,1.6218,1.6308,1.6008,1.547,1.4094,1.319,0.0,0.0,0.0,0.0,0.0,0.0,0.0,0.0,0.0,1.4992,0.0,0.0,1.6517,1.55,0.0,0.0,0.0,0.0,0.0,1.5799,1.6039,1.6517,1.6517,1.6965,0.0,0.0,1.8672,1.8972,0.0,0.0,0.0,0.0,1.9016,1.8553,1.9962,2.0968,2.2204,2.5628,2.7451,2.8274,2.8108,2.8971,3.004,3.0589,3.2041,3.3574,3.3844,3.4711,3.552,3.5497,2.888,2.2186,2.0127,1.9683,1.9863,2.0406,2.2842,2.5401,2.73,3.0338,3.3305,3.5699,3.6447,3.7434,3.92,3.9416,3.952,3.9829,4.1906,0.0,0.0,0.0,0.0,4.3329,4.3329,4.3329,4.3329,4.3329,4.3329,4.3329,4.3329,4.3329,4.3329,4.3329,4.3349,4.3277,4.3277,4.3296,4.3313,4.328,0.0,0.0,4.5147,4.6177,4.7281,4.7262,4.7309,4.7309,4.7309,4.7309,4.7309,0.0,0.0,0.0,0.0,0.0,0.0,0.0,1.4692,1.559,1.8104,1.7924,1.7473,1.7443,1.574,1.4363,0.0,0.0,0.0,0.0,0.0,0.0,0.0,0.0,0.0,0.0,0.0,0.0,1.5888,1.5769,0.0,0.0,0.0,0.0,0.0,0.0,1.5829,1.5888,1.5888,0.0,0.0,0.0,0.0,0.0,0.0,0.0,0.0,0.0,1.8921,1.8956,1.9619,2.0241,2.0785,2.1305,2.3576,2.6162,2.7109,2.8024,2.9233,3.1426,3.2717,3.3784,3.5011,3.54,3.5518,3.5486,2.7505,1.9987,1.9757,1.9686,1.9723,1.9749,2.105,2.3274,2.6965,2.8544,3.0488,3.3931,3.4651,3.5908,3.905,3.9417,3.9858,4.1129,4.2491,0.0,0.0,0.0,0.0,4.3329,4.3329,4.3329,4.3329,4.3329,4.3329,4.3329,4.3329,4.3329,4.3329,4.3329,4.3344,4.3304,4.3304,4.3284,4.3314,4.332,0.0,0.0,5.1033,5.0476,4.7281,4.7262,4.7309,4.7309,4.7309,4.7309,4.7309,0.0,0.0,0.0,0.0,0.0,0.0,1.4483,1.4782,1.574,1.8373,1.8463,1.8313,1.8313,1.7266,1.5979,1.4543,0.0,0.0,0.0,0.0,0.0,0.0,0.0,0.0,0.0,0.0,1.5979,1.6368,1.6368,0.0,0.0,0.0,0.0,0.0,0.0,1.5799,1.5799,1.5799,0.0,0.0,0.0,0.0,0.0,0.0,0.0,0.0,0.0,0.0,1.8932,1.9195,1.9403,1.9604,1.9628,2.0789,2.2517,2.4338,2.6266,2.822,2.982,3.1845,3.3634,3.4173,3.4891,3.5457,3.5508,2.7268,1.9708,1.9682,1.9707,1.9723,1.971,2.0802,2.2469,2.4793,2.75,2.9492,3.0156,3.3055,3.6165,3.905,3.9372,4.0229,0.0,0.0,0.0,0.0,0.0,0.0,4.3329,4.3329,4.3329,4.3329,4.3329,4.3329,4.3329,4.3329,4.3329,4.3329,4.3331,4.3305,4.3394,4.5677,4.6765,4.6797,4.8679,0.0,0.0,5.1804,5.1026,4.7334,4.7322,4.7309,4.7309,4.7309,4.7309,4.7339,0.0,0.0,0.0,0.0,0.0,1.2478,1.4483,1.4989,1.5949,1.8373,1.8702,1.8702,1.8702,1.7921,1.6906,1.577,1.5291,0.0,0.0,0.0,0.0,0.0,0.0,0.0,0.0,0.0,1.6278,1.6726,1.6906,1.6995,0.0,0.0,0.0,0.0,0.0,0.0,0.0,0.0,0.0,0.0,0.0,0.0,0.0,0.0,0.0,0.0,0.0,0.0,0.0,0.0,0.0,1.9051,1.8768,1.9169,2.0257,2.2883,2.4993,2.6937,2.9324,3.126,3.2922,3.3839,3.4775,3.5522,3.5497,2.729,1.9681,1.9711,1.97,1.9686,1.9706,2.1105,2.2287,2.2431,2.6801,2.9689,2.8367,3.2193,3.5993,3.8322,0.0,4.0144,0.0,0.0,0.0,0.0,0.0,0.0,0.0,4.3329,4.3329,4.3329,4.3329,4.3329,4.3329,4.3329,4.3319,4.3265,4.3275,4.3889,4.507,4.7729,4.8973,4.9169,0.0,0.0,0.0,5.1008,4.994,4.7293,4.731,4.7302,4.7309,4.7309,4.7309,4.7252,0.0,0.0,0.0,0.0,0.0,0.0,1.4483,1.5379,1.6488,1.8433,1.8702,1.8702,1.8702,1.7503,1.6965,1.7593,1.6518,0.0,0.0,0.0,0.0,0.0,0.0,0.0,0.0,0.0,1.6697,1.6726,1.7354,1.7682,1.7682,1.7025,1.6726,1.6667,0.0,0.0,0.0,0.0,0.0,0.0,0.0,0.0,0.0,0.0,0.0,0.0,0.0,0.0,0.0,0.0,0.0,0.0,0.0,1.8855,2.0315,2.3469,2.4419,2.5577,3.0745,3.1528,3.1573,3.4712,3.5477,3.5523,3.5476,2.7285,1.9707,1.9689,1.9706,1.9708,1.9693,2.1843,2.2735,2.0159,2.6336,3.1031,2.9752,3.2258,3.4878,3.6641,3.8364,3.9395,3.9439,0.0,0.0,0.0,0.0,0.0,0.0,4.3329,4.3329,4.3329,4.3329,4.3329,4.3329,4.3329,4.3313,4.3288,4.3288,4.5246,4.8895,4.8994,4.9028,0.0,0.0,0.0,0.0,4.9062,4.7339,4.7313,4.7344,4.7273,4.7309,4.7309,4.7309,4.7252,0.0,0.0,0.0,0.0,0.0,0.0,0.0,1.4004,1.4962,1.6548,1.7086,1.7503,1.7984,1.7234,1.6965,1.7623,1.6906,0.0,0.0,0.0,0.0,0.0,0.0,0.0,0.0,1.6368,1.6936,1.7384,1.8074,1.8403,1.8403,1.8194,1.7802,1.7354,1.6697,1.6398,0.0,0.0,0.0,0.0,0.0,0.0,0.0,0.0,0.0,0.0,0.0,0.0,0.0,0.0,0.0,0.0,0.0,0.0,0.0,2.2542,2.3558,2.4462,2.6823,2.8394,2.9518,3.0368,3.3079,3.4109,2.8625,2.4787,2.1863,2.0067,2.1138,2.181,2.0045,2.0362,2.3641,3.1807,3.2982,3.2708,3.2317,3.2308,3.2553,3.3099,3.6846,4.0129,0.0,0.0,0.0,0.0,0.0,0.0,0.0,4.3329,4.3329,4.3329,4.3329,4.3329,4.3329,4.327,4.332,4.3363,4.5968,4.7795,4.8995,4.9024,0.0,0.0,0.0,0.0,0.0,4.901,4.898,5.1222,4.843,4.7302,4.7297,4.7302,4.7342,4.7258,0.0,0.0,0.0,0.0,0.0,0.0,0.0,1.3376,1.4274,1.5619,1.6129,1.6666,1.7368,1.6657,1.6505,1.7452,1.6924,0.0,0.0,0.0,0.0,0.0,0.0,0.0,1.6129,1.6756,1.7533,1.8463,1.9151,1.945,1.945,1.9211,1.8732,1.8044,1.7115,1.6726,0.0,0.0,0.0,0.0,0.0,0.0,1.969,0.0,0.0,0.0,0.0,0.0,0.0,0.0,0.0,0.0,0.0,0.0,0.0,0.0,2.2253,2.3097,2.5529,2.6678,2.7482,2.8517,3.0523,3.1083,2.6831,2.4701,2.3155,2.1524,2.2464,2.3099,2.1496,2.1188,2.3865,3.2122,3.3079,3.25,3.186,3.1898,3.2217,3.293,0.0,0.0,0.0,0.0,0.0,0.0,0.0,0.0,0.0,4.3329,4.3329,4.3329,4.3329,4.3329,4.3329,4.3289,4.4044,4.5437,4.7858,4.8961,4.9024,4.9016,0.0,0.0,0.0,0.0,0.0,4.9004,4.9747,5.3278,5.0675,4.8729,4.7292,4.7334,4.7276,4.7489,0.0,0.0,0.0,0.0,0.0,0.0,0.0,1.3286,1.4184,1.5499,1.5709,1.604,1.6928,1.5872,1.5649,1.7116,0.0,0.0,0.0,0.0,0.0,0.0,0.0,0.0,1.6697,1.7322,1.831,1.96,2.0348,2.0707,2.0707,2.0109,1.948,1.8792,1.7473,1.6876,1.6816,1.7443,1.7712,1.7861,1.9181,1.969,0.0,0.0,0.0,0.0,0.0,0.0,0.0,0.0,0.0,0.0,0.0,0.0,0.0,0.0,0.0,0.0,0.0,2.5902,2.5328,2.8237,2.7639,2.6881,2.8748,2.6143,0.0,2.3302,2.3332,2.3425,2.3801,2.3557,2.3374,2.3539,2.7849,3.0647,2.938,3.1185,3.338,3.5171,4.0056,0.0,0.0,0.0,0.0,0.0,0.0,0.0,0.0,4.3299,4.3269,4.3329,4.3299,4.3269,4.3329,4.3335,4.5206,4.8996,4.9027,4.899,4.9039,4.9217,0.0,0.0,0.0,0.0,0.0,4.9349,5.002,5.3542,5.3542,5.0968,4.7403,4.7865,4.8087,4.837,0.0,0.0,0.0,0.0,0.0,0.0,0.0,0.0,0.0,0.0,1.4722,1.5293,1.604,1.5504,1.5432,0.0,0.0,0.0,0.0,0.0,0.0,0.0,0.0,0.0,1.6666,1.7034,1.7802,1.8942,2.0139,2.0707,2.0737,2.1066,2.0857,2.0198,1.9361,1.8433,1.7473,1.7623,1.7981,1.8553,1.9361,1.969,0.0,0.0,0.0,0.0,1.969,1.969,0.0,0.0,0.0,0.0,0.0,0.0,0.0,0.0,1.9929,2.0288,2.1904,0.0,2.2512,2.2748,2.3041,2.3643,0.0,2.2717,2.0636,2.0636,2.0633,2.1825,2.5904,2.3345,2.1284,2.3254,2.5807,2.8532,3.1321,3.178,3.2362,3.379,3.9503,0.0,0.0,0.0,0.0,0.0,0.0,0.0,0.0,4.3317,4.3287,4.3329,4.3317,4.3287,4.3329,4.3297,4.5199,4.8996,4.8992,4.8971,4.9072,5.1414,0.0,0.0,0.0,0.0,5.3413,5.244,5.26,5.3526,5.3526,5.0936,4.7977,5.3415,5.5377,5.4985,0.0,0.0,0.0,0.0,0.0,0.0,0.0,0.0,0.0,0.0,0.0,1.4557,1.5123,1.4968,0.0,0.0,0.0,0.0,0.0,0.0,0.0,0.0,0.0,1.5344,1.6388,1.687,1.7793,1.9151,2.0198,2.0887,2.1156,2.1216,2.1066,2.0677,1.969,1.8672,1.7712,1.8044,1.8373,1.8762,1.942,0.0,0.0,0.0,0.0,0.0,1.969,1.969,0.0,1.969,1.969,1.969,0.0,0.0,0.0,0.0,1.969,1.9779,2.0139,2.0946,2.1695,2.1635,2.1804,2.2154,2.2626,2.1158,1.9711,1.968,1.9695,2.1328,2.6615,2.5248,2.3911,2.5804,2.6525,2.8385,3.2719,3.3307,3.3176,3.2624,3.8957,0.0,0.0,0.0,0.0,0.0,0.0,0.0,0.0,4.3642,4.3279,4.3318,4.3279,4.3284,4.327,4.3283,4.5234,4.8987,4.8983,4.9029,4.9114,5.2119,5.3474,0.0,0.0,0.0,5.081,5.2694,5.3472,5.3506,5.3479,5.2152,5.0732,5.6027,5.7885,5.7555,0.0,0.0,0.0,0.0,0.0,0.0,0.0,0.0,0.0,0.0,0.0,0.0,0.0,0.0,0.0,0.0,0.0,0.0,0.0,0.0,0.0,0.0,1.4721,1.5057,1.6247,1.6799,1.7969,1.969,2.0587,2.1306,2.1844,2.1485,2.1156,2.0797,1.945,1.8553,1.8044,1.8523,1.8762,1.8912,1.945,0.0,0.0,0.0,0.0,0.0,0.0,0.0,0.0,1.969,1.969,1.969,1.969,0.0,0.0,0.0,0.0,0.0,1.9809,2.0827,2.1944,2.2265,2.1983,2.1594,2.1434,2.0533,1.9708,1.9683,1.9689,2.107,2.5598,2.6702,2.7501,2.9124,2.8535,2.9559,3.4361,3.5307,3.4831,3.2933,3.8288,0.0,0.0,0.0,0.0,0.0,0.0,0.0,0.0,4.3983,4.3333,4.3286,4.385,4.4189,4.4173,4.4189,4.5778,4.8995,4.9009,4.8971,4.9089,5.2123,5.3511,0.0,0.0,0.0,4.8528,5.2067,5.3483,5.3483,5.349,5.3756,5.4518,5.6996,5.7916,5.782,0.0,0.0,0.0,0.0,0.0,0.0,0.0,0.0,0.0,0.0,0.0,0.0,0.0,0.0,0.0,0.0,0.0,0.0,0.0,0.0,0.0,1.5088,1.4721,1.5254,1.6915,1.7031,1.7969,1.969,2.1485,2.2443,2.2562,2.355,2.3131,2.1485,2.0139,1.948,1.9361,1.8912,1.9031,1.954,1.966,0.0,0.0,0.0,0.0,0.0,0.0,0.0,0.0,1.969,1.969,1.969,1.969,0.0,0.0,0.0,0.0,0.0,2.0408,2.1515,2.2234,2.0977,2.0988,2.1136,2.0203,1.9863,1.9697,1.9702,1.9689,1.9941,2.0753,2.2743,2.571,3.037,3.0098,3.1562,0.0,0.0,3.6219,3.7984,0.0,0.0,0.0,0.0,0.0,0.0,0.0,0.0,0.0,0.0,4.3273,4.3325,4.6442,4.8165,4.813,4.8165,4.8398,4.8995,4.8983,4.8979,4.9089,5.2128,5.3481,0.0,0.0,5.3135,5.2606,5.3198,5.3469,5.3481,5.3513,5.4999,5.7281,5.7755,5.7881,5.7345,0.0,0.0,0.0,0.0,0.0,0.0,0.0,0.0,0.0,0.0,0.0,0.0,0.0,0.0,0.0,0.0,0.0,0.0,0.0,0.0,1.4511,1.5165,1.5129,1.5511,1.6535,1.7334,1.8592,2.0228,2.1874,2.3041,2.3729,2.361,2.2712,2.1126,2.0139,1.969,1.966,1.9361,1.942,1.969,0.0,0.0,0.0,0.0,0.0,0.0,0.0,0.0,0.0,0.0,1.9151,1.9211,1.957,0.0,0.0,0.0,0.0,0.0,2.0079,2.0857,2.1573,2.1418,2.253,2.3297,2.1788,2.058,1.969,1.972,1.9708,1.9711,1.9726,2.4178,2.9592,3.4872,3.4854,3.4881,3.7218,3.6414,0.0,0.0,0.0,0.0,0.0,0.0,0.0,0.0,0.0,0.0,0.0,0.0,4.6353,4.6389,4.8063,4.9046,4.9046,4.9046,4.9046,4.9046,4.9009,4.9809,5.1485,5.2836,5.3515,5.3518,0.0,5.3515,5.3484,5.3511,5.3475,5.365,5.5241,5.6738,5.7933,5.7891,5.7904,5.7615,0.0,0.0,0.0,0.0,0.0,0.0,0.0,0.0,0.0,0.0,0.0,0.0,0.0,0.0,0.0,0.0,0.0,0.0,0.0,1.4814,1.4842,1.5284,1.5421,1.5847,1.6598,1.7909,1.9448,2.1186,2.2456,2.3718,2.4837,2.352,2.2203,2.0917,2.0228,1.9839,1.969,1.969,1.969,1.969,0.0,0.0,0.0,0.0,0.0,0.0,0.0,0.0,0.0,0.0,0.0,0.0,0.0,0.0,0.0,1.969,1.969,1.972,1.9869,2.0482,2.1296,2.2164,2.3535,2.4513,2.3987,2.2555,2.1538,2.2238,2.1858,2.1353,2.1315,2.789,3.4963,3.9841,3.9974,3.9093,0.0,0.0,0.0,0.0,0.0,0.0,0.0,0.0,0.0,0.0,0.0,0.0,0.0,0.0,4.9018,4.9018,4.9018,4.9018,4.9018,4.899,4.899,4.9024,4.9005,5.0544,5.3471,5.3511,5.3482,5.3518,5.3518,5.3518,5.3518,5.3516,5.3921,5.4732,5.7009,5.7861,5.7929,5.792,5.7924,5.7863,0.0,0.0,0.0,0.0,0.0,0.0,0.0,0.0,0.0,0.0,0.0,0.0,0.0,0.0,0.0,0.0,0.0,0.0,0.0,1.5059,1.5128,1.529,1.5407,1.6348,1.8082,1.9047,2.0501,2.2574,2.3781,2.479,2.5525,2.4178,2.2862,2.1605,2.0946,2.0288,1.969,1.969,1.969,1.969,1.969,0.0,0.0,0.0,0.0,0.0,0.0,0.0,0.0,0.0,0.0,0.0,0.0,0.0,1.969,1.969,1.969,1.9839,2.0468,2.1402,2.2271,2.2576,2.2117,2.2456,2.5702,2.6301,2.6989,2.9799,2.8115,2.6209,2.6192,3.3119,4.0058,4.3649,4.4181,4.4106,0.0,0.0,0.0,0.0,0.0,0.0,0.0,0.0,0.0,0.0,0.0,0.0,0.0,0.0,0.0,4.9018,4.9018,4.9018,4.9018,4.8967,4.9005,4.9005,4.9016,5.0553,5.3511,5.3516,5.3484,5.3518,5.3518,5.3518,5.3481,5.3481,5.5106,5.759,5.7865,5.7857,5.7881,5.7881,5.7915,5.7876,0.0,0.0,0.0,0.0,0.0,0.0,0.0,0.0,0.0,0.0,0.0,0.0,0.0,0.0,0.0,0.0,0.0,0.0,0.0,1.466,1.4734,1.529,1.5747,1.6417,1.7297,1.8983,2.0771,2.2648,2.3874,2.448,2.4328,2.3041,2.1934,2.1066,2.0378,1.9929,1.969,1.969,1.969,1.969,1.969,1.9301,0.0,0.0,0.0,0.0,0.0,0.0,0.0,0.0,1.7712,1.8223,1.8882,1.9361,1.969,1.969,1.969,1.975,2.0019,2.0971,2.1961,2.2034,2.233,2.2994,2.4431,2.6638,2.8468,2.8884,3.072,3.1694,2.9806,3.6692,4.2395,4.1498,4.3157,0.0,0.0,0.0,0.0,0.0,0.0,0.0,0.0,0.0,0.0,0.0,0.0,0.0,0.0,0.0,0.0,4.9018,4.9018,4.9018,4.9018,4.9927,5.0837,5.1813,5.179,5.2365,5.3479,5.3483,5.3518,5.3518,5.3518,5.3483,5.3616,5.5448,5.6843,5.7933,5.7891,5.792,5.7881,5.7881,5.7881,5.7915,0.0,0.0,0.0,0.0,0.0,0.0,0.0,0.0,0.0,0.0,0.0,0.0,0.0,0.0,0.0,0.0,0.0,0.0,1.4323,1.4166,1.4304,1.4782,1.5447,1.5972,1.6389,1.8394,2.0421,2.2404,2.3597,2.3906,2.3281,2.1994,2.1246,2.0976,2.0225,1.9924,1.9989,1.9718,1.9502,1.9361,1.9361,1.8852,0.0,0.0,0.0,0.0,0.0,0.0,0.0,0.0,1.6995,1.7533,1.8433,1.9001,1.942,1.963,2.0104,2.0582,2.0392,2.1243,2.2263,2.2534,2.3134,2.3609,2.3483,2.6225,2.9327,3.0974,3.2934,3.453,3.5286,3.8905,4.1764,0.0,0.0,0.0,0.0,0.0,0.0,0.0,0.0,0.0,0.0,0.0,0.0,0.0,0.0,0.0,0.0,0.0,0.0,0.0,4.9018,4.912,4.9357,5.0401,5.1579,5.2765,5.3243,5.3515,5.3515,5.3517,5.3518,5.3518,5.3484,5.3483,5.3715,5.6673,5.7902,5.7857,5.792,5.7881,5.7881,5.7881,5.7915,5.7944,0.0,0.0,0.0,0.0,0.0,0.0,0.0,0.0,1.6009,1.6637,1.6697,0.0,0.0,0.0,0.0,0.0,0.0,0.0,1.325,1.3768,1.396,1.3696,1.434,1.4998,1.5683,1.7349,1.9439,2.1974,2.3036,2.3281,2.2664,2.1306,2.1036,2.1644,2.0702,2.0452,2.0617,1.979,1.914,1.8702,1.8702,1.7891,1.6786,0.0,0.0,0.0,0.0,0.0,0.0,0.0,1.6726,1.6936,1.8283,1.8702,1.8822,1.948,2.1069,2.245,2.1862,2.2443,2.3455,2.4319,2.4397,2.4084,2.3437,2.553,2.9908,3.7775,3.5218,3.4217,4.2997,3.9711,0.0,0.0,0.0,0.0,0.0,0.0,0.0,0.0,0.0,0.0,0.0,0.0,0.0,0.0,0.0,0.0,0.0,0.0,0.0,0.0,4.9018,4.9357,5.0067,5.0379,5.0753,5.126,5.2808,5.3518,5.3518,5.3518,5.3518,5.3518,5.3483,5.3478,5.374,5.6735,5.7891,5.7881,5.7881,5.7881,5.7881,5.7881,5.787,5.7891,0.0,0.0,0.0,0.0,0.0,0.0,0.0,0.0,1.6009,1.6637,1.6338,0.0,0.0,0.0,0.0,0.0,0.0,0.0,1.2961,1.3109,1.3279,1.3537,1.4446,1.4779,1.4436,1.6382,1.8814,2.17,2.2033,2.1896,2.1276,2.0408,2.0079,2.0295,2.0308,1.9901,1.9306,1.9359,1.914,1.8702,1.8702,1.8194,1.7413,0.0,0.0,0.0,0.0,0.0,0.0,0.0,0.0,0.0,1.7712,1.8546,1.9262,1.9587,2.0325,2.0918,2.0773,2.3141,2.5638,2.5233,2.7262,2.9106,2.8234,3.0207,3.3539,3.8412,3.6737,3.6469,4.3333,4.3145,0.0,0.0,0.0,0.0,0.0,0.0,0.0,0.0,0.0,0.0,0.0,0.0,0.0,0.0,0.0,0.0,0.0,0.0,0.0,0.0,4.9018,4.9357,5.0067,5.068,5.1288,5.1796,5.2909,5.3518,5.3518,5.3518,5.3518,5.3518,5.3483,5.47,5.6673,5.7552,5.792,5.7881,5.7881,5.791,5.7864,5.7864,5.7924,5.8178,0.0,0.0,0.0,0.0,0.0,0.0,1.6688,1.6212,1.6006,1.6456,1.6097,1.5799,0.0,0.0,0.0,1.4303,1.3944,1.3525,1.2861,1.2897,1.3182,1.371,1.467,1.5198,1.5186,1.6707,1.831,2.003,2.0331,2.0264,1.9899,1.975,1.9839,2.0145,2.0793,2.036,1.9096,1.9298,1.8987,1.8313,1.8313,1.7891,1.7324,0.0,0.0,0.0,0.0,0.0,0.0,0.0,0.0,0.0,1.7085,1.815,1.9348,2.055,2.1756,2.2834,2.3414,2.5676,2.7846,2.7785,2.9464,3.1518,3.3029,3.5925,3.8875,4.1004,4.0215,4.0304,4.3892,4.4279,0.0,0.0,0.0,0.0,0.0,0.0,0.0,0.0,0.0,0.0,0.0,0.0,0.0,0.0,0.0,0.0,0.0,0.0,0.0,0.0,4.9018,4.9492,5.0541,5.098,5.1691,5.2572,5.3213,5.3518,5.3518,5.3518,5.3484,5.3551,5.4734,5.6227,5.7865,5.7887,5.7881,5.7881,5.7881,5.787,5.81,5.9275,5.9708,5.9962,0.0,0.0,0.0,0.0,0.0,0.0,1.6791,1.6277,1.5942,1.6311,1.6029,1.5799,0.0,0.0,0.0,1.4752,1.4154,1.3525,1.2861,1.3023,1.3478,1.417,1.5121,1.6117,1.7127,1.7713,1.7856,1.7593,1.8343,1.8702,1.8702,1.939,2.0055,2.0723,2.1681,2.1155,1.9557,1.9331,1.8588,1.7593,1.7593,1.7234,1.6786,1.7384,0.0,0.0,0.0,0.0,0.0,0.0,0.0,0.0,1.6607,1.7685,1.9281,2.1794,2.4213,2.6422,2.775,2.8856,2.9918,3.1166,3.1438,3.2692,3.7469,4.1568,4.4358,4.4591,4.4608,4.4641,4.4736,0.0,0.0,0.0,0.0,0.0,0.0,0.0,0.0,0.0,0.0,0.0,0.0,0.0,0.0,0.0,0.0,0.0,0.0,0.0,0.0,0.0,4.9086,4.9796,5.1217,5.1285,5.2063,0.0,5.3518,5.3518,5.3518,5.3518,5.3653,5.4022,5.6738,5.7857,5.7881,5.7881,5.7881,5.7881,5.7881,5.787,5.8268,6.1286,6.2377,6.2377,0.0,0.0,0.0,0.0,0.0,0.0,1.7155,1.6614,1.6292,1.6578,1.6158,1.5799,1.5799,1.5799,0.0,1.4124,1.3885,1.3525,1.2861,1.285,1.348,1.4831,1.6096,1.7011,1.7552,1.7196,1.6961,1.6936,1.81,1.8702,1.8702,1.939,1.9965,2.0404,2.0632,1.9953,1.8624,1.8097,1.7486,1.6936,1.6936,1.6846,1.6726,1.6876,1.6458,0.0,0.0,0.0,0.0,0.0,0.0,0.0,1.7264,1.8305,1.9479,2.076,2.25,2.4169,2.4998,2.8234,3.1499,3.1996,3.5409,3.885,3.9649,4.0863,4.2393,4.4212,4.4599,4.4849,0.0,0.0,0.0,0.0,0.0,0.0,0.0,0.0,0.0,0.0,0.0,0.0,0.0,0.0,0.0,0.0,0.0,0.0,0.0,0.0,0.0,4.9018,4.956,5.0304,5.1217,5.1792,5.257,0.0,5.3518,5.3518,5.3518,5.3518,5.4771,5.6983,5.7627,5.7857,5.7881,5.7881,5.7881,5.7881,5.7881,5.7864,5.8287,6.1306,6.2395,6.2425,0.0,0.0,0.0,0.0,0.0,0.0,0.0,0.0,1.6176,1.6483,1.6096,1.5679,1.5379,1.5319,0.0,0.0,1.3825,1.3645,1.3286,1.3555,1.4552,1.627,1.7625,1.814,1.7712,1.7055,1.6398,1.5771,1.6189,1.712,1.8583,1.9253,1.9813,2.033,2.0671,1.961,1.7578,1.7578,1.7151,1.6543,1.6878,1.7089,1.7236,1.7059,1.6574,1.5996,1.5856,0.0,0.0,0.0,0.0,0.0,0.0,0.0,1.8855,2.0302,2.1782,2.353,2.6112,2.8967,3.1747,3.3764,3.7335,4.0292,4.0072,4.0833,4.1885,4.3103,4.3575,0.0,0.0,0.0,0.0,0.0,0.0,0.0,0.0,0.0,0.0,0.0,0.0,0.0,0.0,0.0,0.0,0.0,0.0,0.0,0.0,0.0,4.9154,4.9526,4.9898,5.0608,5.1725,5.2131,5.2706,5.3518,5.3518,5.3721,5.4195,5.4431,5.5788,5.7868,5.7895,5.7887,5.7881,5.7881,5.7881,5.7881,5.791,5.7924,5.8312,6.1249,6.2377,6.2381,0.0,0.0,0.0,0.0,0.0,0.0,0.0,0.0,0.0,1.6191,1.5998,1.5559,1.4872,1.4782,1.4483,0.0,0.0,0.0,1.3795,1.4633,1.5859,1.7443,1.8702,1.8852,1.7712,1.6936,1.6039,1.4962,1.4423,1.5716,1.8747,1.9061,1.9622,2.0344,2.0836,1.9456,1.6758,1.7181,1.6756,1.5941,1.6701,1.7148,1.7341,1.7189,1.6797,1.6274,1.5998,1.5916,1.5978,1.6065,0.0,0.0,0.0,0.0,1.8041,1.9839,2.1355,2.3305,2.7381,2.955,3.1728,3.604,3.8399,3.9741,3.9945,4.0896,4.1788,4.1788,0.0,0.0,0.0,0.0,0.0,0.0,0.0,0.0,0.0,0.0,0.0,0.0,0.0,0.0,0.0,0.0,0.0,0.0,0.0,0.0,0.0,0.0,4.9458,5.0067,5.0338,5.1048,5.23,5.2435,5.2841,5.3518,5.3619,5.4126,5.5075,5.5615,5.6599,5.7933,5.7887,5.7881,5.7881,5.7881,5.7881,5.7915,5.7897,5.8261,5.9001,6.1443,6.2402,6.2381,0.0,0.0,0.0,0.0,0.0,0.0,0.0,0.0,0.0,0.0,1.5827,1.5559,1.4872,1.4782,1.43,1.3041,1.2951,1.3166,1.3765,0.0,0.0,1.6846,1.7563,1.7861,1.7682,1.6518,1.5858,1.5679,1.5589,1.7078,2.0016,1.8996,1.9243,2.0453,2.0191,1.889,1.6843,1.6231,1.5242,1.4252,1.5424,1.5782,1.5697,1.6235,1.6363,1.6301,1.6246,1.6361,1.6638,1.6965,1.6878,0.0,0.0,0.0,1.7861,1.8732,2.0332,2.2214,2.3919,2.778,3.2634,3.8052,3.9533,3.9858,4.0422,4.0738,4.0894,0.0,0.0,0.0,0.0,0.0,0.0,0.0,0.0,0.0,0.0,0.0,0.0,0.0,0.0,0.0,0.0,0.0,0.0,0.0,0.0,0.0,0.0,4.9593,4.9999,5.0101,5.1319,5.2097,5.23,5.2976,5.3382,5.3518,5.416,5.4837,5.5615,5.6325,5.7074,5.7933,5.7887,5.7881,5.7881,5.7881,5.7881,5.7915,5.7897,5.9505,6.1817,6.2251,6.2402,6.2381,0.0,0.0,0.0,0.0,0.0,0.0,0.0,0.0,0.0,0.0,0.0,1.5559,1.4872,1.4453,1.393,1.31,1.3031,1.3313,1.3983,1.5482,1.6306,1.6189,1.7176,1.7386,1.6637,1.5739,1.4869,1.412,1.4509,1.6258,1.9242,1.8892,2.0054,2.2335,2.0482,1.8621,1.6793,1.6038,1.501,1.4044,1.4992,1.6157,1.724,1.6539,1.6754,1.7396,1.6802,1.6401,1.6181,1.6611,1.6622,1.6452,1.6248,0.0,0.0,0.0,1.7954,1.9803,2.4118,2.9146,3.4029,3.7548,3.8739,3.9139,3.9838,3.999,4.0112,0.0,0.0,0.0,0.0,0.0,0.0,0.0,0.0,0.0,0.0,0.0,0.0,0.0,0.0,0.0,0.0,0.0,0.0,0.0,0.0,0.0,4.9018,4.9695,5.027,5.071,5.1758,5.2536,5.2976,5.3315,5.3721,5.4126,5.4871,5.5615,5.6359,5.707,5.7616,5.7925,5.792,5.7881,5.7881,5.7881,5.8186,5.8693,5.8747,6.0216,6.2395,6.2368,6.2391,6.2381,0.0,0.0,0.0,0.0,0.0,0.0,0.0,0.0,0.0,0.0,0.0,1.5808,1.5137,0.0,0.0,0.0,1.3165,1.3308,1.3899,1.5145,1.575,1.5559,1.6608,1.6697,1.5589,1.4872,1.3974,1.2801,1.3645,1.554,1.8437,1.8894,2.0762,2.3588,2.1069,1.8812,1.6919,1.6224,1.5407,1.464,1.5449,1.6998,1.8723,1.8145,1.8805,1.9959,1.8768,1.7926,1.7369,1.7183,1.6826,1.6382,1.6024,1.5942,0.0,0.0,0.0,1.8253,2.426,2.8733,3.2436,3.5446,3.64,3.7045,3.8571,0.0,3.9272,0.0,0.0,0.0,0.0,0.0,0.0,0.0,0.0,0.0,0.0,0.0,0.0,0.0,0.0,0.0,0.0,0.0,0.0,0.0,0.0,0.0,4.9018,4.9864,5.0642,5.1183,5.2131,5.2909,5.3484,5.3518,5.3856,5.46,5.5344,5.6089,5.6833,5.7543,5.7881,5.7881,5.7881,5.7881,5.7881,5.7881,5.853,5.9445,5.9708,6.0867,6.2377,6.2391,6.2381,6.2381,0.0,0.0,0.0,0.0,0.0,0.0,0.0,0.0,0.0,0.0,0.0,1.6492,1.5831,1.508,1.4409,1.3748,1.3023,1.2819,1.3211,1.4517,1.5132,1.4869,1.5529,0.0,1.4842,1.4214,1.3496,1.2801,1.412,1.608,1.8586,1.9155,2.0761,2.3181,2.1749,1.9731,1.7349,1.6852,1.6331,1.5905,1.7154,1.8004,1.8834,2.1495,2.3484,2.4547,2.3088,2.234,2.1761,1.9947,1.8182,1.6727,1.6382,1.6274,1.6219,0.0,0.0,0.0,2.2774,2.405,2.556,3.1442,3.2383,3.2886,3.6656,0.0,0.0,0.0,0.0,0.0,0.0,0.0,0.0,0.0,0.0,0.0,0.0,0.0,0.0,0.0,0.0,0.0,0.0,0.0,0.0,0.0,0.0,0.0,4.9018,5.0371,5.1183,5.1217,5.2672,5.345,5.3518,5.3518,5.3856,5.46,5.5344,5.6089,5.6833,5.7543,5.7881,5.7881,5.7881,5.7881,5.7881,5.7881,5.853,5.9478,6.0435,6.1495,6.2377,6.2391,6.2381,6.2381,0.0,0.0,0.0,0.0,0.0,0.0,0.0,0.0,0.0,0.0,0.0,0.0,0.0,1.5135,1.4497,1.3934,1.3837,1.3606,1.309,1.4368,1.4908,1.4429,1.5045,1.5209,1.4782,1.4154,1.3466,1.2801,1.3705,1.5252,1.7395,1.7882,1.9248,2.1224,1.9902,1.9088,1.8574,1.6752,1.6156,1.6497,1.7423,1.9065,2.1177,2.316,2.5143,2.6824,2.6825,2.4877,2.2282,2.1827,1.9635,1.6954,1.6155,1.5902,1.5757,1.4996,1.6155,1.8263,2.0786,2.2848,2.5153,2.8817,3.0607,3.1959,3.3844,3.525,0.0,0.0,0.0,0.0,0.0,0.0,0.0,0.0,0.0,0.0,0.0,0.0,0.0,0.0,0.0,0.0,0.0,0.0,0.0,0.0,0.0,0.0,4.9661,5.0676,5.142,5.1894,5.2942,5.3518,5.3518,5.3518,5.4126,5.531,5.5581,5.6325,5.7509,5.778,5.7881,5.7881,5.7881,5.7881,5.7915,5.8423,5.9099,5.9911,6.0833,6.1646,6.2391,6.2381,6.2381,6.2381,0.0,0.0,0.0,0.0,0.0,0.0,0.0,0.0,1.7158,1.7158,0.0,0.0,0.0,0.0,1.5157,1.4609,1.4517,1.4167,1.3427,1.4225,1.4508,1.3999,1.4758,1.5006,1.4611,1.4085,1.3466,1.2801,1.3226,1.4244,1.5741,1.6379,1.7448,1.8777,1.7685,1.8018,1.9312,1.7736,1.7219,1.7579,1.908,2.0568,2.2192,2.4661,2.686,2.8653,0.0,0.0,2.4934,2.4944,2.2608,1.9399,1.7557,1.6233,1.5209,1.4523,1.5633,1.7303,1.8656,2.065,2.3,2.5771,2.7394,2.9012,3.1569,0.0,0.0,0.0,0.0,0.0,0.0,0.0,0.0,0.0,0.0,0.0,0.0,0.0,0.0,0.0,0.0,0.0,0.0,0.0,0.0,0.0,0.0,0.0,5.0067,5.0811,5.1691,5.2672,5.3213,5.3518,5.3518,5.3754,5.4499,5.5716,5.5953,5.6697,5.7881,5.7881,5.7881,5.7881,5.7881,5.7881,5.7949,5.8693,5.9438,6.0182,6.0994,6.1738,6.2381,6.2381,6.2381,6.2381,0.0,0.0,0.0,0.0,0.0,0.0,1.7794,1.7794,1.7794,1.7794,0.0,0.0,0.0,0.0,0.0,1.5697,1.4986,1.4454,1.4126,1.4048,1.3889,1.361,1.4631,1.4893,1.4239,1.397,1.349,1.2854,1.2824,1.3154,1.382,1.473,1.5509,1.6041,1.5359,1.6619,1.9345,1.968,1.9486,1.9181,2.209,2.2462,2.1813,2.6184,2.8822,0.0,3.0311,3.0277,0.0,2.9364,2.7097,2.3921,2.0489,1.7174,1.4574,1.4574,1.5106,1.5822,0.0,0.0,0.0,2.2207,2.2678,2.3834,2.9858,0.0,0.0,0.0,0.0,0.0,0.0,0.0,0.0,0.0,0.0,0.0,0.0,0.0,0.0,0.0,0.0,0.0,0.0,0.0,0.0,0.0,0.0,4.9323,5.0067,5.0845,5.1961,5.345,5.3518,5.3518,5.3518,5.4228,5.4972,5.5716,5.6461,5.7171,5.7881,5.7881,5.7881,5.7881,5.7881,5.7915,5.7983,5.8727,5.9471,6.0216,6.1028,6.1772,6.2381,6.2381,6.2381,6.2381,0.0,0.0,0.0,0.0,0.0,1.7794,1.7794,1.7794,1.7794,0.0,0.0,0.0,1.6035,1.59,1.6035,1.636,1.6224,1.5609,1.4454,1.4349,1.4217,1.3909,1.4681,1.5181,1.5288,1.4743,1.4373,1.4176,1.3147,1.3,1.3669,1.3924,1.4617,1.5675,1.5813,1.6282,1.697,1.6306,1.7434,1.9697,2.0027,2.1854,0.0,0.0,0.0,0.0,0.0,3.3998,3.1799,0.0,2.9194,2.368,1.8973,1.5977,1.4243,1.4243,1.4584,1.5181,1.6147,0.0,0.0,0.0,0.0,0.0,0.0,0.0,0.0,0.0,0.0,0.0,0.0,0.0,0.0,0.0,0.0,0.0,0.0,0.0,0.0,0.0,0.0,0.0,0.0,0.0,0.0,0.0,4.9018,4.9396,5.0345,5.1963,5.3078,5.3484,5.3518,5.3518,5.3518,5.4228,5.4972,5.5716,5.6461,5.7171,5.7881,5.7881,5.7881,5.7881,5.7881,5.8186,5.8761,5.9505,6.025,6.1028,6.1806,6.2212,6.2381,6.2381,6.2381,6.2381,0.0,0.0,1.7896,1.82,1.8268,1.8369,1.865,1.8471,1.8369,0.0,0.0,0.0,1.705,1.6982,1.7151,1.7579,1.7071,1.6204,1.5054,1.4377,1.3968,1.3752,1.4615,1.519,1.5434,1.4957,1.4719,1.4719,1.3279,1.2799,1.3195,1.3295,1.3573,1.4026,1.439,1.4728,1.4907,1.3983,1.5528,1.8809,2.0873,0.0,0.0,2.7774,3.004,0.0,0.0,0.0,3.2307,3.5351,3.1495,0.0,0.0,1.7502,1.5061,1.446,1.5305,1.6505,1.682,1.8096,1.952,2.0143,0.0,0.0,0.0,0.0,0.0,0.0,0.0,0.0,0.0,0.0,0.0,0.0,0.0,0.0,0.0,0.0,0.0,0.0,0.0,0.0,0.0,0.0,0.0,0.0,4.9018,4.9627,5.1017,5.2672,5.3518,5.3518,5.3518,5.3518,5.3518,5.4532,5.5277,5.5716,5.6765,5.7476,5.7881,5.7881,5.7881,5.7915,5.822,5.8795,5.9539,6.0283,6.0892,6.1366,6.211,6.2381,6.2381,6.2381,6.2381,6.2381,0.0,0.0,1.8132,1.8775,1.8978,1.9249,1.99,1.9452,1.9249,0.0,1.8785,1.8234,1.9046,1.908,1.9046,1.9147,1.7816,1.6597,1.5764,1.4362,1.3481,1.3413,1.4535,1.5143,1.5044,1.4875,1.4744,1.468,1.3348,1.2703,1.2671,1.2926,1.2653,1.1959,1.2202,1.2652,1.3244,1.2754,1.4344,1.7681,2.297,2.4323,0.0,0.0,2.9567,0.0,3.3017,3.322,3.2882,3.7347,3.3829,0.0,0.0,2.0906,1.7342,1.5528,1.7016,1.9113,1.8268,1.9123,2.0437,2.1246,2.1187,0.0,0.0,0.0,0.0,0.0,0.0,0.0,0.0,0.0,0.0,0.0,0.0,0.0,0.0,0.0,0.0,0.0,0.0,0.0,0.0,0.0,4.9018,4.9018,4.9187,5.0096,5.1787,5.2941,5.3518,5.3518,5.3518,5.3518,5.3518,5.4972,5.5716,5.575,5.7205,5.7881,5.7881,5.7881,5.7881,5.7915,5.8693,5.9438,6.0148,6.096,6.1366,6.1501,6.2144,6.2381,6.2381,6.2381,6.2381,6.2381,1.7456,1.8166,1.8741,1.8877,1.9384,1.9833,1.9968,1.9866,1.9833,1.9968,1.9249,1.9215,2.0628,2.0162,2.0061,2.067,1.935,1.7896,1.6563,1.5088,1.4005,1.3447,1.4746,1.5213,1.4622,1.5154,1.5134,1.4546,1.3661,1.3243,1.3243,1.3295,1.2941,1.2218,1.2298,1.2381,1.2584,1.3633,1.6475,2.0425,2.161,0.0,2.8822,3.0852,3.3152,3.5487,3.7246,3.8091,3.8362,0.0,3.5825,3.207,0.0,2.456,2.3105,1.9181,1.9756,2.1346,1.9934,2.0677,2.1758,2.1339,2.2249,0.0,0.0,0.0,0.0,0.0,0.0,0.0,0.0,0.0,0.0,0.0,0.0,0.0,0.0,0.0,0.0,0.0,0.0,0.0,0.0,0.0,4.9018,4.9018,5.0469,5.1414,5.1319,5.2706,5.3518,5.3518,5.3518,5.3518,5.3518,5.4972,5.5716,5.575,5.7205,5.7881,5.7881,5.7881,5.7881,5.7915,5.8693,5.9438,6.0148,6.096,6.1637,6.2178,6.2347,6.2381,6.2381,6.2381,6.2381,6.2381,1.7726,1.8403,1.9012,1.9384,2.0094,2.0737,2.1083,2.0839,2.0873,2.1617,2.138,2.1143,2.1204,2.1177,2.1008,2.0636,1.9699,1.8256,1.6292,1.5237,1.4298,1.3447,1.4445,1.5054,1.5054,1.5054,1.5054,1.5054,1.3565,1.2855,1.2821,1.2431,1.2652,1.3362,1.2212,1.2815,1.4624,1.3769,1.6047,2.0489,2.2954,0.0,3.1427,3.366,3.5453,3.7009,3.8903,4.0527,4.1441,3.9208,3.6941,0.0,3.0243,2.7909,2.5913,2.182,2.2192,2.3477,2.1211,2.1448,2.2293,2.2293,2.2689,0.0,0.0,0.0,0.0,0.0,0.0,0.0,0.0,0.0,0.0,0.0,0.0,0.0,0.0,0.0,0.0,0.0,0.0,0.0,0.0,0.0,4.9018,4.9018,5.0871,5.1854,5.1586,5.2773,5.3518,5.3518,5.3518,5.3687,5.4059,5.5141,5.5886,5.6258,5.7374,5.7881,5.7881,5.7881,5.8084,5.849,5.9235,6.0013,6.0757,6.1535,6.2076,6.2381,6.2381,6.2381,6.2381,6.2381,6.2381,6.2381,1.7794,1.8403,1.908,1.9664,2.0568,2.138,2.1989,2.1684,2.1887,2.3241,2.3511,2.3299,2.2494,2.3073,2.3102,2.2081,2.1541,2.0082,1.7288,1.662,1.5854,1.4792,1.4755,1.5246,1.6204,1.5122,1.4716,1.5189,1.3227,1.2314,1.228,1.1637,1.2246,1.3802,1.2686,1.3803,1.649,1.4587,1.6482,2.1103,0.0,2.8687,3.136,3.481,3.64,3.7144,3.9952,4.1948,4.276,3.9952,0.0,3.5385,3.2882,3.0717,0.0,2.4323,2.4729,2.5778,2.2694,2.2462,2.3207,2.3342,2.3274,2.3613,0.0,0.0,0.0,0.0,0.0,0.0,0.0,0.0,0.0,0.0,0.0,0.0,0.0,0.0,0.0,0.0,0.0,0.0,0.0,0.0,4.8105,4.8545,4.9927,5.0939,5.138,5.2772,5.3518,5.3518,5.3518,5.3856,5.4566,5.5344,5.6089,5.6799,5.7543,5.7881,5.7881,5.7881,5.8287,5.9066,5.9776,6.0554,6.1366,6.2076,6.2381,6.2381,6.2381,6.2381,6.2381,6.2381,6.2381,6.2381,1.7693,1.8403,1.891,1.9012,2.023,2.1237,2.1339,2.182,2.2462,2.3274,2.3951,2.4978,2.6631,2.743,2.8277,2.9218,2.8663,2.6621,2.2772,2.1854,2.0902,1.9682,1.7181,1.6669,1.8471,1.59,1.4208,1.365,1.272,1.2314,1.2314,1.2212,1.1908,1.1603,1.47,1.5581,1.499,1.7896,2.1718,0.0,2.7978,2.7774,0.0,3.1901,3.5047,3.7415,4.232,4.3369,4.2049,0.0,3.7956,3.6028,0.0,3.2442,3.2747,2.7672,2.7807,2.8789,2.5101,2.5135,2.5744,2.3849,2.4797,2.5609,0.0,0.0,2.3752,0.0,0.0,0.0,0.0,0.0,0.0,0.0,0.0,0.0,0.0,0.0,0.0,0.0,0.0,0.0,0.0,0.0,0.0,4.6887,4.665,4.7259,4.9221,5.1995,5.3518,5.3518,5.3518,5.3856,5.4566,5.5344,5.6089,5.6799,5.7543,5.7881,5.7881,5.7881,5.8287,5.9066,5.9776,6.0554,6.1366,6.2076,6.2381,6.2381,6.2381,6.2381,6.2381,6.2381,6.2381,6.2381,1.708,1.8099,1.8775,1.8335,1.9519,2.05,2.05,2.226,2.3511,2.341,2.4019,2.5419,2.7906,2.7657,2.8187,3.0362,0.0,2.8216,0.0,0.0,2.2331,2.0937,1.8003,1.689,1.788,1.5658,1.4141,1.3413,1.2178,1.1367,1.0961,1.0961,1.1942,1.3802,1.5818,1.8547,2.1674,2.1447,2.3179,0.0,0.0,0.0,0.0,3.3829,3.8024,4.0392,4.347,4.3606,4.2286,0.0,3.9817,0.0,0.0,0.0,0.0,3.1359,3.004,2.8493,2.5639,2.5763,2.6251,2.4458,0.0,0.0,2.341,0.0,2.2665,0.0,0.0,0.0,0.0,0.0,0.0,0.0,0.0,0.0,0.0,0.0,0.0,0.0,0.0,0.0,0.0,0.0,0.0,0.0,0.0,4.621,4.8849,5.142,5.301,5.3484,5.3923,5.4499,5.5243,5.5987,5.6697,5.7442,5.7746,5.7881,5.7881,5.7881,5.8524,5.9674,5.9979,6.0791,6.1941,6.2245,6.2381,6.2381,6.2381,6.2381,6.2381,6.2381,6.2381,6.2381,1.6188,1.7403,1.8167,1.7591,1.8741,1.9833,2.0238,2.253,2.4282,2.4496,2.532,2.7178,3.0561,2.9743,3.0066,3.2913,3.2545,3.1002,0.0,0.0,2.5469,2.4523,2.052,0.0,1.9486,1.6505,1.4434,1.3462,1.2073,1.1265,1.0927,1.0724,1.2178,1.5054,1.6813,2.0349,2.4945,2.4144,2.5261,2.7607,2.8459,2.9127,3.0243,3.6366,4.0189,4.2489,4.4045,4.3606,4.2354,4.2861,4.0646,0.0,4.0707,0.0,3.5098,0.0,3.3459,3.0973,2.8363,0.0,0.0,0.0,0.0,0.0,0.0,0.0,0.0,0.0,0.0,0.0,0.0,0.0,2.2258,2.2758,0.0,0.0,0.0,0.0,0.0,0.0,0.0,0.0,0.0,0.0,0.0,0.0,0.0,0.0,4.7631,5.0676,5.2469,5.2875,5.3991,5.4938,5.5716,5.6427,5.7171,5.7881,5.7881,5.7881,5.7881,5.8084,5.8896,6.0114,6.0317,6.1163,6.2381,6.2381,6.2381,6.2381,6.2381,6.2381,6.2381,6.2381,6.2381,6.2381,1.5055,1.6133,1.6978,1.6774,1.7986,1.9418,2.0933,2.2462,2.4364,0.0,0.0,0.0,0.0,0.0,0.0,0.0,0.0,3.7008,3.3743,0.0,3.242,0.0,0.0,2.3394,0.0,1.9225,1.5227,1.3601,1.2694,1.2618,1.3278,1.2551,1.2652,1.365,1.7997,2.0027,2.056,2.5541,2.933,3.2218,3.3702,3.64,3.9478,0.0,3.9749,4.2489,4.4045,0.0,0.0,3.9884,3.9487,0.0,0.0,0.0,0.0,0.0,0.0,0.0,0.0,0.0,0.0,2.7675,0.0,0.0,0.0,0.0,2.4019,0.0,0.0,0.0,2.3477,2.3342,2.3346,2.3346,2.4056,0.0,0.0,0.0,0.0,0.0,0.0,0.0,0.0,0.0,0.0,0.0,0.0,0.0,4.4519,4.9526,5.1995,5.1319,5.345,5.4938,5.5716,5.6427,5.7171,5.7881,5.7881,5.7881,5.7915,5.866,5.9404,6.0148,6.0926,6.167,6.2381,6.2381,6.2381,6.2381,6.2381,6.2381,6.2381,6.2381,6.2381,6.2381,1.5433,1.6494,1.7029,1.5693,1.6703,1.8439,2.0685,2.3377,0.0,0.0,0.0,0.0,0.0,0.0,3.6266,0.0,0.0,3.7991,3.634,3.4264,0.0,0.0,0.0,2.4082,0.0,0.0,1.6516,1.387,1.3566,1.3206,1.2785,1.2545,1.329,1.4986,1.8447,2.1892,2.5224,0.0,0.0,0.0,0.0,3.7957,4.0121,0.0,0.0,4.2543,4.4487,4.4251,0.0,4.368,4.2412,4.0954,4.3137,4.1971,4.0058,4.1504,4.0745,0.0,0.0,0.0,3.6465,3.1874,0.0,0.0,0.0,0.0,0.0,0.0,0.0,0.0,2.5,2.4864,2.4526,2.3545,2.3613,2.3511,0.0,0.0,0.0,0.0,0.0,0.0,0.0,0.0,0.0,0.0,0.0,0.0,0.0,4.8646,5.0913,5.2672,5.4431,5.5446,5.5716,5.6934,5.7645,5.7881,5.7881,5.7881,5.7915,5.866,5.9404,6.0148,6.096,6.1704,6.2381,6.2381,6.2381,6.2381,6.2381,6.2381,6.2381,6.2381,6.2381,6.2302,1.7139,1.7205,1.6944,1.5801,1.6893,1.8578,2.0583,0.0,0.0,0.0,3.0676,0.0,3.7507,0.0,3.6784,0.0,3.9423,3.8652,3.7551,3.612,0.0,3.5532,3.0856,0.0,0.0,0.0,1.9974,1.708,1.5875,1.4935,1.4259,1.3698,1.4289,1.5966,1.829,2.1823,2.6191,2.8664,3.2479,0.0,0.0,4.1013,0.0,0.0,4.298,4.2261,0.0,4.5656,4.5124,4.6742,4.5828,4.4492,4.7115,4.5802,4.3652,4.5257,4.46,4.3215,4.2449,4.2008,0.0,3.6755,3.49,0.0,2.8421,0.0,2.8258,0.0,0.0,0.0,0.0,2.7012,2.5047,2.5236,2.4202,2.3139,0.0,2.2327,0.0,0.0,0.0,0.0,0.0,0.0,0.0,0.0,0.0,0.0,0.0,0.0,4.912,5.1048,5.3078,5.4363,5.4938,5.6393,5.7374,5.7881,5.7881,5.7881,5.7915,5.893,5.9641,6.0148,6.1231,6.1941,6.2381,6.2381,6.2381,6.2381,6.2381,6.2381,6.2381,6.2381,6.2381,6.2223,1.9726,1.8057,1.6904,1.7272,1.8557,0.0,0.0,0.0,2.8826,0.0,3.3762,3.6749,3.957,3.8536,3.8272,3.9816,3.9963,0.0,3.7757,3.8322,0.0,0.0,3.6413,3.5064,3.5064,0.0,0.0,0.0,1.9435,1.77,1.7524,1.5924,1.5589,1.6339,1.7607,2.0092,2.3565,2.7396,3.3087,3.9899,4.4395,4.5234,4.3986,4.5787,0.0,4.1719,4.6141,4.7748,4.7926,4.8733,4.9364,4.9767,4.9174,4.9848,5.0684,5.0025,5.0314,5.0428,4.8374,4.6771,4.4989,4.2103,0.0,0.0,0.0,0.0,3.4516,0.0,0.0,0.0,0.0,0.0,2.5177,2.8002,2.5566,2.3105,2.2395,0.0,0.0,0.0,0.0,0.0,0.0,0.0,0.0,0.0,0.0,0.0,0.0,0.0,0.0,4.6853,4.9661,5.1928,5.3484,5.4938,5.6393,5.7881,5.7881,5.7915,5.7983,5.9438,6.0114,6.025,6.1738,6.2381,6.2381,6.2381,6.2381,6.2381,6.2381,6.2381,6.2381,6.2381,6.2381,6.2223,1.8044,1.8595,1.954,2.0444,2.0825,2.1689,0.0,0.0,0.0,0.0,3.5042,3.7207,3.911,3.9528,3.99,4.0577,4.0961,0.0,0.0,0.0,0.0,3.957,3.7257,3.5973,3.5973,3.0931,0.0,2.5596,2.1661,1.9355,1.859,1.6987,1.6232,1.6324,1.8439,2.1445,2.511,2.8473,3.36,3.9646,4.2471,4.243,0.0,0.0,4.5417,4.376,4.7132,4.8758,4.9343,5.0076,5.0399,5.0524,5.0356,5.0561,5.0762,5.0602,5.1124,5.1573,5.1009,5.0167,4.8773,4.6245,4.3908,4.157,0.0,0.0,0.0,0.0,0.0,0.0,0.0,0.0,0.0,2.5559,2.3699,2.253,2.2327,0.0,0.0,0.0,0.0,0.0,0.0,0.0,0.0,0.0,0.0,0.0,0.0,0.0,0.0,4.753,4.9424,5.1386,5.3484,5.4431,5.5886,5.7881,5.7881,5.8186,5.8761,5.9674,6.0419,6.1028,6.1975,6.2381,6.2381,6.2381,6.2381,6.2381,6.2381,6.2381,6.2381,6.2381,6.2381,6.211,2.007,2.0678,2.1625,2.2227,0.0,0.0,2.6024,0.0,0.0,3.3905,3.6316,0.0,3.9226,4.0427,4.1166,4.1191,4.1916,0.0,0.0,0.0,0.0,4.0651,3.969,3.932,3.969,3.5432,0.0,3.0005,0.0,2.1825,2.0152,1.7824,1.666,1.6617,1.8914,2.1422,2.4271,3.0296,3.4957,3.8576,4.2482,0.0,0.0,4.6832,4.7934,4.7776,4.9476,5.038,5.0903,5.1637,5.1867,5.1867,5.1867,5.1867,5.1867,5.1867,5.216,5.2527,5.2527,5.2197,5.1536,5.0141,4.8746,4.7021,4.4195,4.3579,4.3647,0.0,0.0,0.0,0.0,0.0,0.0,2.5296,2.3254,0.0,0.0,0.0,0.0,0.0,0.0,0.0,0.0,0.0,0.0,0.0,0.0,0.0,0.0,0.0,0.0,4.6819,4.8376,5.0236,5.2469,5.3213,5.4397,5.5987,5.663,5.734,5.8084,5.9471,6.0554,6.1332,6.2076,6.2381,6.2381,6.2381,6.2381,6.2381,6.2381,6.2381,6.2381,6.2381,6.2381,6.211,2.349,2.3152,2.3051,2.3125,0.0,0.0,0.0,2.983,0.0,3.4997,0.0,3.9564,3.9966,4.1373,4.2221,4.1965,0.0,4.2762,4.0974,4.2498,4.2987,4.1876,4.2565,4.3252,4.3998,4.0597,0.0,0.0,0.0,2.4393,2.1748,1.8574,1.6945,1.6821,1.914,2.1225,2.3658,3.2632,3.679,3.7778,4.3687,4.6471,4.7315,4.9187,5.0765,5.2013,5.2123,5.216,5.227,5.2968,5.3225,5.3225,5.3225,5.3225,5.3225,5.3225,5.3225,5.3225,5.3225,5.3225,5.3225,5.3225,5.3225,5.2454,4.9591,4.8693,4.8493,4.8852,4.5112,4.3469,0.0,0.0,0.0,0.0,0.0,0.0,0.0,0.0,0.0,0.0,0.0,0.0,0.0,0.0,0.0,0.0,0.0,0.0,0.0,0.0,0.0,4.5466,4.6989,0.0,5.1048,0.0,5.257,5.3382,5.4938,5.6089,5.6867,5.9099,6.0554,6.1332,6.2076,6.2381,6.2381,6.2381,6.2381,6.2381,6.2381,6.2381,6.2381,6.2381,6.2381,6.2223,2.3614,2.3268,2.3392,2.3897,0.0,2.9505,3.1214,3.4073,3.6713,3.8568,3.9844,0.0,4.1965,4.2976,4.367,4.381,4.4395,0.0,0.0,0.0,0.0,4.3038,4.3502,4.3849,4.3998,4.1151,3.8462,0.0,0.0,2.5474,2.1748,1.9124,1.7179,1.6041,1.9078,2.3895,3.0026,3.5128,0.0,4.072,4.5113,4.6985,4.7462,5.0435,5.1756,5.2087,5.2747,5.3004,5.3004,5.3151,5.3225,5.3225,5.3225,5.3225,5.3225,5.3225,5.3225,5.3225,5.3225,5.3225,5.3225,5.3225,5.3225,5.3078,5.2491,5.2302,5.226,5.2302,5.0578,4.8522,4.7058,0.0,0.0,0.0,0.0,0.0,0.0,0.0,0.0,0.0,0.0,0.0,0.0,0.0,0.0,0.0,0.0,0.0,0.0,0.0,0.0,0.0,0.0,0.0,0.0,0.0,5.1792,5.2536,5.4702,5.6089,5.6867,5.9099,6.0554,6.1332,6.2076,6.2381,6.2381,6.2381,6.2381,6.2381,6.2381,6.2381,6.2381,6.2381,6.2381,6.2223,2.5459,0.0,0.0,0.0,0.0,0.0,0.0,3.7659,0.0,4.0082,4.1127,4.21,4.2794,4.402,4.4768,4.471,4.5093,4.513,4.4586,4.4908,4.4843,4.4265,4.4436,0.0,4.4587,4.31,4.0728,3.7455,0.0,2.8022,2.3015,2.14,1.9087,1.6518,2.0592,2.5548,3.1054,0.0,0.0,4.2616,4.5847,4.8122,4.9811,5.1389,5.227,5.2674,5.3078,5.3225,5.3225,5.3225,5.3225,5.3225,5.3225,5.3225,5.3225,5.3225,5.3225,5.3225,5.3225,5.3225,5.3225,5.3225,5.3225,5.3225,5.3225,5.3225,5.3225,5.3225,5.2601,5.1059,4.7755,4.2921,0.0,0.0,0.0,0.0,0.0,0.0,0.0,0.0,0.0,0.0,0.0,0.0,0.0,0.0,0.0,0.0,0.0,0.0,0.0,0.0,0.0,0.0,0.0,0.0,0.0,5.2334,5.4634,5.6292,5.7442,5.9268,6.0757,6.1873,6.2245,6.2381,6.2381,6.2381,6.2381,6.2381,6.2381,6.2381,6.2381,6.2381,6.2381,6.2302,2.8067,2.8259,0.0,0.0,3.2144,0.0,3.7385,4.0334,4.2085,4.1393,4.2312,4.3196,4.3568,4.4816,4.5475,4.5222,4.5438,4.5475,4.5222,4.5438,4.5475,4.5222,4.5311,4.5344,4.5344,4.5192,4.329,0.0,0.0,0.0,2.5078,2.4026,2.2171,1.9879,0.0,0.0,0.0,0.0,4.0891,4.4488,4.7095,4.9701,5.2013,5.2197,5.2637,5.3225,5.3225,5.3225,5.3225,5.3225,5.3225,5.3225,5.3225,5.3225,5.3225,5.3225,5.3225,5.3225,5.3225,5.3225,5.3225,5.3225,5.3225,5.3225,5.3225,5.3225,5.3225,5.3225,5.3225,5.2197,4.893,4.5552,0.0,0.0,0.0,0.0,0.0,0.0,0.0,0.0,0.0,0.0,0.0,0.0,0.0,0.0,0.0,0.0,0.0,0.0,0.0,0.0,0.0,4.7293,4.9357,0.0,5.1488,0.0,5.4566,5.6393,5.7712,5.937,6.0858,6.2178,6.2313,6.2381,6.2381,6.2381,6.2381,6.2381,6.2381,6.2381,6.2381,6.2381,6.2381,6.2415,0.0,0.0,0.0,0.0,0.0,0.0,0.0,4.1311,4.4047,4.3932,4.4068,4.4453,4.5278,4.5509,4.5586,4.5568,4.5586,4.5586,4.5568,4.5586,4.5586,4.5568,4.5952,4.6205,4.6205,4.662,4.5621,0.0,0.0,0.0,0.0,2.606,2.6539,0.0,0.0,0.0,0.0,4.1809,4.4415,4.7058,5.0251,5.172,5.2087,5.2821,5.3151,5.3225,5.3225,5.3225,5.3225,5.3225,5.3225,5.3225,5.3225,5.3225,5.3225,5.3225,5.3225,5.3225,5.3225,5.3225,5.3225,5.3225,5.3225,5.3225,5.3225,5.3225,5.3225,5.3225,5.3225,5.2197,4.893,5.0321,5.0085,0.0,0.0,0.0,0.0,0.0,4.0889,4.3081,0.0,0.0,0.0,0.0,0.0,0.0,3.1948,0.0,0.0,0.0,0.0,4.2388,0.0,4.5534,4.709,4.983,0.0,5.1352,5.4296,5.6122,5.6968,5.9133,6.0588,6.1434,6.211,6.2381,6.2381,6.2381,6.2381,6.2381,6.2381,6.2381,6.2381,6.2381,6.2381,6.2482,0.0,0.0,0.0,0.0,0.0,0.0,0.0,4.3167,4.447,4.5009,4.5086,4.5201,4.5547,4.5586,4.5586,4.5586,4.5586,4.5586,4.5586,4.6086,4.6394,4.6394,4.7031,4.7356,4.7356,4.7597,4.6647,0.0,0.0,0.0,0.0,2.9976,0.0,0.0,0.0,3.7845,4.1515,4.4415,4.7095,4.9481,5.1279,5.227,5.2747,5.3078,5.3225,5.3225,5.3225,5.3225,5.3225,5.3225,5.3225,5.3225,5.3225,5.3225,5.3225,5.3225,5.3225,5.3225,5.3225,5.3225,5.3225,5.3225,5.3225,5.3225,5.3225,5.3225,5.3225,5.3225,5.3225,5.2821,5.1499,5.0692,4.9768,0.0,0.0,0.0,0.0,0.0,0.0,4.6549,0.0,4.321,0.0,0.0,0.0,0.0,0.0,0.0,0.0,0.0,0.0,3.958,0.0,4.55,4.7462,4.9965,5.2334,5.46,5.6224,5.7645,5.8829,5.9708,6.0791,6.1975,6.2245,6.2381,6.2381,6.2381,6.2381,6.2381,6.2381,6.2381,6.2381,6.2381,6.2685,6.3159,3.7316,0.0,3.8022,0.0,3.9976,4.1391,4.3915,4.4509,4.4893,4.5509,4.5586,4.5586,4.5586,4.5586,4.5586,4.5586,4.5586,4.5701,4.597,4.6547,4.7009,4.724,4.8048,0.0,4.8471,4.874,4.8183,4.6797,4.3618,0.0,0.0,3.4492,0.0,0.0,3.968,4.1956,4.4599,4.7131,4.9334,5.1206,5.2013,5.2711,5.3225,5.3225,5.3225,5.3225,5.3225,5.3225,5.3225,5.3225,5.3225,5.3225,5.3225,5.3225,5.3225,5.3225,5.3225,5.3225,5.3225,5.3225,5.3225,5.3225,5.3225,5.3225,5.3225,5.3225,5.3225,5.3225,5.3225,5.3225,5.3225,5.1316,4.9921,5.0362,0.0,0.0,0.0,0.0,0.0,0.0,4.6249,0.0,0.0,0.0,0.0,0.0,0.0,0.0,0.0,0.0,0.0,0.0,0.0,0.0,0.0,4.9898,5.2875,5.6156,5.734,5.866,6.0114,6.0554,6.1366,6.2381,6.2381,6.2381,6.2381,6.2381,6.2381,6.2381,6.2381,6.2381,6.2381,6.2381,6.2854,6.3632,4.1546,4.1723,4.1992,4.2893,4.3701,4.4239,4.4278,4.5009,4.5586,4.5586,4.5586,4.5586,4.5586,4.5586,4.5586,4.5586,4.5586,4.597,4.6817,4.6894,4.724,0.0,0.0,4.9394,4.9394,5.024,5.0664,5.0625,0.0,0.0,4.2584,3.9429,4.0317,4.4599,4.4635,4.6434,4.9554,5.0398,5.1242,5.205,5.2858,5.3188,5.3225,5.3225,5.3225,5.3225,5.3225,5.3225,5.3225,5.3225,5.3225,5.3225,5.3225,5.3225,5.3225,5.3225,5.3225,5.3225,5.3225,5.3225,5.3225,5.3225,5.3225,5.3225,5.3225,5.3225,5.3225,5.3225,5.3225,5.3225,5.3225,5.3188,5.238,4.9994,0.0,0.0,0.0,0.0,0.0,4.5223,0.0,0.0,0.0,0.0,0.0,0.0,0.0,0.0,0.0,0.0,0.0,4.002,4.1542,0.0,4.5703,4.939,5.2367,5.4634,5.6833,5.866,6.0148,6.167,6.2381,6.2381,6.2381,6.2381,6.2381,6.2381,6.2381,6.2381,6.2381,6.2381,6.2381,6.2381,6.2854,6.3632,4.2624,4.3124,4.3585,4.3855,4.4624,4.5201,4.5201,4.5432,4.5586,4.5586,4.5586,4.5817,4.6432,4.6509,4.6509,0.0,4.7009,4.7432,0.0,4.8279,4.8702,4.8971,4.9817,5.0279,5.0279,5.0548,5.0702,5.0702,0.0,0.0,0.0,4.2261,4.3337,4.6001,4.7965,4.9439,5.0525,5.1874,5.2414,5.2493,5.3309,5.3444,5.3225,5.3225,5.3225,5.3225,5.3225,5.3225,5.3225,5.3225,5.3225,5.3225,5.3225,5.3225,5.3225,5.3225,5.3225,5.3225,5.3225,5.3225,5.3225,5.3225,5.3225,5.3225,5.3225,5.3225,5.3225,5.3225,5.3225,5.3225,5.3225,5.3225,5.2968,5.2197,5.2711,0.0,0.0,0.0,4.9884,4.7462,4.6103,0.0,0.0,0.0,0.0,0.0,0.0,0.0,0.0,0.0,0.0,0.0,4.2286,0.0,4.6413,4.9627,5.2604,5.5378,5.707,5.866,6.0148,6.1704,6.2381,6.2381,6.2381,6.2381,6.2381,6.2381,6.2381,6.2381,6.2381,6.2381,6.2381,6.2381,6.3193,6.4275,4.4124,4.4509,4.4855,4.4778,4.524,4.5586,4.5586,4.5624,4.5663,4.5586,4.5893,4.6317,4.6855,4.7471,0.0,4.7394,4.7817,4.824,4.8586,4.9086,4.9548,4.9856,5.0394,5.0702,5.0702,0.0,0.0,5.0702,4.9125,4.7486,4.5862,4.6031,4.6821,4.8197,4.9981,5.1156,5.176,5.2748,5.3165,5.3088,5.3609,5.3565,5.3225,5.3225,5.3225,5.3225,5.3225,5.3225,5.3225,5.3225,5.3225,5.3225,5.3225,5.3225,5.3225,5.3225,5.3225,5.3225,5.3225,5.3225,5.3225,5.3225,5.3225,5.3225,5.3225,5.3225,5.3225,5.3225,5.3225,5.3225,5.3225,5.3225,5.3225,5.3225,5.3225,5.3225,5.3225,0.0,4.9848,0.0,0.0,0.0,0.0,4.3188,0.0,0.0,0.0,0.0,0.0,0.0,0.0,4.2286,4.5128,0.0,4.8443,5.115,5.3585,5.575,5.7746,5.937,6.0588,6.1806,6.2381,6.2381,6.2381,6.2381,6.2381,6.2381,6.2381,6.2381,6.2381,6.2381,6.2415,6.2719,6.3565,6.4647,4.583,4.5813,0.0,0.0,4.5586,0.0,4.5586,4.5719,4.5796,4.5697,4.645,4.7009,4.7086,4.8471,4.9086,4.8355,0.0,0.0,0.0,4.9471,4.9856,5.0664,5.0702,5.0702,5.0702,5.0702,5.0702,5.0702,5.0741,5.056,5.0188,5.025,5.0558,5.0921,5.1026,5.1887,5.3293,5.3331,5.3569,5.3832,5.3869,5.3604,5.3225,5.323,5.323,5.3225,5.3225,5.3225,5.3225,5.3225,5.3225,5.3225,5.3225,5.3225,5.3225,5.3225,5.3225,5.3225,5.3225,5.3225,5.3225,5.3225,5.3225,5.3225,5.3225,5.3225,5.3225,5.3225,5.3225,5.3225,5.3225,5.3225,5.3225,5.3225,5.3225,5.3225,5.3225,0.0,4.9407,0.0,0.0,0.0,0.0,4.3319,4.441,0.0,0.0,0.0,0.0,0.0,4.2929,4.7834,4.9357,5.0439,5.1217,5.345,5.504,5.5987,5.8761,6.052,6.1332,6.2042,6.2381,6.2381,6.2381,6.2381,6.2381,6.2381,6.2381,6.2381,6.2381,6.2381,6.2482,6.3226,6.3971,6.4715,0.0,0.0,4.5834,4.5757,4.5757,4.5757,4.5757,4.5796,4.6018,4.6588,4.6877,4.7471,4.8663,4.9163,4.9586,5.0048,5.0087,5.0164,5.0356,5.0394,5.0471,5.0702,5.0702,5.0702,5.0702,5.0702,5.0702,5.0702,5.1318,5.1404,5.1051,5.2012,5.2388,5.2208,5.3183,5.3851,5.4235,5.4848,5.4798,5.4355,5.4671,5.4153,5.323,5.3526,5.3484,5.3225,5.3225,5.3225,5.3225,5.3225,5.3225,5.3225,5.3225,5.3225,5.3225,5.3225,5.3225,5.3225,5.3225,5.3225,5.3225,5.3225,5.3225,5.3225,5.3225,5.3225,5.3225,5.3225,5.3225,5.3225,5.3225,5.3225,5.3225,5.3225,5.3225,5.3225,5.3225,5.183,0.0,0.0,4.9884,5.0105,4.9738,5.0437,5.0413,0.0,0.0,0.0,0.0,4.7462,4.7462,4.8714,4.9627,5.0439,5.1217,5.345,5.5818,5.8254,5.9505,6.052,6.1332,6.2042,6.2381,6.2381,6.2381,6.2381,6.2381,6.2381,6.2381,6.2381,6.2381,6.2381,6.2482,6.3226,6.3971,6.4715,4.6002,4.5974,4.5968,4.5867,4.5851,4.5834,4.5834,4.6219,4.6661,4.7062,4.7805,4.8586,4.9413,4.9779,5.0164,5.0664,5.0702,5.0702,5.0702,5.0702,5.0702,5.0702,5.0702,5.0702,5.0702,5.0702,5.0894,5.1241,5.2087,5.2389,5.2181,5.2871,5.3311,5.3483,5.4177,5.4703,5.5088,5.5511,5.535,5.479,5.4988,5.4446,5.3524,5.372,5.3526,5.3225,5.3225,5.3225,5.3225,5.3225,5.3225,5.3225,5.3225,5.3225,5.3225,5.3225,5.3225,5.3225,5.3225,5.3225,5.3225,5.3225,5.3225,5.3225,5.3225,5.3225,5.3225,5.3225,5.3225,5.3225,5.3225,5.3225,5.3225,5.3225,5.3225,5.3225,5.3225,5.183,0.0,5.1316,5.172,5.2123,5.2527,5.3059,5.2891,5.1669,0.0,0.0,5.0507,5.1183,5.1555,5.1555,5.2266,5.301,5.3754,5.531,5.7239,5.9505,5.9911,6.0689,6.1806,6.2212,6.2381,6.2381,6.2381,6.2381,6.2381,6.2381,6.2381,6.2381,6.2381,6.2381,6.2516,6.3599,6.4275,6.4749,4.6133,4.6133,4.6088,4.5956,4.603,4.6136,4.6121,4.6947,4.7588,4.7626,4.8903,4.9815,4.9798,5.0337,5.0702,5.0702,5.0702,5.0702,5.0702,5.0702,5.0702,5.0702,5.0702,5.0741,5.0894,5.101,5.1395,5.2125,5.2972,5.3395,5.3395,5.351,5.3972,5.4664,5.4664,5.5049,5.5703,5.5703,5.5446,5.5107,5.516,5.4633,5.3795,5.3941,5.3682,5.3225,5.3272,5.323,5.3225,5.3225,5.3225,5.3225,5.3225,5.3225,5.3225,5.3225,5.3225,5.3225,5.3225,5.3225,5.3225,5.3225,5.3225,5.3225,5.3225,5.3225,5.3225,5.3225,5.3298,5.3408,5.3408,5.3482,5.3482,5.3261,5.3115,5.3078,5.3188,0.0,5.1353,5.2417,5.2637,5.3004,5.3702,5.3742,5.3741,5.3741,5.295,5.2469,0.0,5.3822,5.4634,5.4769,5.548,5.6224,5.6968,5.7679,5.8761,6.0114,6.0216,6.1028,6.2381,6.2381,6.2381,6.2381,6.2381,6.2381,6.2381,6.2381,6.2381,6.2381,6.2381,6.2381,6.2584,6.4072,6.4613,6.4816,4.6289,4.6289,4.6211,4.6091,4.6671,4.7184,4.7179,4.7927,4.8748,4.9475,4.9698,5.0015,5.0644,5.0721,5.0702,5.0702,5.0702,5.0702,5.0702,5.0702,5.0702,5.0702,5.0702,5.101,5.1702,5.2433,5.2856,5.301,5.3857,5.428,5.4318,5.4972,5.5395,5.5511,5.5511,5.5588,5.5703,5.5703,5.5446,5.5134,5.5446,5.4867,5.3869,5.4602,5.4187,5.323,5.3604,5.3484,5.3225,5.3225,5.3225,5.3225,5.3225,5.3225,5.3225,5.3225,5.3225,5.3225,5.3225,5.3225,5.3225,5.3225,5.3225,5.3225,5.3225,5.3225,5.3225,5.3225,5.3739,5.4216,5.4216,5.4766,5.4766,5.3445,5.2637,5.2417,5.3115,0.0,5.2601,5.4766,5.5647,5.6124,5.6235,5.5682,5.5334,5.5334,5.4086,5.3315,5.3315,5.4126,5.4871,5.5513,5.6258,5.6968,5.7712,5.8457,5.9268,6.0114,6.0791,6.1569,6.2381,6.2381,6.2381,6.2381,6.2381,6.2381,6.2381,6.2381,6.2381,6.2381,6.2381,6.2381,6.2584,6.4072,6.4613,6.4816,4.6289,4.6289,4.6289,4.6211,4.6914,4.7493,4.7501,4.8647,4.9646,5.0077,5.0376,5.068,5.0951,5.0914,5.0779,5.0702,5.0702,5.0702,5.0702,5.0702,5.0894,5.1318,5.1356,5.1741,5.2587,5.3433,5.3895,5.3895,5.4741,5.5164,5.5164,5.5511,5.5703,5.5703,5.5703,5.5703,5.5703,5.5703,5.5599,5.5423,5.5621,5.5237,5.4541,5.4933,5.4414,5.3526,5.372,5.3526,5.3225,5.3225,5.3225,5.3225,5.3225,5.3225,5.3225,5.3225,5.3225,5.3225,5.3225,5.3225,5.3225,5.3225,5.3225,5.3335,5.3739,5.3849,5.3959,5.4399,5.4803,5.506,5.506,5.5354,5.5354,5.462,5.4179,0.0,0.0,5.4179,5.4509,5.6051,5.6565,5.6969,5.7409,5.6762,5.6204,5.5724,5.505,5.4495,5.4093,5.5175,5.5953,5.6292,5.7002,5.7543,5.7881,5.8626,5.937,6.0114,6.0926,6.167,6.2381,6.2381,6.2381,6.2381,6.2381,6.2381,6.2381,6.2381,6.2381,6.2381,6.2381,6.2618,6.3125,6.4208,6.485,6.5358,4.6289,4.6289,4.6367,4.6562,4.7305,4.7969,4.8164,4.9492,5.0469,5.0469,5.0898,5.118,5.1139,5.1005,5.0875,5.0741,5.0894,5.0971,5.0971,5.1164,5.1471,5.1895,5.2279,5.2818,5.351,5.4357,5.478,5.478,5.5395,5.5703,5.5703,5.5703,5.5703,5.5703,5.5703,5.5703,5.5703,5.5703,5.5703,5.5703,5.5703,5.5446,5.5107,5.5212,5.4693,5.3941,5.3941,5.3683,5.3318,5.323,5.3225,5.3225,5.3225,5.3225,5.3225,5.3225,5.3225,5.3225,5.3225,5.3225,5.3225,5.3225,5.3335,5.3665,5.4252,5.4546,5.484,5.5464,5.5757,5.5868,5.5868,5.6014,5.6014,5.5647,0.0,0.0,0.0,5.5427,5.5757,5.6932,5.7079,5.7336,5.7923,5.7351,5.6635,5.6028,5.5802,5.5468,5.4906,5.6089,5.6867,5.7036,5.7577,5.7983,5.8152,5.8896,5.9641,6.0385,6.1163,6.1839,6.2381,6.2381,6.2381,6.2381,6.2381,6.2381,6.2381,6.2381,6.2381,6.2415,6.2584,6.299,6.3632,6.4512,6.5189,6.5797,4.6289,4.6289,4.6562,4.7344,4.8242,4.9062,4.9883,5.0742,5.1328,5.1328,5.125,5.1211,5.1208,5.1023,5.0914,5.0914,5.1433,5.1818,5.1818,5.2587,5.2702,5.1933,5.3433,5.4357,5.4395,5.5203,5.5588,5.5588,5.5665,5.5703,5.5703,5.5703,5.5703,5.5703,5.5703,5.5703,5.5703,5.5703,5.5703,5.5703,5.5703,5.5446,5.5134,5.5493,5.516,5.4452,5.4452,5.4153,5.3683,5.3318,5.3225,5.3225,5.3225,5.3225,5.3225,5.3225,5.3225,5.3225,5.3225,5.3225,5.3225,5.3225,5.3775,5.4326,5.4399,5.4987,5.5537,5.5574,5.6198,5.6712,5.6712,5.7336,5.7336,5.5831,0.0,0.0,5.55,5.495,5.5354,5.7629,5.7923,5.7923,5.7997,5.7351,5.6886,5.6843,5.6117,5.5709,5.5581,5.6393,5.7103,5.778,5.7848,5.822,5.893,5.9641,6.0419,6.1231,6.1941,6.2347,6.2381,6.2381,6.2381,6.2381,6.2381,6.2381,6.2381,6.2381,6.2381,6.2448,6.3159,6.3463,6.3666,6.5087,6.5628,6.5797,4.6289,4.6758,4.7226,4.7539,4.8789,4.9805,5.0156,5.0898,5.1406,5.1406,5.1367,5.1289,5.1211,5.1078,5.1208,5.1626,5.1818,5.2125,5.2664,5.351,5.3857,5.3549,5.4626,5.5241,5.5241,5.5549,5.5703,5.5703,5.5703,5.5703,5.5703,5.5703,5.5703,5.5703,5.5703,5.5703,5.5703,5.5703,5.5703,5.5703,5.5703,5.5599,5.547,5.5621,5.5375,5.4848,5.4848,5.4609,5.4153,5.372,5.3565,5.3563,5.3272,5.3359,5.3565,5.3565,5.3732,5.3959,5.3959,5.3959,5.3959,5.3959,5.4546,5.528,5.5757,5.6124,5.6492,5.6969,5.7336,5.7556,5.7556,5.7776,5.7776,5.7189,0.0,5.6748,5.7042,5.6822,5.6969,5.7886,5.7997,5.8217,5.8694,5.8494,5.8355,5.8393,5.8096,5.7625,5.7156,5.7321,5.7611,5.7881,5.8355,5.8727,5.9032,6.025,6.0994,6.1298,6.2042,6.2381,6.2381,6.2381,6.2381,6.2381,6.2381,6.2381,6.2381,6.2381,6.2381,6.2448,6.3226,6.3802,6.4309,6.5324,6.5967,6.644,4.6719,4.7422,4.8086,4.8359,4.9414,5.0273,5.0547,5.1055,5.1406,5.1406,5.1406,5.1363,5.1224,5.1373,5.1658,5.205,5.2472,5.2972,5.3587,5.4395,5.4895,5.4895,5.5395,5.5703,5.5703,5.5703,5.5703,5.5703,5.5703,5.5703,5.5703,5.5703,5.5703,5.5703,5.5703,5.5703,5.5703,5.5703,5.5703,5.5703,5.5703,5.5703,5.5703,5.5703,5.5531,5.5262,5.516,5.4905,5.4609,5.4187,5.4013,5.3941,5.3682,5.372,5.3833,5.3978,5.4179,5.4473,5.4693,5.495,5.5097,5.484,5.539,5.6124,5.6675,5.7005,5.7336,5.7886,5.7997,5.7997,5.7997,5.7997,5.7997,5.7997,5.7997,5.7997,5.7997,5.7997,5.8107,5.8364,5.84,5.8694,5.9501,5.9612,5.9578,5.9654,5.9588,5.9213,5.8415,5.8044,5.8017,5.8254,5.8964,5.9471,5.9742,6.0791,6.1434,6.1637,6.2144,6.2381,6.2381,6.2381,6.2381,6.2381,6.2381,6.2381,6.2381,6.2381,6.2516,6.2821,6.3565,6.4309,6.5019,6.5764,6.6373,6.6812,4.7617,4.832,4.918,5.0039,5.0195,5.0469,5.1289,5.1406,5.1406,5.1406,5.1406,5.1357,5.1218,5.1862,5.2266,5.2127,5.3587,5.4511,5.4511,5.5241,5.5703,5.5703,5.5703,5.5703,5.5703,5.5703,5.5703,5.5703,5.5703,5.5703,5.5703,5.5703,5.5703,5.5703,5.5703,5.5703,5.5703,5.5703,5.5703,5.5703,5.5703,5.5703,5.5703,5.5703,5.5703,5.566,5.5237,5.5107,5.5053,5.464,5.4484,5.4522,5.4522,5.4187,5.3869,5.4312,5.4399,5.4583,5.539,5.6198,5.6638,5.5794,5.6198,5.6822,5.6822,5.7446,5.7997,5.7997,5.7997,5.7997,5.7997,5.7997,5.7997,5.7997,5.7997,5.7997,5.7997,5.7997,5.8327,5.9134,5.9208,5.9538,6.0346,6.0419,6.0418,6.0431,6.0394,6.0058,5.9143,5.8317,5.8254,5.8998,5.9708,6.0486,6.1298,6.1298,6.167,6.2381,6.2381,6.2381,6.2381,6.2381,6.2381,6.2381,6.2381,6.2381,6.2381,6.2381,6.2821,6.3599,6.4309,6.5053,6.5764,6.6542,6.6812,6.6812,4.8398,4.9219,4.9883,5.0156,5.0664,5.1133,5.1367,5.1406,5.1406,5.1406,5.1406,5.1581,5.2069,5.2223,5.2723,5.3818,5.428,5.4741,5.5318,5.5549,5.5703,5.5703,5.5703,5.5703,5.5703,5.5703,5.5703,5.5703,5.5703,5.5703,5.5703,5.5703,5.5703,5.5703,5.5703,5.5703,5.5703,5.5703,5.5703,5.5703,5.5703,5.5703,5.5703,5.5703,5.5703,5.5703,5.5577,5.5531,5.5446,5.508,5.4905,5.5019,5.5655,5.5319,5.4839,5.5846,5.6091,5.6161,5.6381,5.7042,5.7446,5.6638,5.7042,5.7629,5.7629,5.7813,5.7997,5.7997,5.7997,5.7997,5.7997,5.7997,5.7997,5.7997,5.7997,5.7997,5.7997,5.851,5.8951,5.9171,5.9722,6.0382,6.1153,6.1227,6.1459,6.2026,6.1019,5.9777,5.8317,5.8502,5.8795,5.8998,6.0283,6.1061,6.1298,6.1806,6.2178,6.2381,6.2381,6.2381,6.2381,6.2381,6.2381,6.2381,6.2381,6.2381,6.2381,6.2381,6.2821,6.3599,6.4309,6.5053,6.5764,6.6542,6.6812,6.6812,4.9297,5.0078,5.0664,5.0664,5.1094,5.1406,5.1406,5.1406,5.1406,5.1406,5.1719,5.203,5.2392,5.2974,5.3682,5.4528,5.4857,5.5164,5.5665,5.5703,5.5703,5.5703,5.5703,5.5703,5.5703,5.5703,5.5703,5.5703,5.5703,5.5703,5.5703,5.5703,5.5703,5.5703,5.5703,5.5703,5.5703,5.5703,5.5703,5.5703,5.5703,5.5703,5.5703,5.5703,5.5703,5.5703,5.5703,5.5703,5.5643,5.5423,5.558,5.5976,5.6649,5.6343,5.5919,5.6851,5.6952,5.6859,5.7189,5.7629,5.7886,5.7409,5.7629,5.7997,5.7997,5.7997,5.7997,5.7997,5.7997,5.7997,5.7997,5.7997,5.7997,5.7997,5.7997,5.8107,5.8437,5.8914,5.9465,6.0089,6.0566,6.119,6.1998,6.2071,6.2155,6.2287,6.1113,5.9908,5.8903,5.8982,5.9302,5.9911,6.0825,6.1434,6.1738,6.2178,6.2381,6.2381,6.2381,6.2381,6.2381,6.2381,6.2381,6.2381,6.2381,6.2381,6.2381,6.2381,6.299,6.4005,6.4444,6.5222,6.6203,6.6643,6.6812,6.6812,5.0273,5.0898,5.1406,5.1406,5.1406,5.1406,5.1406,5.1406,5.1445,5.1523,5.2226,5.2671,5.2534,5.3967,5.4797,5.4626,5.528,5.5703,5.5703,5.5703,5.5703,5.5703,5.5703,5.5703,5.5703,5.5703,5.5703,5.5703,5.5703,5.5703,5.5703,5.5703,5.5703,5.5703,5.5703,5.5703,5.5703,5.5703,5.5703,5.5703,5.5703,5.5703,5.5703,5.5703,5.5703,5.5703,5.5703,5.5703,5.5703,5.578,5.6395,5.7197,5.7634,5.746,5.7167,5.7566,5.7344,5.7087,5.7776,5.7997,5.7997,5.7997,5.7997,5.7997,5.7997,5.7997,5.7997,5.7997,5.7997,5.7997,5.7997,5.7997,5.8033,5.8107,5.8107,5.84,5.9208,5.9391,5.9979,6.141,6.1667,6.1998,6.2732,6.2805,6.2464,6.1659,6.101,6.0509,6.0323,5.9652,5.9919,6.1264,6.1366,6.1704,6.2381,6.2381,6.2381,6.2381,6.2381,6.2381,6.2381,6.2381,6.2381,6.2381,6.2381,6.2381,6.2381,6.2448,6.3328,6.4613,6.4681,6.5561,6.6812,6.6812,6.6812,6.6812,5.1016,5.1289,5.1406,5.1406,5.1406,5.1406,5.1406,5.1406,5.1641,5.2344,5.2567,5.3126,5.4235,5.468,5.5028,5.5395,5.5588,5.5703,5.5703,5.5703,5.5703,5.5703,5.5703,5.5703,5.5703,5.5703,5.5703,5.5703,5.5703,5.5703,5.5703,5.5703,5.5703,5.5703,5.5703,5.5703,5.5703,5.5703,5.5703,5.5703,5.5703,5.5703,5.5703,5.5703,5.5703,5.5703,5.5703,5.5703,5.578,5.6472,5.728,5.8143,5.8865,5.8743,5.8486,5.8899,5.8651,5.8238,5.806,5.7997,5.7997,5.7997,5.7997,5.7997,5.7997,5.7997,5.7997,5.7997,5.7997,5.7997,5.7997,5.7997,5.8217,5.8841,5.8951,5.9245,6.0052,6.0676,6.119,6.1557,6.2144,6.2622,6.2805,6.2805,6.2464,6.1659,6.2011,6.1697,6.0357,6.1292,6.165,6.1298,6.1873,6.2245,6.2381,6.2381,6.2381,6.2381,6.2381,6.2381,6.2381,6.2381,6.2381,6.2381,6.2381,6.2381,6.2415,6.3024,6.3802,6.4647,6.5222,6.6,6.6812,6.6812,6.6812,6.6812,5.1328,5.1406,5.1406,5.1406,5.1406,5.1523,5.1953,5.2031,5.2344,5.3203,5.3689,5.4203,5.4924,5.5364,5.5665,5.578,5.5742,5.5703,5.5703,5.5703,5.5703,5.5703,5.5703,5.5703,5.5703,5.5703,5.5703,5.5703,5.5703,5.5703,5.5703,5.5703,5.5703,5.5703,5.5703,5.5703,5.5703,5.5703,5.5703,5.5703,5.5703,5.5703,5.5703,5.5703,5.5703,5.5703,5.5703,5.5972,5.6511,5.778,5.8511,5.9011,5.9858,5.9792,5.9405,5.9412,5.9065,5.8591,5.8142,5.7997,5.7997,5.7997,5.7997,5.7997,5.7997,5.7997,5.7997,5.7997,5.7997,5.7997,5.7997,5.8327,5.8731,5.9134,5.9538,6.0052,6.086,6.1337,6.1741,6.2144,6.2548,6.2805,6.2805,6.2805,6.261,6.2201,6.2542,6.2378,6.1467,6.2125,6.235,6.1806,6.2178,6.2381,6.2381,6.2381,6.2381,6.2381,6.2381,6.2381,6.2381,6.2381,6.2381,6.2381,6.2381,6.2381,6.2448,6.3193,6.3937,6.4681,6.5392,6.6136,6.6812,6.6812,6.6812,6.6812,5.1406,5.1406,5.1406,5.1406,5.1523,5.1875,5.2578,5.2812,5.3242,5.4101,5.4844,5.5313,5.531,5.5943,5.6251,5.5917,5.578,5.5703,5.5703,5.5703,5.5703,5.5703,5.5703,5.5703,5.5703,5.5703,5.5703,5.5703,5.5703,5.5703,5.5703,5.5703,5.5703,5.5703,5.5703,5.5703,5.5703,5.5703,5.5703,5.5703,5.5703,5.5703,5.5703,5.5703,5.578,5.5934,5.5934,5.6549,5.7627,5.9011,5.9588,5.9858,6.055,6.0533,6.0103,5.9559,5.9102,5.8713,5.8142,5.7997,5.7997,5.7997,5.7997,5.7997,5.7997,5.7997,5.7997,5.7997,5.7997,5.8033,5.818,5.8767,5.9318,5.9575,6.0162,6.0896,6.1704,6.1814,6.2034,6.2732,6.2805,6.2805,6.2805,6.2952,6.2991,6.3019,6.3309,6.3263,6.2823,6.2962,6.2772,6.2425,6.2381,6.2381,6.2381,6.2381,6.2381,6.2381,6.2381,6.2381,6.2381,6.2381,6.2381,6.2381,6.2381,6.2448,6.2651,6.3396,6.414,6.485,6.5595,6.6271,6.6812,6.6812,6.6812,6.6846,5.1406,5.1406,5.1406,5.1406,5.2031,5.2578,5.2695,5.3359,5.4141,5.5,5.5234,5.5546,5.6158,5.6238,5.6117,5.5899,5.5857,5.5818,5.5703,5.5703,5.5703,5.5703,5.5703,5.5703,5.5703,5.5703,5.5703,5.5703,5.5703,5.5703,5.5703,5.5703,5.5703,5.5703,5.5703,5.5703,5.5703,5.5703,5.5703,5.5703,5.5703,5.5703,5.5703,5.5703,5.6165,5.6819,5.6819,5.7819,5.9204,5.9435,6.0012,6.0627,6.0742,6.0757,6.0533,5.9663,5.9354,5.9102,5.8238,5.7997,5.7997,5.7997,5.7997,5.7997,5.7997,5.7997,5.7997,5.7997,5.7997,5.8217,5.8914,5.9134,5.9685,6.1043,6.1374,6.1704,6.2548,6.2658,6.2695,6.2805,6.2805,6.2805,6.2805,6.3466,6.3892,6.3951,6.5181,6.5286,6.37,6.4305,6.3973,6.2459,6.2381,6.2381,6.2381,6.2381,6.2381,6.2381,6.2381,6.2381,6.2381,6.2381,6.2381,6.2381,6.2381,6.2753,6.3429,6.414,6.4884,6.5595,6.6373,6.6711,6.6812,6.6812,6.6812,6.6914,5.1406,5.1406,5.1406,5.1406,5.2109,5.2851,5.3359,5.418,5.5039,5.5898,5.6015,5.6133,5.6484,5.639,5.6262,5.6078,5.5962,5.5857,5.5818,5.5742,5.5742,5.5818,5.5742,5.5703,5.5703,5.5703,5.5703,5.5703,5.5703,5.5703,5.5703,5.5703,5.5703,5.5703,5.5703,5.5703,5.5703,5.5703,5.5703,5.5703,5.5703,5.5703,5.5742,5.6242,5.6665,5.7126,5.805,5.8858,5.9588,6.005,6.0473,6.0781,6.0781,6.0781,6.0622,5.9696,5.9389,5.9176,5.8238,5.7997,5.7997,5.7997,5.7997,5.7997,5.7997,5.8364,5.8547,5.8107,5.8364,5.8804,5.9134,5.9942,6.0786,6.1484,6.1998,6.2401,6.2768,6.2805,6.2805,6.2805,6.2805,6.2989,6.3466,6.387,6.4457,6.5375,6.6109,6.6097,6.5305,6.56,6.5166,6.39,6.3388,6.3124,6.3124,6.2659,6.2381,6.2381,6.2381,6.2381,6.2381,6.2381,6.2381,6.2381,6.2381,6.2821,6.3565,6.4309,6.5019,6.5764,6.6508,6.6812,6.6812,6.6812,6.6812,6.6914]},{"header":{"parameterUnit":"m.s-1","parameterCategory":1,"la1":30.6,"la2":28.766,"lo1":-90.7593,"lo2":-88.6598,"dx":0.0162,"dy":0.0183,"nx":116,"ny":114,"refTime":"2023-01-04T18:00:00:Z","depth":0,"parameterNumber":3,"parameterNumberName":"V-component_of_WINDS"},"data":[0.0,0.0,0.0,0.0,0.0,0.0,0.0,0.0,0.0,0.0,0.0,0.0,0.0,0.0,0.0,0.0,0.0,0.0,0.0,0.0,0.0,0.0,0.0,0.0,0.0,0.0,0.0,0.0,0.0,0.0,0.0,0.0,0.0,0.0,0.0,0.0,0.0,0.0,0.0,0.0,0.0,0.0,0.0,0.0,0.0,0.0,0.0,0.0,0.0,0.0,0.0,0.0,0.0,0.0,0.0,0.0,0.0,0.0,0.0,0.0,0.0,0.0,0.0,0.0,0.0,0.0,0.0,0.0,0.0,0.0,0.0,0.0,0.0,0.0,0.0,0.0,0.0,0.0,0.0,0.0,0.0,0.0,0.0,0.0,0.0,0.0,0.0,0.0,0.0,0.0,0.0,0.0,0.0,0.0,0.0,0.0,0.0,0.0,0.0,0.0,0.0,0.0,0.0,0.0,0.0,0.0,0.0,0.0,0.0,0.0,0.0,0.0,0.0,0.0,0.0,0.0,0.0,0.0,0.0,0.0,0.0,0.0,0.0,0.0,0.0,0.0,0.0,0.0,0.0,0.0,0.0,0.0,0.0,0.0,0.0,0.0,0.0,0.0,0.0,0.0,0.0,0.0,0.0,0.0,0.0,0.0,0.0,0.0,0.0,0.0,0.0,0.0,0.0,0.0,0.0,0.0,0.0,0.0,0.0,0.0,0.0,0.0,0.0,0.0,0.0,0.0,0.0,0.0,0.0,0.0,0.0,0.0,0.0,0.0,0.0,0.0,0.0,0.0,0.0,0.0,0.0,0.0,0.0,0.0,0.0,0.0,0.0,0.0,0.0,0.0,0.0,0.0,0.0,0.0,0.0,0.0,0.0,0.0,0.0,0.0,0.0,0.0,0.0,0.0,0.0,0.0,0.0,0.0,0.0,0.0,0.0,0.0,0.0,0.0,0.0,0.0,0.0,0.0,0.0,0.0,0.0,0.0,0.0,0.0,0.0,0.0,0.0,0.0,0.0,0.0,0.0,0.0,0.0,0.0,0.0,0.0,0.0,0.0,0.0,0.0,0.0,0.0,0.0,0.0,0.0,0.0,0.0,0.0,0.0,0.0,0.0,0.0,0.0,0.0,0.0,0.0,0.0,0.0,0.0,0.0,0.0,0.0,0.0,0.0,0.0,0.0,0.0,0.0,0.0,0.0,0.0,0.0,0.0,0.0,0.0,0.0,0.0,0.0,0.0,0.0,0.0,0.0,0.0,0.0,0.0,0.0,0.0,0.0,0.0,0.0,0.0,0.0,0.0,0.0,0.0,0.0,0.0,0.0,0.0,0.0,0.0,0.0,0.0,0.0,0.0,0.0,0.0,0.0,0.0,0.0,0.0,0.0,0.0,0.0,0.0,0.0,0.0,0.0,0.0,0.0,0.0,0.0,0.0,0.0,0.0,0.0,0.0,0.0,0.0,0.0,0.0,0.0,0.0,0.0,0.0,0.0,0.0,0.0,0.0,0.0,0.0,0.0,0.0,0.0,0.0,0.0,0.0,0.0,0.0,0.0,0.0,0.0,0.0,0.0,0.0,0.0,0.0,0.0,0.0,0.0,0.0,0.0,0.0,0.0,0.0,0.0,0.0,0.0,0.0,0.0,0.0,0.0,0.0,0.0,0.0,0.0,0.0,0.0,0.0,0.0,0.0,0.0,0.0,0.0,0.0,0.0,0.0,0.0,0.0,0.0,0.0,0.0,0.0,0.0,0.0,0.0,0.0,0.0,0.0,0.0,0.0,0.0,0.0,0.0,0.0,0.0,0.0,0.0,0.0,0.0,0.0,0.0,0.0,0.0,0.0,0.0,0.0,0.0,0.0,0.0,0.0,0.0,0.0,0.0,0.0,0.0,0.0,0.0,0.0,0.0,0.0,0.0,0.0,0.0,0.0,0.0,0.0,0.0,0.0,0.0,0.0,0.0,0.0,0.0,0.0,0.0,0.0,0.0,0.0,0.0,0.0,0.0,0.0,0.0,0.0,0.0,0.0,0.0,0.0,0.0,0.0,0.0,0.0,0.0,0.0,0.0,0.0,0.0,0.0,0.0,0.0,0.0,0.0,0.0,0.0,0.0,0.0,0.0,0.0,0.0,0.0,0.0,0.0,0.0,0.0,0.0,0.0,0.0,0.0,0.0,0.0,0.0,0.0,0.0,0.0,0.0,0.0,0.0,0.0,0.0,0.0,0.0,0.0,0.0,0.0,0.0,0.0,0.0,0.0,0.0,0.0,0.0,0.0,0.0,0.0,0.0,0.0,0.0,0.0,0.0,0.0,0.0,0.0,0.0,0.0,0.0,0.0,0.0,0.0,0.0,0.0,0.0,0.0,0.0,0.0,0.0,0.0,0.0,0.0,0.0,0.0,0.0,0.0,0.0,0.0,0.0,0.0,0.0,0.0,0.0,0.0,0.0,0.0,0.0,0.0,0.0,0.0,0.0,0.0,0.0,0.0,0.0,0.0,0.0,0.0,0.0,0.0,0.0,0.0,0.0,0.0,0.0,0.0,0.0,0.0,0.0,0.0,0.0,0.0,0.0,0.0,0.0,0.0,0.0,0.0,0.0,0.0,0.0,0.0,0.0,0.0,0.0,0.0,0.0,0.0,0.0,0.0,0.0,0.0,0.0,0.0,0.0,0.0,0.0,0.0,0.0,0.0,0.0,0.0,0.0,0.0,0.0,0.0,0.0,0.0,0.0,0.0,0.0,0.0,0.0,0.0,0.0,0.0,0.0,0.0,0.0,0.0,0.0,0.0,0.0,0.0,0.0,0.0,0.0,0.0,0.0,0.0,0.0,0.0,0.0,0.0,0.0,0.0,0.0,0.0,0.0,0.0,0.0,0.0,0.0,0.0,0.0,0.0,0.0,0.0,0.0,0.0,0.0,0.0,0.0,0.0,0.0,0.0,0.0,0.0,0.0,0.0,0.0,0.0,0.0,0.0,0.0,0.0,0.0,0.0,0.0,0.0,0.0,0.0,0.0,0.0,0.0,0.0,0.0,0.0,0.0,0.0,0.0,0.0,0.0,0.0,0.0,0.0,0.0,0.0,0.0,0.0,0.0,0.0,0.0,0.0,0.0,0.0,0.0,0.0,0.0,0.0,0.0,0.0,0.0,0.0,0.0,0.0,0.0,0.0,0.0,0.0,0.0,0.0,0.0,0.0,0.0,0.0,0.0,0.0,0.0,0.0,0.0,0.0,0.0,0.0,0.0,0.0,0.0,0.0,0.0,0.0,0.0,0.0,0.0,0.0,0.0,0.0,0.0,0.0,0.0,0.0,0.0,0.0,0.0,0.0,0.0,0.0,0.0,0.0,0.0,0.0,0.0,0.0,0.0,0.0,0.0,0.0,0.0,0.0,0.0,0.0,0.0,0.0,0.0,0.0,0.0,0.0,0.0,0.0,0.0,0.0,0.0,0.0,0.0,0.0,0.0,0.0,0.0,0.0,0.0,0.0,0.0,0.0,0.0,0.0,0.0,0.0,0.0,0.0,0.0,0.0,0.0,0.0,0.0,0.0,0.0,0.0,0.0,0.0,0.0,0.0,0.0,0.0,0.0,0.0,0.0,0.0,0.0,0.0,0.0,0.0,0.0,0.0,0.0,0.0,0.0,0.0,0.0,0.0,0.0,0.0,0.0,0.0,0.0,0.0,0.0,0.0,0.0,0.0,0.0,0.0,0.0,0.0,0.0,0.0,0.0,0.0,0.0,0.0,0.0,0.0,0.0,0.0,0.0,0.0,0.0,0.0,0.0,0.0,0.0,0.0,0.0,0.0,0.0,0.0,0.0,0.0,0.0,0.0,0.0,0.0,0.0,0.0,0.0,0.0,0.0,0.0,0.0,0.0,0.0,0.0,0.0,0.0,0.0,0.0,0.0,0.0,0.0,0.0,0.0,0.0,0.0,0.0,0.0,0.0,0.0,0.0,0.0,0.0,0.0,0.0,0.0,0.0,0.0,0.0,0.0,0.0,0.0,0.0,0.0,0.0,0.0,0.0,0.0,0.0,0.0,0.0,0.0,0.0,0.0,0.0,0.0,0.0,0.0,0.0,0.0,0.0,0.0,0.0,0.0,0.0,0.0,0.0,0.0,0.0,0.0,0.0,0.0,0.0,0.0,0.0,0.0,0.0,0.0,0.0,0.0,0.0,0.0,0.0,0.0,0.0,0.0,0.0,0.0,0.0,0.0,0.0,0.0,0.0,0.0,0.0,0.0,0.0,0.0,0.0,0.0,0.0,0.0,0.0,0.0,0.0,0.0,0.0,0.0,0.0,0.0,0.0,0.0,0.0,0.0,0.0,0.0,0.0,0.0,0.0,0.0,0.0,0.0,0.0,0.0,0.0,0.0,0.0,0.0,0.0,0.0,0.0,0.0,0.0,0.0,0.0,0.0,0.0,0.0,0.0,0.0,0.0,0.0,0.0,0.0,0.0,0.0,0.0,0.0,0.0,0.0,0.0,0.0,0.0,0.0,0.0,0.0,0.0,0.0,0.0,0.0,0.0,0.0,0.0,0.0,0.0,0.0,0.0,0.0,0.0,0.0,0.0,0.0,0.0,0.0,0.0,0.0,0.0,0.0,0.0,0.0,0.0,0.0,0.0,0.0,0.0,0.0,0.0,0.0,0.0,0.0,0.0,0.0,0.0,0.0,0.0,0.0,0.0,0.0,0.0,0.0,0.0,0.0,0.0,0.0,0.0,0.0,0.0,0.0,0.0,0.0,0.0,0.0,0.0,0.0,0.0,0.0,0.0,0.0,0.0,0.0,0.0,0.0,0.0,0.0,0.0,0.0,0.0,0.0,0.0,0.0,0.0,0.0,0.0,0.0,0.0,0.0,0.0,0.0,0.0,0.0,0.0,0.0,0.0,0.0,0.0,0.0,0.0,0.0,0.0,0.0,0.0,0.0,0.0,0.0,0.0,0.0,0.0,0.0,0.0,0.0,0.0,0.0,0.0,0.0,0.0,0.0,0.0,0.0,0.0,0.0,0.0,0.0,0.0,0.0,0.0,0.0,0.0,0.0,0.0,0.0,0.0,0.0,0.0,0.0,0.0,0.0,0.0,0.0,0.0,0.0,0.0,0.0,0.0,0.0,0.0,0.0,0.0,0.0,0.0,0.0,0.0,0.0,0.0,0.0,0.0,0.0,0.0,0.0,0.0,0.0,0.0,0.0,0.0,0.0,0.0,0.0,0.0,0.0,0.0,0.0,0.0,0.0,0.0,0.0,0.0,0.0,0.0,0.0,0.0,0.0,0.0,0.0,0.0,0.0,0.0,0.0,0.0,0.0,0.0,0.0,0.0,0.0,0.0,0.0,0.0,0.0,0.0,0.0,0.0,0.0,0.0,0.0,0.0,0.0,0.0,0.0,0.0,0.0,0.0,0.0,0.0,0.0,0.0,0.0,0.0,0.0,0.0,0.0,0.0,0.0,0.0,0.0,0.0,0.0,0.0,0.0,0.0,0.0,0.0,0.0,0.0,0.0,0.0,0.0,0.0,0.0,0.0,0.0,0.0,0.0,0.0,0.0,0.0,0.0,0.0,0.0,0.0,0.0,0.0,0.0,0.0,0.0,0.0,0.0,0.0,0.0,0.0,0.0,0.0,0.0,0.0,0.0,0.0,0.0,0.0,0.0,0.0,0.0,0.0,0.0,0.0,0.0,0.0,0.0,0.0,0.0,0.0,0.0,0.0,0.0,0.0,0.0,0.0,0.0,0.0,0.0,0.0,0.0,0.0,0.0,0.0,0.0,0.0,0.0,0.0,0.0,0.0,0.0,0.0,0.0,0.0,0.0,0.0,0.0,0.0,0.0,0.0,0.0,0.0,0.0,0.0,0.0,0.0,0.0,0.0,0.0,0.0,0.0,0.0,0.0,0.0,0.0,0.0,0.0,0.0,0.0,0.0,0.0,0.0,0.0,0.0,0.0,0.0,0.0,0.0,0.0,0.0,0.0,0.0,0.0,0.0,0.0,0.0,0.0,0.0,0.0,0.0,0.0,0.0,0.0,0.0,0.0,0.0,0.0,0.0,0.0,0.0,0.0,0.0,0.0,0.0,0.0,0.0,0.0,0.0,0.0,0.0,0.0,-1.8719,0.0,0.0,0.0,0.0,0.0,0.0,0.0,0.0,0.0,0.0,0.0,0.0,0.0,0.0,0.0,0.0,0.0,0.0,0.0,0.0,0.0,0.0,0.0,0.0,-0.6969,-0.7013,-0.7125,-0.7044,0.0,0.0,0.0,0.0,0.0,0.0,0.0,0.0,0.0,-0.7263,-0.7809,-0.8466,-0.9417,-1.0614,-0.9616,-0.8678,-0.7832,0.0,0.0,0.0,0.0,0.0,0.0,0.0,0.0,0.0,0.0,0.0,0.0,0.0,0.0,0.0,0.0,0.0,0.0,0.0,0.0,0.0,0.0,0.0,0.0,0.0,0.0,0.0,0.0,0.0,0.0,0.0,0.0,0.0,0.0,0.0,0.0,0.0,0.0,0.0,0.0,0.0,0.0,0.0,0.0,0.0,0.0,0.0,0.0,0.0,0.0,0.0,0.0,0.0,0.0,0.0,0.0,0.0,0.0,0.0,0.0,0.0,0.0,0.0,0.0,0.0,0.0,0.0,0.0,0.0,0.0,0.0,-1.9409,0.0,0.0,0.0,0.0,0.0,0.0,0.0,0.0,0.0,0.0,0.0,0.0,0.0,0.0,0.0,0.0,0.0,0.0,0.0,0.0,0.0,-0.6837,-0.7468,-0.7484,-0.7566,-0.7922,-0.765,-0.7338,-0.7017,-0.6777,0.0,0.0,0.0,0.0,-0.6737,-0.7269,-0.8125,-0.9292,-1.0528,-1.1662,-1.264,-1.2756,-1.2045,-1.0619,-0.885,0.0,0.0,0.0,0.0,0.0,0.0,0.0,0.0,0.0,0.0,0.0,0.0,0.0,0.0,0.0,0.0,0.0,0.0,0.0,0.0,0.0,0.0,0.0,0.0,0.0,0.0,0.0,0.0,0.0,0.0,0.0,0.0,0.0,0.0,0.0,0.0,0.0,0.0,0.0,0.0,0.0,0.0,0.0,0.0,0.0,0.0,0.0,0.0,0.0,0.0,0.0,0.0,0.0,0.0,0.0,0.0,0.0,0.0,0.0,0.0,0.0,0.0,0.0,-2.3286,-2.3304,-2.328,-2.3723,-2.4026,-2.4026,-2.3113,-2.2449,-2.1894,0.0,0.0,0.0,0.0,0.0,0.0,0.0,0.0,0.0,0.0,0.0,0.0,0.0,0.0,0.0,0.0,0.0,0.0,0.0,0.0,-0.7012,-0.8085,-0.7772,-0.79,-0.8905,-0.8232,-0.7637,-0.744,-0.7064,0.0,0.0,0.0,0.0,-0.7294,-0.7864,-0.8802,-1.0117,-1.3111,-1.4854,-1.5442,-1.5107,-1.4897,-1.4562,-1.2535,-1.1627,-1.1478,0.0,0.0,0.0,0.0,0.0,0.0,0.0,0.0,0.0,0.0,0.0,0.0,0.0,0.0,0.0,0.0,0.0,0.0,0.0,0.0,0.0,0.0,0.0,0.0,0.0,0.0,0.0,0.0,0.0,0.0,0.0,0.0,0.0,0.0,0.0,0.0,0.0,0.0,0.0,0.0,0.0,-2.061,-1.9715,0.0,0.0,0.0,0.0,0.0,0.0,0.0,0.0,0.0,0.0,0.0,0.0,0.0,0.0,-2.5034,-2.6038,-2.6595,-2.6673,-2.713,-2.7358,-2.732,-2.742,-2.7444,-2.7468,-2.7758,0.0,-2.3864,-2.3604,0.0,0.0,0.0,0.0,0.0,0.0,0.0,0.0,0.0,0.0,0.0,0.0,0.0,0.0,0.0,0.0,0.0,0.0,0.0,0.0,0.0,-0.921,-0.9677,-1.0744,-1.0801,-1.0169,-0.8688,-0.8452,0.0,0.0,0.0,-0.7338,-0.7889,-0.9667,-1.1804,-1.4226,-1.5813,-1.6739,-1.711,-1.6939,-1.6875,-1.6816,-1.592,-1.4365,-1.2412,-1.149,0.0,0.0,0.0,0.0,0.0,0.0,0.0,0.0,0.0,0.0,0.0,0.0,0.0,0.0,0.0,0.0,0.0,0.0,0.0,0.0,0.0,0.0,0.0,0.0,0.0,0.0,0.0,0.0,0.0,0.0,0.0,0.0,0.0,0.0,0.0,0.0,0.0,0.0,0.0,-1.9251,-2.0145,-1.9027,-1.9402,-1.9113,0.0,0.0,0.0,0.0,0.0,0.0,0.0,0.0,0.0,-2.4004,-2.4607,-2.5577,-2.7,-2.7531,-2.7895,-2.8231,-2.8472,-2.8715,-2.9118,-2.9397,-2.9524,-2.9524,-3.006,-2.9524,-2.8057,-2.6253,-2.4536,-2.2972,0.0,0.0,0.0,0.0,-2.1173,-2.1902,0.0,0.0,0.0,0.0,0.0,0.0,0.0,0.0,0.0,0.0,0.0,0.0,-1.0355,-1.0995,-1.1652,-1.2744,-1.3032,-1.2292,-1.0169,-0.9796,-0.8828,-0.7012,-0.7279,-0.788,-0.8688,-1.1543,-1.4373,-1.714,-1.7512,-1.7861,-1.8164,-1.8164,-1.8223,-1.834,-1.834,-1.6727,-1.3961,-1.3401,-1.2199,-1.0589,0.0,0.0,0.0,0.0,0.0,0.0,0.0,0.0,0.0,0.0,0.0,0.0,0.0,0.0,0.0,0.0,0.0,0.0,0.0,0.0,0.0,0.0,0.0,0.0,0.0,0.0,0.0,0.0,0.0,0.0,0.0,0.0,0.0,0.0,0.0,0.0,0.0,-1.9485,-2.0077,-1.9175,-2.0016,-1.9936,0.0,0.0,0.0,0.0,0.0,0.0,-2.2723,-2.3,-2.3904,-2.5577,-2.6181,-2.7031,-2.8282,-2.8464,-2.8743,-2.9147,-2.9295,-2.9563,-3.0035,-3.0573,-3.0775,-3.0788,-3.1204,-3.1439,-3.1233,-2.8729,-2.7127,-2.6141,-2.4877,-2.4048,-2.354,-2.3647,-2.4305,-2.5164,0.0,0.0,0.0,0.0,0.0,0.0,0.0,0.0,0.0,0.0,0.0,-1.0787,-1.2467,-1.2913,-1.3516,-1.4656,-1.3961,-1.3017,-1.185,-1.0619,-0.9645,-0.8896,-0.811,-0.8344,-0.9792,-1.2995,-1.5372,-1.6835,-1.7631,-1.8164,-1.8594,-1.8594,-1.8828,-1.9219,-1.9219,-1.8672,-1.7578,-1.5527,-1.4755,-1.4626,-1.1287,0.0,0.0,0.0,0.0,0.0,0.0,0.0,0.0,0.0,0.0,0.0,0.0,0.0,0.0,0.0,0.0,0.0,0.0,0.0,0.0,0.0,0.0,0.0,0.0,0.0,0.0,0.0,0.0,0.0,0.0,0.0,0.0,0.0,0.0,0.0,0.0,0.0,0.0,-2.1416,-2.2293,0.0,0.0,0.0,0.0,-2.279,-2.2523,-2.3427,-2.6131,-2.5711,-2.6156,-2.7855,-2.8492,-2.8771,-2.8839,-2.9404,-2.9704,-2.9729,-3.0292,-3.0496,-3.0573,-3.1139,-3.1352,-3.1333,-3.1357,-3.1443,-3.143,-3.1204,-2.9907,-2.7956,-2.7895,-2.6534,-2.499,-2.7004,-2.7867,-2.8071,0.0,0.0,0.0,-0.6517,-0.6611,-0.6611,-0.6611,-0.7044,-0.7618,-0.8236,-0.9569,-1.1053,-1.2575,-1.3846,-1.5012,-1.596,-1.6294,-1.5684,-1.3854,-1.2629,-1.1598,-1.071,-1.0006,-1.1107,-1.4315,-1.5517,-1.6971,-1.8799,-1.8506,-1.8633,-1.9062,-1.9062,-1.9141,-1.9297,-1.9297,-1.9121,-1.8769,-1.7715,-1.6527,-1.5229,-1.3861,-1.2022,0.0,0.0,0.0,0.0,0.0,0.0,0.0,0.0,0.0,0.0,0.0,0.0,0.0,0.0,0.0,0.0,0.0,0.0,0.0,0.0,0.0,0.0,0.0,0.0,0.0,0.0,0.0,0.0,0.0,0.0,0.0,0.0,0.0,0.0,0.0,0.0,0.0,-2.1534,-2.2764,0.0,-2.2405,-2.3401,-2.4305,-2.4682,-2.5536,-2.6465,-2.7469,-2.7666,-2.8015,-2.8619,-2.9152,-2.9606,-2.9986,-3.0241,-3.047,-3.0855,-3.101,-3.1077,-3.1174,-3.1647,-3.1913,-3.1908,-3.2339,-3.2475,-3.245,-3.2508,-3.1597,-3.0226,-3.0226,-2.9725,-2.9154,-2.9963,-3.0489,-3.0768,0.0,0.0,0.0,-0.6535,-0.6611,-0.6611,-0.6611,-0.7238,-0.8189,-0.9516,-1.0888,-1.2442,-1.4323,-1.5543,-1.6523,-1.7109,-1.7676,-1.7148,-1.5137,-1.4246,-1.319,-1.185,-1.1709,-1.322,-1.6528,-1.6869,-1.784,-1.943,-1.9052,-1.9082,-1.9492,-1.9492,-1.957,-1.9727,-1.9727,-1.9727,-1.9687,-1.9258,-1.8164,-1.6641,-1.598,-1.43,-1.2141,0.0,0.0,0.0,0.0,0.0,0.0,0.0,0.0,0.0,0.0,0.0,0.0,0.0,0.0,0.0,0.0,0.0,0.0,0.0,0.0,0.0,0.0,0.0,0.0,0.0,0.0,0.0,0.0,0.0,0.0,0.0,0.0,0.0,0.0,0.0,-2.2726,-2.2353,-2.3959,-2.4861,-2.409,-2.5476,-2.644,-2.644,-2.7616,-2.8369,-2.8369,-2.9074,-2.9454,-2.9454,-3.0062,-3.047,-3.0855,-3.0896,-3.104,-3.1432,-3.1589,-3.1662,-3.1638,-3.2204,-3.25,-3.25,-3.3093,-3.3366,-3.3366,-3.3528,-3.3205,-3.2475,-3.2068,-3.2068,-3.2204,-3.2044,-3.2204,-3.2475,0.0,0.0,-0.6586,-0.6611,-0.6611,-0.6611,-0.6611,-0.7583,-0.929,-1.2027,-1.3338,-1.5049,-1.7798,-1.8025,-1.8008,-1.8008,-1.8008,-1.7285,-1.5566,-1.5212,-1.4243,-1.2338,-1.3207,-1.4466,-1.6026,-1.7022,-1.7906,-1.8601,-1.9102,-1.9531,-1.9941,-1.9941,-2.0156,-2.0566,-2.0566,-2.0566,-2.0527,-2.0117,-1.9707,-1.918,-1.75,-1.671,-1.6335,0.0,0.0,0.0,0.0,0.0,0.0,0.0,0.0,0.0,0.0,0.0,0.0,0.0,0.0,0.0,0.0,0.0,0.0,0.0,0.0,0.0,0.0,0.0,0.0,0.0,0.0,0.0,0.0,0.0,0.0,0.0,0.0,0.0,-2.1666,-2.3006,-2.4068,-2.4068,-2.6015,-2.7327,-2.7327,-2.786,-2.8147,-2.8147,-2.8667,-2.8941,-2.8941,-2.9986,-3.0598,-3.0598,-3.1087,-3.1397,-3.1397,-3.1431,-3.1455,-3.1479,-3.2019,-3.2204,-3.2204,-3.2882,-3.3093,-3.3179,-3.3665,-3.3964,-3.3929,-3.4504,-3.4693,-3.4641,-3.3579,-3.3442,-3.3827,-3.3341,-3.3179,-3.3068,-0.5874,-0.6123,-0.6371,-0.6552,-0.6611,-0.6611,-0.6611,-0.7583,-0.914,-1.15,-1.3071,-1.487,-1.728,-1.784,-1.8008,-1.8008,-1.8008,-1.7718,-1.7063,-1.5687,-1.454,-1.3811,-1.5509,-1.6838,-1.7636,-1.8101,-1.8714,-1.957,-1.9687,-1.9961,-2.0391,-2.0391,-2.0449,-2.0566,-2.0566,-2.0566,-2.0566,-2.043,-2.0312,-2.0117,-1.9023,-1.7841,-1.655,0.0,0.0,0.0,0.0,0.0,0.0,0.0,0.0,0.0,0.0,0.0,0.0,0.0,0.0,0.0,0.0,0.0,0.0,0.0,0.0,0.0,0.0,0.0,0.0,0.0,0.0,0.0,0.0,0.0,0.0,0.0,0.0,-2.3475,-2.332,-2.4743,-2.5965,-2.6321,-2.7627,-2.8503,-2.8503,-2.9024,-2.9327,-2.9327,-2.9834,-3.0114,-3.0114,-3.0804,-3.1164,-3.1164,-3.1336,-3.1605,-3.2006,-3.2017,-3.2204,-3.2635,-3.2771,-3.2882,-3.2907,-3.3477,-3.3665,-3.3665,-3.4238,-3.4439,-3.4502,-3.4644,-3.4952,-3.5261,-3.4502,-3.4335,-3.4427,-3.4264,-3.4264,-3.4193,-0.5874,-0.607,-0.6301,-0.6552,-0.6611,-0.6611,-0.6611,-0.7583,-0.9293,-1.2067,-1.3334,-1.5078,-1.7814,-1.8035,-1.8008,-1.8008,-1.7676,-1.7268,-1.6773,-1.5394,-1.4931,-1.5712,-1.6896,-1.7818,-1.8388,-1.8872,-1.9414,-1.9922,-2.0098,-2.0312,-2.0566,-2.0566,-2.0566,-2.0566,-2.0566,-2.0566,-2.0566,-2.0566,-2.0566,-2.0527,-2.0019,-1.9121,-1.7969,-1.7187,-1.6434,-1.5598,-1.46,-1.4376,-1.4512,-1.3861,0.0,0.0,0.0,0.0,0.0,0.0,0.0,0.0,0.0,0.0,0.0,0.0,0.0,0.0,0.0,0.0,0.0,0.0,0.0,0.0,0.0,0.0,0.0,0.0,-2.3974,-2.5115,-2.5364,-2.6202,-2.7094,-2.7915,-2.8537,-2.9027,-2.925,-2.9808,-3.0163,-3.0163,-3.0598,-3.0981,-3.0954,-3.1448,-3.1711,-3.1711,-3.1963,-3.2228,-3.261,-3.261,-3.2771,-3.3068,-3.3341,-3.3477,-3.3477,-3.3964,-3.4285,0.0,-3.4754,-3.5011,-3.5055,-3.5342,-3.5561,0.0,0.0,0.0,0.0,0.0,-3.4869,-3.5072,-0.5911,-0.6088,-0.6318,-0.6517,-0.6569,-0.6611,-0.6611,-0.7583,-0.9609,-1.3252,-1.3917,-1.5403,-1.9019,-1.8596,-1.8008,-1.8144,-1.7396,-1.6536,-1.5739,-1.5142,-1.5635,-1.7492,-1.7636,-1.7941,-1.875,-1.9531,-1.9941,-1.998,-2.0371,-2.0566,-2.0566,-2.0566,-2.0566,-2.0566,-2.0566,-2.0566,-2.0566,-2.0566,-2.0566,-2.0566,-2.0566,-2.0312,-1.9785,-1.8652,-1.8203,-1.7949,-1.6406,-1.5859,-1.5723,-1.4908,0.0,0.0,0.0,0.0,0.0,0.0,0.0,0.0,0.0,0.0,0.0,0.0,0.0,0.0,0.0,0.0,0.0,0.0,0.0,0.0,0.0,0.0,0.0,0.0,-2.5517,-2.6797,-2.7396,-2.749,-2.7875,-2.8805,-2.8976,-2.9243,-2.9858,-3.0287,-3.0671,-3.0696,-3.1214,-3.1534,-3.1516,0.0,0.0,0.0,0.0,-3.3068,-3.3068,-3.3179,-3.3205,-3.3205,-3.3776,-3.3954,-3.402,-3.451,-3.4805,-3.4768,-3.5367,-3.5561,-3.568,-3.6188,-3.6358,-3.6307,-3.5248,-3.5199,-3.5536,-3.5055,-3.5199,-3.5561,-0.5911,-0.6236,-0.6483,-0.6318,-0.6465,-0.6611,-0.6611,-0.7583,-0.9841,-1.41,-1.4268,-1.5609,-1.9913,-1.8911,-1.8259,-1.8977,-1.8482,-1.7821,-1.698,-1.7632,-1.7867,-1.7534,-1.8095,-1.8762,-1.9648,-1.9824,-2.0078,-2.043,-2.0527,-2.0566,-2.0566,-2.0566,-2.0566,-2.0566,-2.0566,-2.0566,-2.0566,-2.0566,-2.0566,-2.0566,-2.0566,-2.0312,-1.9883,-1.9629,-1.9336,-1.9004,-1.8652,-1.8535,-1.8437,-1.7899,-1.7017,-1.6136,-1.5821,-1.483,0.0,0.0,0.0,0.0,0.0,0.0,0.0,0.0,0.0,0.0,0.0,0.0,0.0,0.0,0.0,0.0,0.0,0.0,0.0,-2.4484,-2.6058,-2.749,-2.8481,-2.8602,-2.8681,-2.8917,-2.9314,-2.9834,-3.0393,-3.0548,-3.0761,-3.1185,-3.172,-3.2052,-3.2044,-3.261,0.0,-3.2932,-3.3043,-3.3068,-3.3068,-3.3503,-3.3776,-3.3776,0.0,0.0,-3.4582,-3.5084,-3.5307,-3.5367,-3.5993,-3.6188,-3.6188,-3.6332,-3.6358,-3.6358,-3.6163,-3.6163,-3.6188,-3.6138,-3.6163,-3.6188,-0.5726,-0.5893,-0.6093,-0.6171,-0.6318,-0.6448,-0.6569,-0.7583,-0.9441,-1.2578,-1.3483,-1.489,-1.7776,-1.7349,-1.6853,-1.7011,-1.7175,-1.7048,-1.6424,-1.7737,-1.8394,-1.8081,-1.8636,-1.9258,-1.9902,-2.0137,-2.0352,-2.0566,-2.0566,-2.0566,-2.0566,-2.0566,-2.0566,-2.0566,-2.0566,-2.0566,-2.0566,-2.0566,-2.0566,-2.0566,-2.0566,-2.043,-2.0234,-2.0234,-2.0117,-1.9902,-1.9668,-1.9609,-1.9531,-1.9102,-1.8535,-1.7969,-1.7754,-1.6797,-1.5723,0.0,0.0,0.0,0.0,0.0,0.0,0.0,0.0,0.0,0.0,0.0,0.0,0.0,0.0,-2.1773,-2.2628,0.0,-2.4452,-2.5795,-2.7005,-2.7965,-2.8786,-2.9158,-2.9361,-2.9361,-2.9824,-3.0269,-3.0528,-3.1107,-3.1504,-3.1773,-3.2339,-3.2635,-3.2635,-3.2932,-3.3068,-3.3068,-3.3366,-3.3503,-3.3503,-3.4075,-3.4336,-3.428,-3.4841,-3.5111,-3.508,-3.568,-3.5993,-3.5993,-3.6307,-3.6358,-3.6358,-3.6358,-3.6358,-3.6358,-3.6358,-3.6358,-3.6358,-3.6358,-3.6358,-3.6358,-0.5463,-0.5508,-0.5684,-0.6116,-0.6352,-0.6553,-0.6785,-0.7743,-0.9144,-1.1097,-1.2482,-1.386,-1.5367,-1.5387,-1.5185,-1.4893,-1.6074,-1.655,-1.5875,-1.7579,-1.8616,-1.8762,-1.9102,-1.9531,-2.0019,-2.0391,-2.0566,-2.0566,-2.0566,-2.0566,-2.0566,-2.0566,-2.0566,-2.0566,-2.0566,-2.0566,-2.0566,-2.0566,-2.0566,-2.0566,-2.0566,-2.0566,-2.0566,-2.0566,-2.0566,-2.0527,-2.0176,-2.019,-2.0206,-1.9723,-1.962,-1.9687,-1.9487,-1.8652,-1.7718,-1.7265,-1.678,0.0,0.0,0.0,0.0,0.0,0.0,0.0,0.0,-2.0676,-2.0807,-2.1771,-2.2332,-2.304,-2.4418,-2.4719,-2.5399,-2.7276,-2.7952,-2.8422,-2.8983,-2.9525,-2.9854,-2.9952,-3.0294,-3.0652,-3.0918,-3.1685,-3.2204,-3.2339,-3.2796,-3.3068,-3.3068,-3.3205,-3.323,-3.323,-3.3801,-3.403,-3.4022,-3.4601,-3.4881,-3.4887,-3.5392,-3.568,-3.568,-3.6188,-3.6358,-3.6358,-3.6358,-3.6358,-3.6358,-3.6358,-3.6358,-3.6358,-3.6358,-3.6358,-3.6358,-3.6358,-3.6358,-3.6358,-0.5195,-0.549,-0.5853,-0.615,-0.6944,-0.7544,-0.7566,-0.8407,-0.9792,-1.1976,-1.2165,-1.2917,-1.4993,-1.4622,-1.4435,-1.5085,-1.7727,-1.871,-1.7214,-1.911,-1.9985,-1.9232,-1.9258,-1.9668,-2.0469,-2.0547,-2.0566,-2.0566,-2.0566,-2.0566,-2.0566,-2.0566,-2.0566,-2.0566,-2.0566,-2.0566,-2.0566,-2.0566,-2.0566,-2.0566,-2.0566,-2.0566,-2.0566,-2.0566,-2.0566,-2.0566,-2.0508,-2.1084,-2.1652,-2.0738,-2.0742,-2.099,-2.0123,-1.9492,-1.9302,-2.0355,-1.9922,-1.9532,-2.1644,-2.1589,-2.0971,-2.0901,-2.0696,-2.066,0.0,0.0,-2.3563,-2.3659,-2.5272,-2.6709,-2.6883,-2.7276,-2.7877,-2.8602,-2.8794,-2.9043,-2.9605,-2.9756,-3.0002,-3.0431,-3.0572,-3.0959,-3.1932,-3.2129,-3.245,-3.2932,-3.3068,-3.3068,-3.3068,-3.3528,-3.3801,-3.3801,-3.4375,-3.4603,-3.4568,-3.5164,-3.5431,-3.5392,-3.6018,-3.6307,-3.6307,-3.6358,-3.6358,-3.6358,-3.6358,-3.6358,-3.6358,-3.6358,-3.6358,-3.6358,-3.6358,-3.6358,-3.6358,-3.6358,-3.6358,-3.6358,-0.649,-0.6878,-0.7225,-0.7343,-0.7254,-0.7303,-0.7643,-0.8298,-0.9292,-1.0744,-1.1394,-1.2073,-1.3011,-1.2495,-1.2376,-1.3047,-1.6033,-1.7412,-1.637,-1.8999,-2.0115,-1.8958,-1.916,-1.957,-2.0176,-2.043,-2.0566,-2.0566,-2.0566,-2.0566,-2.0566,-2.0566,-2.0566,-2.0566,-2.0566,-2.0566,-2.0566,-2.0566,-2.0566,-2.0566,-2.0566,-2.0566,-2.0566,-2.0566,-2.0566,-2.0566,-2.0487,-2.0512,0.0,-2.1156,-2.0874,-2.0431,-2.0995,-2.0183,-1.928,-2.03,-2.0118,-2.0153,-2.2647,-2.2998,-2.2702,-2.3105,-2.338,-2.3579,-2.3815,-2.4693,-2.5548,-2.5891,-2.6876,-2.778,-2.7777,-2.7977,-2.8274,0.0,-2.89,-2.9245,-3.0163,-3.0291,-3.0593,-3.1417,-3.1562,-3.1672,-3.2197,-3.2546,-3.2796,-3.3068,-3.3366,-3.3528,-3.3528,-3.4075,-3.4386,-3.4338,-3.4926,-3.5211,-3.5199,-3.5705,-3.6018,-3.6018,-3.6307,-3.6358,-3.6358,-3.6358,-3.6358,-3.6358,-3.6358,-3.6358,-3.6358,-3.6358,-3.6358,-3.6358,-3.6358,-3.6358,-3.6358,-3.6358,-3.6358,-3.6358,-0.6969,-0.7484,-0.7891,-0.7706,-0.7355,-0.7357,-0.8063,-0.8585,-0.9119,-0.9817,-1.0621,-1.1123,-1.1123,-1.0747,-1.0721,-1.1299,-1.4237,-1.5961,-1.5759,-1.8503,-1.9814,-1.9014,-1.9069,-1.9355,-1.9902,-2.0215,-2.0449,-2.0566,-2.0566,-2.0566,-2.0566,-2.0566,-2.0566,-2.0566,-2.0566,-2.0566,-2.0566,-2.0566,-2.0566,-2.0566,-2.0566,-2.0566,-2.0566,-2.0566,-2.0505,-2.0317,-2.0237,-2.0066,-2.0028,-2.0577,-2.0314,-1.9828,-2.0561,-1.9876,-1.9057,-2.0595,-2.1171,-2.1626,-2.2999,-2.3627,-2.4025,-2.4853,-2.5451,-2.587,-2.6013,-2.6401,-2.6854,-2.7399,-2.7952,-2.8337,-2.8317,-2.8484,-2.8737,-2.9118,-2.9269,-2.9651,-3.047,-3.0719,-3.114,-3.2054,-3.223,-3.2273,-3.2416,-3.2842,-3.3068,-3.3068,-3.3639,-3.3938,-3.3938,-3.455,-3.4956,-3.4887,-3.5511,-3.5705,-3.5705,-3.6188,-3.6358,-3.6358,-3.6358,-3.6358,-3.6358,-3.6358,-3.6358,-3.6358,-3.6358,-3.6358,-3.6358,-3.6358,-3.6358,-3.6358,-3.6358,-3.6358,-3.6358,-3.6358,-3.6358,-3.6358,-0.5829,-0.651,-0.7102,-0.6382,-0.7203,-0.8274,-0.9224,-0.9635,-0.9867,-0.9893,-0.9943,-0.9943,-0.9943,-0.9943,-1.0144,-1.0669,-1.3308,-1.5266,-1.6033,-1.7878,-1.9225,-1.985,-1.9054,-1.9043,-1.9902,-1.9922,-2.0137,-2.0566,-2.0566,-2.0566,-2.0566,-2.0566,-2.0566,-2.0566,-2.0566,-2.0566,-2.0566,-2.0566,-2.0566,-2.0566,-2.0566,-2.0566,-2.0566,-2.0566,-2.0232,-1.9602,-1.9651,-2.0207,-2.0599,-1.8512,-1.8776,-1.9738,-1.8313,-1.817,-1.9192,-2.2325,-2.4268,-2.5094,-2.3541,-2.3917,-2.4868,-2.5435,-2.6013,-2.6627,-2.7105,-2.7293,-2.7449,-2.7971,-2.8513,-2.8917,-2.8864,-2.9372,-2.9779,-2.9779,-3.0188,-3.0573,-3.0598,-3.1058,-3.1565,-3.2129,-3.2222,-3.2441,0.0,-3.3068,-3.3068,-3.3068,-3.3639,-3.3938,-3.3938,-3.4911,-3.5462,-3.5511,-3.6043,-3.6358,-3.6358,-3.6358,-3.6358,-3.6358,-3.6358,-3.6358,-3.6358,-3.6358,-3.6358,-3.6358,-3.6358,-3.6358,-3.6358,-3.6358,-3.6358,-3.6358,-3.6358,-3.6358,-3.6358,-3.6358,-3.6358,-3.6358,-0.7536,-0.8248,-0.8706,-0.7772,-0.8225,-0.8827,-0.9145,-0.9413,-0.9633,-0.9867,-0.9893,0.0,0.0,0.0,0.0,0.0,-1.2572,-1.3974,-1.4406,-1.7093,-1.8714,-1.8707,-1.977,-2.045,-2.077,-2.0523,-2.0553,-2.1002,-2.042,-2.0273,-2.0566,-2.0566,-2.0566,-2.0566,-2.0566,-2.0566,-2.0566,-2.0566,-2.0566,-2.0566,-2.0566,-2.1011,-2.1486,-2.1104,-2.0761,-2.0376,0.0,-1.8722,-1.8679,-1.8608,-1.849,-1.8426,-1.9057,-1.8566,-1.8345,-2.0831,-2.271,-2.4079,-2.4632,-2.5034,-2.5561,-2.649,-2.6898,-2.7156,-2.773,-2.8083,-2.8375,-2.859,-2.8518,-2.8358,-2.8389,-2.8525,-2.8762,-2.9142,-3.0035,-3.0849,-3.158,-3.1868,-3.2179,-3.2746,-3.2757,0.0,0.0,0.0,0.0,-3.3068,-3.3938,-3.4401,-3.4401,-3.5461,-3.6138,-3.6138,-3.6307,-3.6358,-3.6358,-3.6358,-3.6358,-3.6358,-3.6358,-3.6358,-3.6358,-3.6358,-3.6358,-3.6358,-3.6358,-3.6358,-3.6358,-3.6358,-3.6358,-3.6358,-3.6358,-3.6358,-3.6358,-3.6358,-3.6647,-3.6843,0.0,-0.8942,-0.9291,-0.8326,-0.8518,0.0,0.0,0.0,0.0,0.0,0.0,0.0,0.0,0.0,0.0,0.0,0.0,-1.2645,-1.3412,-1.5374,-1.6888,-1.763,-1.8444,-1.9144,-1.9736,-1.949,-1.9631,-2.0265,-1.9758,-1.98,-2.0312,-2.019,-2.0117,-2.0117,-2.0273,-2.0332,-2.0409,-2.0874,-2.1245,-2.1346,-2.0927,-2.1261,-2.1867,-2.0695,-2.003,0.0,-1.8032,-1.7232,-1.6931,-1.7169,-1.7333,-1.7599,-1.8462,-1.897,-1.9341,-1.993,-2.182,-2.3929,-2.4782,-2.531,-2.5862,-2.7017,-2.7289,-2.75,-2.8228,-2.8623,-2.8991,-2.9142,-2.849,-2.7803,-2.7776,-2.7806,-2.7975,-2.8494,-3.0072,-3.1381,-3.208,-3.2562,-3.2909,-3.3093,-3.3068,-3.3068,0.0,0.0,0.0,-3.3366,-3.4238,-3.4761,-3.4971,-3.589,-3.6358,-3.6358,-3.6358,-3.6358,-3.6358,-3.6358,-3.6358,-3.6358,-3.6358,-3.6358,-3.6358,-3.6358,-3.6358,-3.6358,-3.6358,-3.6358,-3.6358,-3.6358,-3.6358,-3.6358,-3.6358,-3.6502,-3.6672,-3.6672,-3.7013,-3.745,0.0,0.0,-0.8892,0.0,0.0,0.0,0.0,0.0,0.0,0.0,0.0,0.0,0.0,0.0,0.0,0.0,0.0,0.0,-1.2973,-1.2889,-1.3988,-1.6666,-1.5612,-1.5625,-1.7147,-1.7169,-1.7592,-1.8611,-1.8742,-1.9147,-1.976,-1.9373,-1.9232,-1.9252,-1.9644,-1.9746,-1.984,-2.1267,-2.2155,-2.256,-2.1385,-2.1263,-2.1553,-1.9434,-1.8171,-1.7431,-1.6334,-1.5828,-1.5542,-1.45,-1.5633,-1.7375,-1.6923,-1.9309,-2.187,-1.9836,-2.187,-2.4682,-2.4205,-2.4833,-2.5912,-2.7042,-2.7329,-2.763,-2.8692,-2.8925,-2.9093,-2.9628,-2.835,-2.7211,-2.7088,-2.7149,-2.7293,-2.7838,-3.0248,-3.2075,-3.213,-3.3121,-3.3683,0.0,0.0,0.0,0.0,0.0,0.0,-3.3938,0.0,-3.4921,-3.5437,-3.6043,-3.6358,-3.6358,-3.6358,-3.6358,-3.6358,-3.6358,-3.6358,-3.6358,-3.6358,-3.6358,-3.6358,-3.6358,-3.6358,-3.6358,-3.6358,-3.6358,-3.6358,-3.6358,-3.6452,-3.6477,-3.6477,-3.6792,-3.7184,-3.726,-3.7629,-3.7972,0.0,0.0,0.0,0.0,0.0,0.0,0.0,0.0,0.0,0.0,0.0,0.0,0.0,0.0,0.0,0.0,0.0,0.0,-1.1245,-1.2086,-1.3373,-1.5332,-1.6264,-1.7315,-1.8476,-1.7908,-1.8024,-1.9034,-1.8467,-1.8416,-1.8889,-1.8319,-1.8039,-1.806,-1.8161,-1.8222,-1.8222,-1.9104,-1.9555,-1.9706,-1.9334,-1.9739,-2.0349,-1.9437,-1.8892,-1.8412,-1.6888,-1.6058,-1.5593,-1.4928,-1.6421,-1.8807,-1.9886,-2.0916,-2.1744,-2.202,-2.31,-2.4356,-2.5008,-2.5711,-2.6533,-2.7607,-2.7893,-2.8199,-2.9303,-2.9578,-2.9327,-2.8651,-2.7235,-2.5641,-2.4413,-2.452,-2.4951,-2.5586,-2.8378,0.0,-3.152,-3.2572,0.0,-3.3093,0.0,-3.3068,-3.3068,-3.3477,0.0,0.0,-3.46,-3.4941,-3.5486,-3.6043,-3.6358,-3.6358,-3.6358,-3.6358,-3.6358,-3.6358,-3.6358,-3.6358,-3.6358,-3.6358,-3.6358,-3.6358,-3.6358,-3.6358,-3.6358,-3.6358,-3.6358,-3.6358,-3.6647,-3.6988,-3.6988,-3.7304,-3.7826,-3.7842,-3.8165,-3.8667,0.0,0.0,0.0,0.0,0.0,0.0,0.0,0.0,0.0,0.0,0.0,0.0,0.0,0.0,0.0,0.0,0.0,0.0,0.0,-1.0721,-1.1701,-1.3393,-1.4086,-1.509,-1.6429,-1.5752,-1.6161,-1.7676,-1.6802,-1.6863,-1.7835,-1.7105,-1.6686,-1.6707,-1.6917,-1.7185,-1.7434,-1.8416,-1.9163,0.0,0.0,-1.9238,-1.9782,-1.847,-1.7971,-1.7777,-1.6829,-1.6673,-1.6955,-1.7731,-1.8763,-2.0037,-2.1694,-2.2548,-2.3025,-2.3401,-2.4079,-2.4883,-2.5737,-2.6389,-2.7037,-2.7881,-2.8286,-2.8423,-2.8366,-2.8371,-2.7859,-2.6257,-2.4606,-2.3128,-2.221,-2.2857,-2.3923,0.0,0.0,0.0,-3.2001,-3.2909,-3.3345,0.0,-3.3068,0.0,-3.3477,-3.369,-3.4208,0.0,-3.5034,-3.5342,-3.5849,-3.6188,-3.6358,-3.6358,-3.6358,-3.6358,-3.6358,-3.6358,-3.6358,-3.6358,-3.6358,-3.6358,-3.6358,-3.6358,-3.6358,-3.6358,0.0,-3.6358,-3.6452,-3.6647,-3.6963,-3.7235,-3.7437,-3.7937,-3.8437,-3.8386,-3.8807,-3.9187,0.0,0.0,0.0,0.0,0.0,0.0,0.0,0.0,0.0,0.0,0.0,-0.9893,0.0,0.0,0.0,0.0,0.0,0.0,0.0,0.0,-0.9919,-1.1525,-1.1173,-1.167,-1.3273,-1.2881,-1.3609,-1.5593,-1.4845,-1.5189,-1.6621,-1.5796,-1.54,-1.5421,-1.5836,-1.6252,-1.6774,-1.8063,-1.9246,-2.0094,-1.898,-1.8907,-1.9158,0.0,-1.6522,-1.6489,-1.6598,-1.7288,-1.8576,-2.121,-2.1616,-2.1357,-2.3179,-2.4318,-2.4933,-2.4481,-2.4983,-2.5837,-2.6414,-2.6917,-2.744,-2.8033,-2.8584,-2.8522,-2.699,-2.6569,-2.584,-2.3476,-2.1736,-2.0639,-2.0489,-2.1801,-2.3387,-2.4908,0.0,-3.126,-3.2466,-3.3169,-3.3445,-3.3119,-3.3179,-3.3366,-3.3827,-3.4056,-3.4463,-3.5412,-3.5561,-3.5849,-3.6358,-3.6358,-3.6358,-3.6358,-3.6358,-3.6358,-3.6358,-3.6358,-3.6358,-3.6358,-3.6358,-3.6358,-3.6358,-3.6358,-3.6358,-3.6358,0.0,0.0,-3.6477,-3.6988,-3.7191,-3.7329,-3.7913,-3.8477,-3.9009,-3.9009,-3.9315,-3.9697,0.0,0.0,0.0,0.0,0.0,0.0,0.0,0.0,0.0,0.0,-1.0772,-0.9893,0.0,0.0,0.0,0.0,0.0,0.0,0.0,0.0,0.0,-1.155,-1.1927,-1.268,-1.3921,-1.3846,-1.4198,-1.5054,-1.4898,-1.4943,-1.524,-1.4559,-1.4266,-1.4266,-1.4359,-1.4452,-1.4588,-1.532,-1.6033,-1.6578,-1.6378,-1.6597,-1.7049,-1.6672,0.0,0.0,-1.7001,-1.7315,-1.8093,-2.1991,-2.3098,-2.3311,-2.6033,-2.6591,-2.6163,-2.6063,-2.6231,-2.644,-2.6992,-2.7218,-2.7515,-2.8511,-2.8813,-2.8547,-2.7387,-2.6823,-2.5696,-2.3011,-2.1475,-2.0329,-1.9434,-2.0681,-2.1995,-2.2732,-2.5762,-2.8549,-3.0131,-3.121,-3.2139,0.0,-3.3503,-3.3801,-3.3913,-3.47,0.0,0.0,0.0,-3.6307,-3.6358,-3.6358,-3.6358,-3.6358,-3.6358,-3.6358,-3.6358,-3.6358,-3.6358,-3.6358,-3.6358,-3.6358,-3.6358,-3.6358,-3.6358,-3.6358,-3.6358,0.0,-3.6477,-3.6988,-3.7437,-3.7935,-3.8506,-3.9137,-3.9544,-3.9544,-3.9672,-3.9697,0.0,0.0,0.0,0.0,0.0,0.0,0.0,-1.0947,-1.1274,-1.2622,-1.2096,-1.1495,-1.1249,-1.0671,-1.032,0.0,0.0,0.0,0.0,0.0,0.0,-1.1575,-1.1851,-1.2354,-1.3216,-1.2939,-1.3342,-1.4475,0.0,-1.3885,-1.4475,-1.384,-1.3569,-1.3569,-1.3569,-1.3752,-1.4059,-1.4362,-1.4802,-1.5291,-1.5593,-1.5844,-1.612,-1.6396,0.0,0.0,-1.6879,-1.7648,-1.9031,-2.1444,-2.2788,-2.3741,-2.61,-2.7326,-2.7604,-2.6596,-2.6698,-2.7146,-2.743,-2.7596,-2.7868,-2.8391,-2.8923,-2.8623,-2.5793,-2.488,-2.3688,-2.0041,-1.8878,-1.8409,-1.8229,-2.0016,-2.1776,-2.2548,-2.5536,-2.8298,-2.998,-3.0909,-3.1813,-3.2943,-3.3528,-3.3964,-3.4264,-3.5052,-3.568,0.0,0.0,-3.6358,-3.6358,-3.6358,-3.6358,-3.6358,-3.6358,-3.6358,-3.6358,-3.6358,-3.6358,-3.6358,-3.6358,-3.6358,-3.6358,-3.6358,-3.6358,-3.6452,-3.6672,0.0,-3.5824,-3.745,-3.7811,-3.7467,-3.8807,-3.9494,-3.9697,-3.9697,-3.9697,-3.9697,0.0,0.0,0.0,0.0,0.0,0.0,0.0,-1.1751,-1.2253,-1.3549,-1.3624,-1.3373,-1.2981,-1.1826,-1.1019,0.0,0.0,0.0,0.0,0.0,0.0,0.0,0.0,0.0,-1.258,0.0,0.0,-1.3921,-1.3006,0.0,0.0,0.0,0.0,0.0,-1.3198,-1.3458,-1.3921,-1.3921,-1.4299,0.0,0.0,-1.5668,-1.5919,0.0,0.0,0.0,0.0,-1.7811,-1.9551,-2.0853,-2.1999,-2.3195,-2.4857,-2.6625,-2.7906,-2.6674,-2.6781,-2.7407,-2.7907,-2.8099,-2.8172,-2.8398,-2.9126,-2.8635,-2.4282,-2.3179,-2.1897,-1.7573,-1.659,-1.6741,-1.7429,-1.9509,-2.1504,-2.2705,-2.5344,-2.7946,-2.9955,-3.0583,-3.1411,-3.2893,-3.3665,-3.4203,-3.4622,-3.5319,0.0,0.0,0.0,0.0,-3.6358,-3.6358,-3.6358,-3.6358,-3.6358,-3.6358,-3.6358,-3.6358,-3.6358,-3.6358,-3.6358,-3.6213,-3.5993,-3.5993,-3.5849,-3.5705,-3.6477,0.0,0.0,-3.7715,-3.8065,-3.694,-3.896,-3.9697,-3.9697,-3.9697,-3.9697,-3.9697,0.0,0.0,0.0,0.0,0.0,0.0,0.0,-1.2328,-1.3082,-1.5191,-1.504,-1.4727,-1.4702,-1.3207,-1.2052,0.0,0.0,0.0,0.0,0.0,0.0,0.0,0.0,0.0,0.0,0.0,0.0,-1.3273,-1.3173,0.0,0.0,0.0,0.0,0.0,0.0,-1.3223,-1.3273,-1.3273,0.0,0.0,0.0,0.0,0.0,0.0,0.0,0.0,0.0,-1.7338,-1.7989,-2.0855,-2.1611,-2.1524,-2.2648,-2.4096,-2.5597,-2.664,-2.6478,-2.6437,-2.867,-2.8692,-2.8348,-2.9377,-2.9704,-2.8762,-2.4847,-2.3492,-2.2004,-1.8104,-1.6888,-1.6845,-1.7938,-1.912,-2.0501,-2.2129,-2.353,-2.5469,-2.8598,-2.9076,-3.0131,-3.2767,-3.3964,-3.4648,-3.4665,-3.5655,0.0,0.0,0.0,0.0,-3.6358,-3.6358,-3.6358,-3.6358,-3.6358,-3.6358,-3.6358,-3.6358,-3.6358,-3.6358,-3.6358,-3.573,-3.46,-3.46,-3.4123,-3.3386,-3.4768,0.0,0.0,-3.7419,-3.8037,-3.694,-3.896,-3.9697,-3.9697,-3.9697,-3.9697,-3.9697,0.0,0.0,0.0,0.0,0.0,0.0,-1.2153,-1.2404,-1.3207,-1.5417,-1.5492,-1.5367,-1.5367,-1.4488,-1.3408,-1.2203,0.0,0.0,0.0,0.0,0.0,0.0,0.0,0.0,0.0,0.0,-1.3408,-1.3735,-1.3735,0.0,0.0,0.0,0.0,0.0,0.0,-1.3198,-1.3198,-1.3198,0.0,0.0,0.0,0.0,0.0,0.0,0.0,0.0,0.0,0.0,-1.75,-1.8699,-1.9488,-1.9949,-2.0415,-2.1248,-2.2616,-2.5424,-2.638,-2.6897,-2.8671,-2.8673,-2.8222,-2.8674,-2.9277,-2.8713,-2.4404,-2.3289,-2.1888,-1.7721,-1.6683,-1.6845,-1.7982,-1.8812,-1.9879,-2.1553,-2.277,-2.4528,-2.7512,-2.8482,-2.9945,-3.2767,-3.4075,-3.4817,0.0,0.0,0.0,0.0,0.0,0.0,-3.6358,-3.6358,-3.6358,-3.6358,-3.6358,-3.6358,-3.6358,-3.6358,-3.6358,-3.6358,-3.5561,-3.4911,-3.4362,-3.3492,-3.3051,-3.3073,-3.3927,0.0,0.0,-3.6952,-3.7757,-3.7315,-3.9009,-3.9697,-3.9697,-3.9697,-3.9697,-3.9722,0.0,0.0,0.0,0.0,0.0,-1.047,-1.2153,-1.2522,-1.3383,-1.5417,-1.5693,-1.5693,-1.5693,-1.5104,-1.4249,-1.3232,-1.2831,0.0,0.0,0.0,0.0,0.0,0.0,0.0,0.0,0.0,-1.3659,-1.4097,-1.4249,-1.4324,0.0,0.0,0.0,0.0,0.0,0.0,0.0,0.0,0.0,0.0,0.0,0.0,0.0,0.0,0.0,0.0,0.0,0.0,0.0,0.0,0.0,-1.8398,-1.8686,-1.9169,-2.0346,-2.422,-2.5769,-2.6703,-2.8566,-2.9023,-2.8872,-2.8646,-2.905,-2.8382,-2.4282,-2.2899,-2.1384,-1.7748,-1.6751,-1.6888,-1.8216,-1.859,-1.9374,-2.1193,-2.2389,-2.4042,-2.6685,-2.7985,-2.9539,-3.1872,0.0,-3.4135,0.0,0.0,0.0,0.0,0.0,0.0,0.0,-3.6358,-3.6358,-3.6358,-3.6358,-3.6358,-3.6358,-3.6358,-3.6188,-3.5824,-3.4887,-3.3983,-3.3198,-3.2345,-3.1955,-3.2084,0.0,0.0,0.0,-3.6049,-3.7123,-3.7618,-3.8654,-3.934,-3.9697,-3.9697,-3.9697,-3.9825,0.0,0.0,0.0,0.0,0.0,0.0,-1.2153,-1.2847,-1.3774,-1.5467,-1.5693,-1.5693,-1.5693,-1.4752,-1.4299,-1.4828,-1.386,0.0,0.0,0.0,0.0,0.0,0.0,0.0,0.0,0.0,-1.4072,-1.4097,-1.4626,-1.4903,-1.4903,-1.4349,-1.4097,-1.4047,0.0,0.0,0.0,0.0,0.0,0.0,0.0,0.0,0.0,0.0,0.0,0.0,0.0,0.0,0.0,0.0,0.0,0.0,0.0,-1.8208,-1.911,-2.3265,-2.4526,-2.5245,-2.8545,-3.005,-3.0623,-2.991,-2.9245,-2.7878,-2.4725,-2.2293,-2.023,-1.8521,-1.7282,-1.6982,-1.8688,-1.8573,-1.8908,-2.1151,-2.2394,-2.3919,-2.6207,-2.743,-2.8496,-2.9671,-3.1206,-3.2475,-3.3093,0.0,0.0,0.0,0.0,0.0,0.0,-3.6358,-3.6358,-3.6358,-3.6358,-3.6358,-3.6358,-3.6358,-3.5705,-3.4433,-3.4433,-3.3024,-3.0405,-3.0764,-3.0488,0.0,0.0,0.0,0.0,-3.4674,-3.6161,-3.7467,-3.7491,-3.8452,-3.9697,-3.9697,-3.9697,-3.9825,0.0,0.0,0.0,0.0,0.0,0.0,0.0,-1.1751,-1.2554,-1.3824,-1.4337,-1.4752,-1.509,-1.4525,-1.4299,-1.4853,-1.4249,0.0,0.0,0.0,0.0,0.0,0.0,0.0,0.0,-1.3795,-1.4274,-1.4651,-1.5166,-1.5442,-1.5442,-1.5266,-1.5004,-1.4626,-1.4072,-1.3821,0.0,0.0,0.0,0.0,0.0,0.0,0.0,0.0,0.0,0.0,0.0,0.0,0.0,0.0,0.0,0.0,0.0,0.0,0.0,-2.0031,-2.1587,-2.2911,-2.4904,-2.5792,-2.6,-2.5369,-2.5613,-2.5354,-2.2872,-2.1738,-2.0657,-1.8631,-1.7895,-1.782,-1.8368,-1.8015,-1.8721,-2.2065,-2.2562,-2.3764,-2.7118,-2.8209,-2.9054,-3.0197,-3.2455,-3.4274,0.0,0.0,0.0,0.0,0.0,0.0,0.0,-3.6358,-3.6358,-3.6358,-3.6358,-3.6358,-3.6358,-3.5511,-3.4768,-3.4338,-3.2487,-3.1187,-3.0319,-2.9748,0.0,0.0,0.0,0.0,0.0,-3.3999,-3.526,-3.7557,-3.7498,-3.7795,-3.83,-3.934,-3.9901,-4.0362,0.0,0.0,0.0,0.0,0.0,0.0,0.0,-1.1224,-1.1977,-1.3048,-1.3534,-1.4109,-1.5031,-1.4479,-1.4475,-1.5645,-1.5238,0.0,0.0,0.0,0.0,0.0,0.0,0.0,-1.3534,-1.4123,-1.4777,-1.5492,-1.607,-1.6321,-1.6321,-1.612,-1.5718,-1.5141,-1.4425,-1.4097,0.0,0.0,0.0,0.0,0.0,0.0,-1.6522,0.0,0.0,0.0,0.0,0.0,0.0,0.0,0.0,0.0,0.0,0.0,0.0,0.0,-1.9175,-2.0524,-2.2786,-2.4021,-2.4528,-2.3929,-2.4062,-2.3851,-2.1922,-2.0819,-1.9864,-1.8465,-1.8191,-1.821,-1.8197,-1.8257,-1.9068,-2.1463,-2.2628,-2.4048,-2.6263,-2.7729,-2.9136,-3.044,0.0,0.0,0.0,0.0,0.0,0.0,0.0,0.0,0.0,-3.6358,-3.6358,-3.6358,-3.6358,-3.6358,-3.6358,-3.5055,-3.4102,-3.3621,-3.1377,-3.015,-2.9748,-2.9307,0.0,0.0,0.0,0.0,0.0,-3.2899,-3.4031,-3.6617,-3.6649,-3.672,-3.7115,-3.8502,-3.9494,-3.9848,0.0,0.0,0.0,0.0,0.0,0.0,0.0,-1.1148,-1.1902,-1.2947,-1.3123,-1.3699,-1.5175,-1.448,-1.4721,-1.6746,0.0,0.0,0.0,0.0,0.0,0.0,0.0,0.0,-1.4072,-1.4664,-1.5432,-1.6446,-1.7074,-1.7375,-1.7375,-1.6873,-1.6346,-1.5768,-1.4727,-1.4223,-1.4173,-1.4702,-1.4928,-1.5054,-1.6095,-1.6522,0.0,0.0,0.0,0.0,0.0,0.0,0.0,0.0,0.0,0.0,0.0,0.0,0.0,0.0,0.0,0.0,0.0,-2.3944,-2.5108,-2.4438,-2.3815,-2.2959,-2.1565,-1.97,0.0,-1.8205,-1.8229,-1.8301,-1.8263,-1.9076,-1.9788,-2.0016,-2.2652,-2.4597,-2.4112,-2.64,-2.8762,-3.0573,-3.1719,0.0,0.0,0.0,0.0,0.0,0.0,0.0,0.0,-3.6332,-3.6307,-3.6358,-3.6332,-3.6307,-3.6358,-3.4936,-3.3604,-3.2276,-3.0784,-2.9728,-2.8886,-2.9427,0.0,0.0,0.0,0.0,0.0,-3.159,-3.2639,-3.5104,-3.5104,-3.5358,-3.5883,-3.7397,-3.8251,-3.8648,0.0,0.0,0.0,0.0,0.0,0.0,0.0,0.0,0.0,0.0,-1.2354,-1.2889,-1.3639,-1.3838,-1.4265,0.0,0.0,0.0,0.0,0.0,0.0,0.0,0.0,0.0,-1.4109,-1.4938,-1.5543,-1.5894,-1.6898,-1.7375,-1.74,-1.7677,-1.7501,-1.6948,-1.6245,-1.5467,-1.4727,-1.4853,-1.5155,-1.5567,-1.6245,-1.6522,0.0,0.0,0.0,0.0,-1.6522,-1.6522,0.0,0.0,0.0,0.0,0.0,0.0,0.0,0.0,-1.6722,-1.7024,-1.838,0.0,-1.9829,-1.9257,-1.9334,-1.9403,0.0,-1.8561,-1.8177,-1.8177,-1.8824,-1.9309,-1.8907,-1.8904,-1.9675,-2.1971,-2.3237,-2.4154,-2.4691,-2.6785,-2.9267,-3.2206,-3.3442,0.0,0.0,0.0,0.0,0.0,0.0,0.0,0.0,-3.5392,-3.5367,-3.6358,-3.5392,-3.5367,-3.6358,-3.398,-3.2689,-3.2276,-2.9876,-2.8846,-2.8906,-2.9385,0.0,0.0,0.0,0.0,-3.3053,-3.2768,-3.3028,-3.3609,-3.3609,-3.3874,-3.438,-3.586,-3.7002,-3.779,0.0,0.0,0.0,0.0,0.0,0.0,0.0,0.0,0.0,0.0,0.0,-1.2488,-1.3677,-1.4019,0.0,0.0,0.0,0.0,0.0,0.0,0.0,0.0,0.0,-1.4246,-1.4372,-1.5123,-1.5673,-1.607,-1.6948,-1.7526,-1.7752,-1.7802,-1.7677,-1.735,-1.6522,-1.5668,-1.4928,-1.5141,-1.5417,-1.5743,-1.6296,0.0,0.0,0.0,0.0,0.0,-1.6522,-1.6522,0.0,-1.6522,-1.6522,-1.6522,0.0,0.0,0.0,0.0,-1.6522,-1.6597,-1.6898,-1.7576,-1.8204,-1.8154,-1.8377,-1.8507,-1.824,-1.7991,-1.7748,-1.7488,-1.8286,-1.8869,-1.8378,-1.9199,-2.0242,-2.0895,-2.2655,-2.4566,-2.6259,-2.7578,-2.9352,-3.2341,-3.342,0.0,0.0,0.0,0.0,0.0,0.0,0.0,0.0,-3.3791,-3.3813,-3.4457,-3.3813,-3.4123,-3.5511,-3.3362,-3.1968,-3.1358,-2.9287,-2.8593,-2.922,-2.9488,-2.9947,0.0,0.0,0.0,-3.2058,-3.2133,-3.2129,-3.215,-3.3094,-3.3224,-3.3262,-3.484,-3.5995,-3.6666,0.0,0.0,0.0,0.0,0.0,0.0,0.0,0.0,0.0,0.0,0.0,0.0,0.0,0.0,0.0,0.0,0.0,0.0,0.0,0.0,0.0,0.0,-1.4278,-1.4604,-1.4822,-1.526,-1.5827,-1.6522,-1.7275,-1.7877,-1.8329,-1.8028,-1.7752,-1.7451,-1.6321,-1.5567,-1.5141,-1.5542,-1.5743,-1.5869,-1.6321,0.0,0.0,0.0,0.0,0.0,0.0,0.0,0.0,-1.6522,-1.6522,-1.6522,-1.6522,0.0,0.0,0.0,0.0,0.0,-1.6622,-1.7476,-1.8332,-1.8435,-1.8528,-1.8443,-1.7906,-1.746,-1.6982,-1.659,-1.742,-1.8155,-1.7924,-1.9668,-2.0818,-1.983,-2.2294,-2.5357,-2.8325,-2.8464,-2.9227,-3.2082,-3.2701,0.0,0.0,0.0,0.0,0.0,0.0,0.0,0.0,-3.2103,-3.2065,-3.2323,-3.2152,-3.2549,-3.3742,-3.2549,-3.1462,-3.0319,-2.9013,-2.8846,-2.9641,-2.964,-3.0121,0.0,0.0,0.0,-3.0916,-3.1131,-3.1191,-3.1191,-3.2779,-3.2942,-3.2435,-3.4077,-3.4972,-3.5432,0.0,0.0,0.0,0.0,0.0,0.0,0.0,0.0,0.0,0.0,0.0,0.0,0.0,0.0,0.0,0.0,0.0,0.0,0.0,0.0,0.0,-1.3947,-1.4278,-1.4795,-1.5365,-1.547,-1.5827,-1.6522,-1.8028,-1.8832,-1.8932,-1.9761,-1.9409,-1.8028,-1.6898,-1.6346,-1.6245,-1.5869,-1.5969,-1.6396,-1.6497,0.0,0.0,0.0,0.0,0.0,0.0,0.0,0.0,-1.6522,-1.6522,-1.6522,-1.6522,0.0,0.0,0.0,0.0,0.0,-1.7124,-1.8053,-1.841,-1.6611,-1.6471,-1.6662,-1.6142,-1.5941,-1.6022,-1.6386,-1.742,-1.8595,-1.9953,-1.9683,-2.0451,-2.3941,-2.4591,-2.6133,0.0,0.0,-2.9199,-3.2874,0.0,0.0,0.0,0.0,0.0,0.0,0.0,0.0,0.0,0.0,-3.1152,-3.2206,-3.1179,-3.0685,-3.0958,-3.0685,-3.0537,-3.0319,-2.9287,-2.914,-2.9641,-2.9945,-3.0412,0.0,0.0,-3.2084,-3.0988,-3.2281,-3.2286,-3.1503,-3.1679,-3.2236,-3.2739,-3.301,-3.3418,-3.3948,0.0,0.0,0.0,0.0,0.0,0.0,0.0,0.0,0.0,0.0,0.0,0.0,0.0,0.0,0.0,0.0,0.0,0.0,0.0,0.0,-1.4766,-1.4773,-1.4867,-1.4979,-1.5086,-1.6235,-1.6888,-1.6974,-1.8355,-1.9334,-1.9911,-1.9811,-1.9058,-1.7727,-1.6898,-1.6522,-1.6497,-1.6245,-1.6296,-1.6522,0.0,0.0,0.0,0.0,0.0,0.0,0.0,0.0,0.0,0.0,-1.607,-1.612,-1.6421,0.0,0.0,0.0,0.0,0.0,-1.6848,-1.7501,-1.7862,-1.6809,-1.7288,-1.7957,-1.7723,-1.704,-1.6522,-1.6547,-1.6982,-1.7748,-1.9049,-2.0288,-2.2198,-2.5569,-2.4861,-2.5226,-2.8817,-2.8578,0.0,0.0,0.0,0.0,0.0,0.0,0.0,0.0,0.0,0.0,0.0,0.0,-2.953,-3.0125,-2.9597,-2.918,-2.918,-2.918,-2.918,-2.918,-2.9013,-2.9194,-2.9575,-3.0045,-3.0432,-3.0898,0.0,-3.1523,-3.1035,-3.1836,-3.1973,-3.1602,-3.2054,-3.2428,-3.2777,-3.3087,-3.3769,-3.479,0.0,0.0,0.0,0.0,0.0,0.0,0.0,0.0,0.0,0.0,0.0,0.0,0.0,0.0,0.0,0.0,0.0,0.0,0.0,-1.4181,-1.4713,-1.5485,-1.5624,-1.5641,-1.5478,-1.7219,-1.7978,-1.7777,-1.9179,-2.0167,-2.084,-1.9736,-1.8631,-1.7551,-1.6974,-1.6647,-1.6522,-1.6522,-1.6522,-1.6522,0.0,0.0,0.0,0.0,0.0,0.0,0.0,0.0,0.0,0.0,0.0,0.0,0.0,0.0,0.0,-1.6522,-1.6522,-1.6547,-1.6672,-1.7035,-1.7399,-1.763,-1.8223,-1.881,-1.9165,-1.8265,-1.7286,-1.7219,-1.7387,-1.7759,-1.8528,-2.1595,-2.4368,-2.5504,-2.5222,-2.5509,0.0,0.0,0.0,0.0,0.0,0.0,0.0,0.0,0.0,0.0,0.0,0.0,0.0,0.0,-2.8301,-2.8301,-2.8301,-2.8301,-2.8301,-2.8427,-2.8427,-2.8447,-2.8866,-2.9329,-2.9792,-3.0121,-3.0568,-3.0898,-3.0898,-3.0898,-3.1054,-3.1366,-3.1604,-3.1919,-3.2584,-3.2903,-3.2942,-3.3272,-3.412,-3.5285,0.0,0.0,0.0,0.0,0.0,0.0,0.0,0.0,0.0,0.0,0.0,0.0,0.0,0.0,0.0,0.0,0.0,0.0,0.0,-1.3921,-1.4419,-1.5424,-1.645,-1.7228,-1.7769,-1.8233,-1.8621,-1.8858,-2.1225,-2.2029,-2.1418,-2.0288,-1.9183,-1.8129,-1.7576,-1.7024,-1.6522,-1.6522,-1.6522,-1.6522,-1.6522,0.0,0.0,0.0,0.0,0.0,0.0,0.0,0.0,0.0,0.0,0.0,0.0,0.0,-1.6522,-1.6522,-1.6522,-1.6647,-1.7174,-1.7331,-1.7557,-1.861,-1.7751,-1.6999,-1.8588,-1.8076,-1.7611,-1.8802,-1.9778,-2.0385,-2.028,-2.4062,-2.6388,-2.3823,-2.681,-2.9332,0.0,0.0,0.0,0.0,0.0,0.0,0.0,0.0,0.0,0.0,0.0,0.0,0.0,0.0,0.0,-2.8301,-2.8301,-2.8301,-2.8301,-2.87,-2.8866,-2.8866,-2.9307,-2.9778,-3.0121,-3.0587,-3.0879,-3.0898,-3.0898,-3.1054,-3.1503,-3.1503,-3.1976,-3.2749,-3.2738,-3.3068,-3.3418,-3.3418,-3.3437,-3.3583,0.0,0.0,0.0,0.0,0.0,0.0,0.0,0.0,0.0,0.0,0.0,0.0,0.0,0.0,0.0,0.0,0.0,0.0,0.0,-1.32,-1.3982,-1.5424,-1.6235,-1.7,-1.7833,-1.9572,-2.0771,-2.1305,-2.2166,-2.1849,-2.0413,-1.9334,-1.8405,-1.7677,-1.7099,-1.6722,-1.6522,-1.6522,-1.6522,-1.6522,-1.6522,-1.6195,0.0,0.0,0.0,0.0,0.0,0.0,0.0,0.0,-1.4928,-1.5291,-1.5844,-1.6245,-1.6522,-1.6522,-1.6522,-1.6572,-1.6798,-1.7364,-1.7943,-1.8407,-1.7922,-1.7965,-2.0229,-2.0532,-2.0494,-2.0986,-2.1711,-2.2295,-2.2563,-2.3828,-2.4848,-2.5058,-2.6837,0.0,0.0,0.0,0.0,0.0,0.0,0.0,0.0,0.0,0.0,0.0,0.0,0.0,0.0,0.0,0.0,-2.8301,-2.8301,-2.8301,-2.8301,-2.868,-2.9056,-2.9315,-2.975,-3.0081,-3.0257,-3.0723,-3.0898,-3.0898,-3.0898,-3.1191,-3.1582,-3.1852,-3.2324,-3.2777,-3.3087,-3.3272,-3.3418,-3.3418,-3.3418,-3.3437,0.0,0.0,0.0,0.0,0.0,0.0,0.0,0.0,0.0,0.0,0.0,0.0,0.0,0.0,0.0,0.0,0.0,0.0,-1.2341,-1.2755,-1.3753,-1.5374,-1.5927,-1.6831,-1.8043,-2.0073,-2.1332,-2.173,-2.1718,-2.0965,-1.9535,-1.8455,-1.7827,-1.7601,-1.6672,-1.6424,-1.6773,-1.6182,-1.6076,-1.6245,-1.6245,-1.5819,0.0,0.0,0.0,0.0,0.0,0.0,0.0,0.0,-1.4324,-1.4777,-1.5467,-1.5944,-1.6296,-1.6471,-1.6573,-1.6667,-1.696,-1.7279,-1.763,-1.8167,-1.7912,-1.8446,-2.1898,-2.2103,-2.19,-2.3024,-2.3383,-2.3621,-2.3689,-2.3608,-2.3991,0.0,0.0,0.0,0.0,0.0,0.0,0.0,0.0,0.0,0.0,0.0,0.0,0.0,0.0,0.0,0.0,0.0,0.0,0.0,-2.8301,-2.8359,-2.8496,-2.8953,-2.9331,-2.9853,-3.0277,-3.0432,-3.0432,-3.0743,-3.0898,-3.0898,-3.1035,-3.1347,-3.1799,-3.2227,-3.2593,-3.3068,-3.3272,-3.3418,-3.3418,-3.3418,-3.3437,-3.3623,0.0,0.0,0.0,0.0,0.0,0.0,0.0,0.0,-1.3433,-1.4022,-1.4072,0.0,0.0,0.0,0.0,0.0,0.0,0.0,-1.2195,-1.2671,-1.3659,-1.5211,-1.5787,-1.6877,-1.8608,-1.9438,-1.9782,-1.9612,-1.9762,-1.9535,-1.8933,-1.7877,-1.7652,-1.8081,-1.6393,-1.6268,-1.73,-1.5531,-1.5156,-1.5693,-1.5693,-1.5079,-1.4148,0.0,0.0,0.0,0.0,0.0,0.0,0.0,-1.4097,-1.4274,-1.5341,-1.5693,-1.5793,-1.6346,-1.6684,-1.7071,-1.7941,-1.7144,-1.6423,-1.816,-1.7725,-1.8148,-2.3132,-2.2193,-2.1235,-2.4884,-2.4889,-2.4071,-2.3467,-2.3861,0.0,0.0,0.0,0.0,0.0,0.0,0.0,0.0,0.0,0.0,0.0,0.0,0.0,0.0,0.0,0.0,0.0,0.0,0.0,0.0,-2.8301,-2.8496,-2.8906,-2.938,-2.9747,-3.0194,-3.0643,-3.0898,-3.0898,-3.0898,-3.0898,-3.0898,-3.1347,-3.1816,-3.229,-3.2591,-3.3087,-3.3418,-3.3418,-3.3418,-3.3418,-3.3418,-3.3749,-3.41,0.0,0.0,0.0,0.0,0.0,0.0,0.0,0.0,-1.3433,-1.4022,-1.3709,0.0,0.0,0.0,0.0,0.0,0.0,0.0,-1.1168,-1.1296,-1.2221,-1.4079,-1.4446,-1.5105,-1.6174,-1.6597,-1.7854,-1.9972,-2.0013,-1.9287,-1.7852,-1.7124,-1.6848,-1.6954,-1.6009,-1.583,-1.6128,-1.5193,-1.5156,-1.5693,-1.5693,-1.5266,-1.4676,0.0,0.0,0.0,0.0,0.0,0.0,0.0,0.0,0.0,-1.4928,-1.5085,-1.5253,-1.6218,-1.6239,-1.6051,-1.6303,-1.7517,-1.8542,-1.7833,-1.9089,-2.1146,-2.3901,-2.3706,-2.3813,-2.6523,-2.6325,-2.5418,-2.4392,-2.5036,0.0,0.0,0.0,0.0,0.0,0.0,0.0,0.0,0.0,0.0,0.0,0.0,0.0,0.0,0.0,0.0,0.0,0.0,0.0,0.0,-2.8301,-2.8496,-2.8906,-2.9407,-2.976,-3.0207,-3.0701,-3.0898,-3.0898,-3.0898,-3.0898,-3.0898,-3.1347,-3.174,-3.2227,-3.2894,-3.3272,-3.3418,-3.3418,-3.3603,-3.3915,-3.3915,-3.412,-3.4612,0.0,0.0,0.0,0.0,0.0,0.0,-1.3156,-1.3187,-1.3253,-1.3445,-1.3328,-1.3198,0.0,0.0,0.0,-1.2002,-1.1701,-1.1349,-1.0744,-1.1064,-1.1922,-1.3356,-1.4105,-1.474,-1.5253,-1.5648,-1.6559,-1.8035,-1.8226,-1.7771,-1.6697,-1.6572,-1.6647,-1.6829,-1.6466,-1.6195,-1.5953,-1.5145,-1.5035,-1.5367,-1.5367,-1.5079,-1.4601,0.0,0.0,0.0,0.0,0.0,0.0,0.0,0.0,0.0,-1.44,-1.4829,-1.5459,-1.7015,-1.7074,-1.6819,-1.7804,-1.9086,-1.9954,-1.9365,-2.044,-2.2069,-2.3451,-2.5038,-2.6469,-2.7012,-2.6998,-2.6299,-2.4833,-2.5179,0.0,0.0,0.0,0.0,0.0,0.0,0.0,0.0,0.0,0.0,0.0,0.0,0.0,0.0,0.0,0.0,0.0,0.0,0.0,0.0,-2.8301,-2.8574,-2.918,-2.9434,-2.9844,-3.0505,-3.0723,-3.0898,-3.0898,-3.0898,-3.1035,-3.123,-3.176,-3.2299,-3.2738,-3.3253,-3.3418,-3.3418,-3.3418,-3.3749,-3.4053,-3.405,-3.4473,-3.4969,0.0,0.0,0.0,0.0,0.0,0.0,-1.1977,-1.2603,-1.3025,-1.2686,-1.298,-1.3198,0.0,0.0,0.0,-1.2379,-1.1876,-1.1349,-1.0744,-1.1572,-1.2351,-1.3041,-1.4539,-1.5362,-1.5421,-1.5879,-1.5659,-1.4828,-1.5392,-1.5693,-1.5693,-1.6271,-1.6754,-1.7235,-1.7169,-1.6827,-1.6193,-1.5103,-1.472,-1.4828,-1.4828,-1.4525,-1.4148,-1.4651,0.0,0.0,0.0,0.0,0.0,0.0,0.0,0.0,-1.3997,-1.4839,-1.6036,-1.8207,-1.8495,-1.8587,-2.1007,-2.1158,-2.0949,-2.2026,-2.2115,-2.2155,-2.2961,-2.6355,-2.8806,-2.6661,-2.6936,-2.6956,-2.4925,0.0,0.0,0.0,0.0,0.0,0.0,0.0,0.0,0.0,0.0,0.0,0.0,0.0,0.0,0.0,0.0,0.0,0.0,0.0,0.0,0.0,-2.834,-2.875,-2.957,-2.9609,-3.0059,0.0,-3.0898,-3.0898,-3.0898,-3.0898,-3.1133,-3.1663,-3.2428,-3.3068,-3.3418,-3.3418,-3.3418,-3.3418,-3.3418,-3.3749,-3.4152,-3.4146,-3.4755,-3.5471,0.0,0.0,0.0,0.0,0.0,0.0,-1.2869,-1.2806,-1.2901,-1.3666,-1.3438,-1.3198,-1.3198,-1.3198,0.0,-1.1851,-1.165,-1.1349,-1.0744,-1.0878,-1.1822,-1.365,-1.4814,-1.5317,-1.5057,-1.4752,-1.4486,-1.4274,-1.5255,-1.5693,-1.5693,-1.6271,-1.6312,-1.6013,-1.5975,-1.5449,-1.4485,-1.3761,-1.3784,-1.4274,-1.4274,-1.4198,-1.4097,-1.4223,-1.381,0.0,0.0,0.0,0.0,0.0,0.0,0.0,-1.4551,-1.4823,-1.5356,-1.719,-1.7897,-1.8295,-1.9269,-2.0419,-2.1548,-2.2612,-2.5025,-2.733,-2.7892,-2.8746,-2.8729,-2.6304,-2.6798,-2.7215,0.0,0.0,0.0,0.0,0.0,0.0,0.0,0.0,0.0,0.0,0.0,0.0,0.0,0.0,0.0,0.0,0.0,0.0,0.0,0.0,0.0,-2.8301,-2.8613,-2.9043,-2.957,-2.9902,-3.0351,0.0,-3.0898,-3.0898,-3.0898,-3.0898,-3.1304,-3.2076,-3.2604,-3.3068,-3.3418,-3.3418,-3.3418,-3.3418,-3.3418,-3.3915,-3.4505,-3.4509,-3.5122,-3.586,0.0,0.0,0.0,0.0,0.0,0.0,0.0,0.0,-1.2983,-1.3288,-1.3268,-1.3098,-1.2847,-1.2797,0.0,0.0,-1.16,-1.145,-1.1148,-1.1374,-1.2374,-1.4269,-1.5389,-1.5631,-1.4928,-1.4374,-1.3821,-1.3292,-1.3584,-1.4113,-1.4915,-1.5452,-1.569,-1.5599,-1.5861,-1.5253,-1.4045,-1.3982,-1.3704,-1.3337,-1.3607,-1.3593,-1.3406,-1.363,-1.3361,-1.2896,-1.3129,0.0,0.0,0.0,0.0,0.0,0.0,0.0,-1.52,-1.6885,-1.7482,-1.7974,-2.0127,-2.1533,-2.296,-2.5098,-2.7627,-2.9408,-2.898,-2.9126,-2.9056,-2.7725,-2.7494,0.0,0.0,0.0,0.0,0.0,0.0,0.0,0.0,0.0,0.0,0.0,0.0,0.0,0.0,0.0,0.0,0.0,0.0,0.0,0.0,0.0,-2.8379,-2.8594,-2.8809,-2.9219,-2.9863,-3.0098,-3.043,-3.0898,-3.0898,-3.1016,-3.1132,-3.1426,-3.1886,-3.2574,-3.2922,-3.3253,-3.3418,-3.3418,-3.3418,-3.3418,-3.3603,-3.412,-3.4692,-3.5006,-3.5471,-3.6016,0.0,0.0,0.0,0.0,0.0,0.0,0.0,0.0,0.0,-1.265,-1.2955,-1.2998,-1.2479,-1.2404,-1.2153,0.0,0.0,0.0,-1.1575,-1.2278,-1.3308,-1.4702,-1.5693,-1.5819,-1.4928,-1.4274,-1.3458,-1.2554,-1.2102,-1.2558,-1.3936,-1.4429,-1.4853,-1.5192,-1.5773,-1.5133,-1.3692,-1.41,-1.3509,-1.2399,-1.2757,-1.2747,-1.2484,-1.2953,-1.2889,-1.2544,-1.2955,-1.3179,-1.3348,-1.3243,0.0,0.0,0.0,0.0,-1.5205,-1.6647,-1.714,-1.7882,-2.1296,-2.3087,-2.4677,-2.753,-2.9332,-3.0083,-2.8889,-2.9171,-2.967,-2.967,0.0,0.0,0.0,0.0,0.0,0.0,0.0,0.0,0.0,0.0,0.0,0.0,0.0,0.0,0.0,0.0,0.0,0.0,0.0,0.0,0.0,0.0,-2.8555,-2.8906,-2.9062,-2.9473,-3.0195,-3.0273,-3.0508,-3.0898,-3.0957,-3.125,-3.1638,-3.2109,-3.2513,-3.2777,-3.3253,-3.3418,-3.3418,-3.3418,-3.3418,-3.3437,-3.3934,-3.4318,-3.4754,-3.5296,-3.5665,-3.6016,0.0,0.0,0.0,0.0,0.0,0.0,0.0,0.0,0.0,0.0,-1.3163,-1.2998,-1.2479,-1.2404,-1.1946,-1.0894,-1.0819,-1.1048,-1.155,0.0,0.0,-1.4198,-1.4802,-1.5054,-1.4903,-1.386,-1.3248,-1.3098,-1.3023,-1.3164,-1.3565,-1.3928,-1.3853,-1.3474,-1.4138,-1.3474,-1.1904,-1.1685,-1.1643,-1.1697,-1.1465,-1.1572,-1.1882,-1.2401,-1.2556,-1.2508,-1.2579,-1.319,-1.3899,-1.3435,-1.3607,0.0,0.0,0.0,-1.5054,-1.5718,-1.691,-1.8312,-1.9805,-2.3105,-2.6426,-2.7773,-2.9253,-3.0446,-3.0738,-3.0838,-3.0956,0.0,0.0,0.0,0.0,0.0,0.0,0.0,0.0,0.0,0.0,0.0,0.0,0.0,0.0,0.0,0.0,0.0,0.0,0.0,0.0,0.0,0.0,-2.8633,-2.8867,-2.8926,-2.9629,-3.0078,-3.0195,-3.0586,-3.082,-3.0898,-3.1269,-3.166,-3.2109,-3.2519,-3.2786,-3.2777,-3.3253,-3.3418,-3.3418,-3.3418,-3.3418,-3.3437,-3.3934,-3.4355,-3.4796,-3.522,-3.5665,-3.6016,0.0,0.0,0.0,0.0,0.0,0.0,0.0,0.0,0.0,0.0,0.0,-1.2998,-1.2479,-1.2128,-1.1534,-1.0514,-1.0412,-1.0685,-1.1223,-1.2537,-1.3382,-1.3584,-1.4412,-1.4588,-1.3961,-1.3148,-1.2422,-1.1795,-1.2121,-1.2817,-1.3788,-1.3538,-1.3718,-1.416,-1.3429,-1.256,-1.1704,-1.1282,-1.0707,-1.011,-1.0256,-1.0694,-1.125,-1.1314,-1.1623,-1.2068,-1.2096,-1.2247,-1.2472,-1.2746,-1.2987,-1.3263,-1.3513,0.0,0.0,0.0,-1.5065,-1.669,-2.0238,-2.4456,-2.8176,-2.96,-3.0676,-3.1553,-3.2117,-3.2239,-3.2337,0.0,0.0,0.0,0.0,0.0,0.0,0.0,0.0,0.0,0.0,0.0,0.0,0.0,0.0,0.0,0.0,0.0,0.0,0.0,0.0,0.0,-2.8301,-2.8691,-2.9023,-2.9277,-2.9883,-3.0332,-3.0586,-3.0781,-3.1016,-3.125,-3.168,-3.2109,-3.2539,-3.2949,-3.3097,-3.3107,-3.3272,-3.3418,-3.3418,-3.3418,-3.3594,-3.3887,-3.426,-3.4766,-3.5122,-3.5646,-3.584,-3.6016,0.0,0.0,0.0,0.0,0.0,0.0,0.0,0.0,0.0,0.0,0.0,-1.2631,-1.2094,0.0,0.0,0.0,-0.9921,-1.012,-1.0762,-1.1832,-1.2641,-1.2998,-1.3935,-1.4011,-1.3023,-1.2479,-1.1726,-1.0694,-1.145,-1.2528,-1.3893,-1.3602,-1.4136,-1.5245,-1.3165,-1.1984,-1.152,-1.0944,-1.0198,-0.9372,-0.9701,-1.0315,-1.1084,-1.1283,-1.1922,-1.2654,-1.2481,-1.2263,-1.2106,-1.237,-1.2394,-1.2401,-1.2861,-1.3025,0.0,0.0,0.0,-1.5316,-1.9821,-2.3791,-2.7097,-2.922,-3.0273,-3.1085,-3.2365,0.0,-3.2807,0.0,0.0,0.0,0.0,0.0,0.0,0.0,0.0,0.0,0.0,0.0,0.0,0.0,0.0,0.0,0.0,0.0,0.0,0.0,0.0,0.0,-2.8301,-2.8789,-2.9238,-2.9551,-3.0098,-3.0547,-3.0879,-3.0898,-3.1094,-3.1523,-3.1953,-3.2383,-3.2812,-3.3223,-3.3418,-3.3418,-3.3418,-3.3418,-3.3418,-3.3418,-3.3622,-3.4148,-3.4473,-3.4965,-3.5471,-3.584,-3.6016,-3.6016,0.0,0.0,0.0,0.0,0.0,0.0,0.0,0.0,0.0,0.0,0.0,-1.1656,-1.1034,-1.0608,-1.0136,-0.9582,-0.9119,-0.9271,-1.0183,-1.124,-1.2037,-1.2422,-1.2973,0.0,-1.2454,-1.1927,-1.1324,-1.0694,-1.1795,-1.2791,-1.3628,-1.4369,-1.5153,-1.5857,-1.3328,-1.1681,-1.0788,-1.0026,-1.0057,-1.0578,-1.0358,-1.0764,-1.1655,-1.3367,-1.4533,-1.519,-1.4357,-1.437,-1.454,-1.2892,-1.2092,-1.1932,-1.2401,-1.2544,-1.2615,0.0,0.0,0.0,-1.7161,-1.896,-2.107,-2.4345,-2.599,-2.7595,-3.0758,0.0,0.0,0.0,0.0,0.0,0.0,0.0,0.0,0.0,0.0,0.0,0.0,0.0,0.0,0.0,0.0,0.0,0.0,0.0,0.0,0.0,0.0,0.0,-2.8301,-2.9082,-2.9551,-2.957,-3.041,-3.0859,-3.0898,-3.0898,-3.1094,-3.1523,-3.1953,-3.2383,-3.2812,-3.3223,-3.3418,-3.3418,-3.3418,-3.3418,-3.3418,-3.3418,-3.3622,-3.4167,-3.4541,-3.4969,-3.5471,-3.584,-3.6016,-3.6016,0.0,0.0,0.0,0.0,0.0,0.0,0.0,0.0,0.0,0.0,0.0,0.0,0.0,-1.0598,-1.001,-0.931,-0.8815,-0.8668,-0.8954,-0.9921,-1.0782,-1.1478,-1.2021,-1.2316,-1.2404,-1.1876,-1.1299,-1.0694,-1.15,-1.2572,-1.3899,-1.3784,-1.4505,-1.5777,-1.3173,-1.1986,-1.1776,-0.9966,-0.9516,-1.0011,-1.0212,-1.1118,-1.2536,-1.371,-1.4884,-1.5879,-1.5801,-1.4874,-1.3654,-1.3573,-1.2509,-1.1328,-1.1523,-1.1607,-1.1606,-1.1769,-1.3258,-1.5122,-1.6095,-1.8338,-2.0827,-2.2819,-2.4895,-2.6936,-2.8398,-2.9578,0.0,0.0,0.0,0.0,0.0,0.0,0.0,0.0,0.0,0.0,0.0,0.0,0.0,0.0,0.0,0.0,0.0,0.0,0.0,0.0,0.0,0.0,-2.8672,-2.9258,-2.9687,-2.9961,-3.0566,-3.0898,-3.0898,-3.0898,-3.125,-3.1934,-3.209,-3.2519,-3.3203,-3.3359,-3.3418,-3.3418,-3.3418,-3.3418,-3.3437,-3.373,-3.4121,-3.459,-3.4945,-3.5412,-3.584,-3.6016,-3.6016,-3.6016,0.0,0.0,0.0,0.0,0.0,0.0,0.0,0.0,-1.1303,-1.1303,0.0,0.0,0.0,0.0,-0.9796,-0.9129,-0.868,-0.8428,-0.8513,-0.915,-0.9786,-1.0501,-1.1375,-1.1883,-1.1937,-1.1715,-1.1299,-1.0694,-1.1098,-1.1952,-1.3267,-1.2854,-1.3388,-1.467,-1.2268,-1.1701,-1.2362,-1.0604,-0.9941,-1.0098,-1.1016,-1.1875,-1.2812,-1.4238,-1.5508,-1.6543,0.0,0.0,-1.4468,-1.4914,-1.3719,-1.2004,-1.1621,-1.1209,-1.0899,-1.0845,-1.2159,-1.3763,-1.4315,-1.6206,-1.846,-2.0499,-2.2283,-2.4129,-2.649,0.0,0.0,0.0,0.0,0.0,0.0,0.0,0.0,0.0,0.0,0.0,0.0,0.0,0.0,0.0,0.0,0.0,0.0,0.0,0.0,0.0,0.0,0.0,-2.8906,-2.9336,-2.9844,-3.041,-3.0723,-3.0898,-3.0898,-3.1035,-3.1465,-3.2168,-3.2305,-3.2734,-3.3418,-3.3418,-3.3418,-3.3418,-3.3418,-3.3418,-3.3457,-3.3887,-3.4316,-3.4746,-3.5215,-3.5644,-3.6016,-3.6016,-3.6016,-3.6016,0.0,0.0,0.0,0.0,0.0,0.0,-1.0273,-1.0273,-1.0273,-1.0273,0.0,0.0,0.0,0.0,0.0,-0.9062,-0.8652,-0.8557,-0.887,-0.8993,-0.9236,-0.9574,-1.1025,-1.1583,-1.1025,-1.1363,-1.127,-1.0691,-1.0666,-1.094,-1.1545,-1.1664,-1.2063,-1.2589,-1.0755,-1.0844,-1.2383,-1.1767,-1.125,-1.1074,-1.2754,-1.2969,-1.2531,-1.5117,-1.6641,0.0,-1.75,-1.748,0.0,-1.6953,-1.5566,-1.388,-1.2617,-1.1421,-1.0444,-1.0444,-1.0775,-1.1182,0.0,0.0,0.0,-1.7195,-1.7798,-1.9044,-2.4943,0.0,0.0,0.0,0.0,0.0,0.0,0.0,0.0,0.0,0.0,0.0,0.0,0.0,0.0,0.0,0.0,0.0,0.0,0.0,0.0,0.0,0.0,-2.8476,-2.8906,-2.9355,-3.0,-3.0859,-3.0898,-3.0898,-3.0898,-3.1309,-3.1738,-3.2168,-3.2598,-3.3008,-3.3418,-3.3418,-3.3418,-3.3418,-3.3418,-3.3437,-3.3476,-3.3906,-3.4336,-3.4766,-3.5234,-3.5664,-3.6016,-3.6016,-3.6016,-3.6016,0.0,0.0,0.0,0.0,0.0,-1.0273,-1.0273,-1.0273,-1.0273,0.0,0.0,0.0,-0.9258,-0.918,-0.9258,-0.9398,-0.932,-0.9057,-0.8557,-0.8579,-0.8798,-0.9206,-0.9949,-1.0532,-1.1057,-1.081,-1.0587,-1.0394,-0.9684,-0.9619,-1.016,-1.0209,-1.0717,-1.1652,-1.0716,-1.0574,-1.102,-0.9798,-1.0116,-1.143,-1.1562,-1.2617,0.0,0.0,0.0,0.0,0.0,-1.9629,-1.8359,0.0,-1.6855,-1.3672,-1.112,-0.9887,-0.9338,-0.9338,-0.9883,-1.0532,-1.0637,0.0,0.0,0.0,0.0,0.0,0.0,0.0,0.0,0.0,0.0,0.0,0.0,0.0,0.0,0.0,0.0,0.0,0.0,0.0,0.0,0.0,0.0,0.0,0.0,0.0,0.0,0.0,-2.8301,-2.8662,-2.9361,-3.0152,-3.0644,-3.0879,-3.0898,-3.0898,-3.0898,-3.1309,-3.1738,-3.2168,-3.2598,-3.3008,-3.3418,-3.3418,-3.3418,-3.3418,-3.3418,-3.3594,-3.3926,-3.4355,-3.4785,-3.5234,-3.5684,-3.5918,-3.6016,-3.6016,-3.6016,-3.6016,0.0,0.0,-1.0332,-1.0508,-1.0547,-1.0605,-1.0822,-1.0664,-1.0605,0.0,0.0,0.0,-0.9844,-0.9805,-0.9902,-1.0098,-0.9807,-0.9355,-0.8691,-0.8301,-0.8228,-0.851,-0.9266,-0.9959,-1.0509,-1.0376,-1.0306,-1.0306,-0.9298,-0.8962,-0.9282,-0.9138,-0.9285,-0.973,-0.9256,-0.9159,-0.9315,-0.8278,-0.8965,-1.0859,-1.2051,0.0,0.0,-1.6035,-1.7344,0.0,0.0,0.0,-1.8652,-2.041,-1.8184,0.0,0.0,-1.0309,-0.9139,-0.8775,-0.9563,-1.0515,-1.0307,-1.1362,-1.2616,-1.3019,0.0,0.0,0.0,0.0,0.0,0.0,0.0,0.0,0.0,0.0,0.0,0.0,0.0,0.0,0.0,0.0,0.0,0.0,0.0,0.0,0.0,0.0,0.0,0.0,-2.8301,-2.8652,-2.9603,-3.041,-3.0898,-3.0898,-3.0898,-3.0898,-3.0898,-3.1484,-3.1914,-3.2168,-3.2773,-3.3184,-3.3418,-3.3418,-3.3418,-3.3437,-3.3613,-3.3945,-3.4375,-3.4805,-3.5156,-3.543,-3.5859,-3.6016,-3.6016,-3.6016,-3.6016,-3.6016,0.0,0.0,-1.0469,-1.084,-1.0957,-1.1113,-1.1547,-1.123,-1.1113,0.0,-1.09,-1.0527,-1.0996,-1.1016,-1.0996,-1.1055,-1.0235,-0.9534,-0.9102,-0.825,-0.7744,-0.7705,-0.8951,-0.9601,-0.9538,-0.9939,-1.0133,-1.0089,-0.9131,-0.869,-0.8668,-0.8354,-0.7983,-0.7546,-0.7223,-0.7305,-0.7608,-0.7363,-0.8281,-1.0157,-1.3262,-1.4043,0.0,0.0,-1.707,0.0,-1.9062,-1.918,-1.8984,-2.1562,-1.9531,0.0,0.0,-1.207,-0.9962,-0.8965,-0.9824,-1.1035,-1.0547,-1.1096,-1.2099,-1.347,-1.3563,0.0,0.0,0.0,0.0,0.0,0.0,0.0,0.0,0.0,0.0,0.0,0.0,0.0,0.0,0.0,0.0,0.0,0.0,0.0,0.0,0.0,-2.8301,-2.8301,-2.8398,-2.8777,-2.9598,-3.0412,-3.0898,-3.0898,-3.0898,-3.0898,-3.0898,-3.1738,-3.2168,-3.2187,-3.3027,-3.3418,-3.3418,-3.3418,-3.3418,-3.3437,-3.3887,-3.4316,-3.4726,-3.5195,-3.543,-3.5508,-3.5879,-3.6016,-3.6016,-3.6016,-3.6016,-3.6016,-1.0078,-1.0488,-1.082,-1.0898,-1.1191,-1.1508,-1.1587,-1.1528,-1.1508,-1.1587,-1.1113,-1.1094,-1.185,-1.1641,-1.1582,-1.1934,-1.1172,-1.0332,-0.9515,-0.8711,-0.8086,-0.7725,-0.86,-0.8961,-0.8656,-0.9061,-0.9094,-0.8783,-0.8208,-0.7918,-0.7918,-0.7831,-0.7585,-0.7197,-0.7136,-0.7148,-0.7266,-0.7871,-0.9512,-1.1733,-1.2414,0.0,-1.6641,-1.7812,-1.9141,-2.0488,-2.1504,-2.1992,-2.2148,0.0,-2.0684,-1.8516,0.0,-1.418,-1.334,-1.1074,-1.1406,-1.2324,-1.1567,-1.1998,-1.2626,-1.2569,-1.3634,0.0,0.0,0.0,0.0,0.0,0.0,0.0,0.0,0.0,0.0,0.0,0.0,0.0,0.0,0.0,0.0,0.0,0.0,0.0,0.0,0.0,-2.8301,-2.8301,-2.8991,-2.9385,-2.9629,-3.043,-3.0898,-3.0898,-3.0898,-3.0898,-3.0898,-3.1738,-3.2168,-3.2187,-3.3027,-3.3418,-3.3418,-3.3418,-3.3418,-3.3437,-3.3887,-3.4316,-3.4726,-3.5195,-3.5586,-3.5898,-3.5996,-3.6016,-3.6016,-3.6016,-3.6016,-3.6016,-1.0234,-1.0625,-1.0977,-1.1191,-1.1602,-1.1973,-1.2233,-1.2031,-1.2051,-1.248,-1.2344,-1.2207,-1.218,-1.2227,-1.2129,-1.1914,-1.1032,-1.0172,-0.9359,-0.8446,-0.7885,-0.7725,-0.834,-0.8691,-0.8691,-0.8691,-0.8691,-0.8691,-0.7832,-0.7422,-0.7402,-0.7141,-0.7305,-0.7715,-0.7051,-0.7177,-0.794,-0.779,-0.9079,-1.1299,-1.3053,0.0,-1.8144,-1.9434,-2.0469,-2.1367,-2.2461,-2.3398,-2.3926,-2.2637,-2.1328,0.0,-1.7461,-1.6113,-1.4961,-1.2598,-1.2812,-1.3555,-1.2246,-1.2383,-1.2871,-1.2871,-1.3432,0.0,0.0,0.0,0.0,0.0,0.0,0.0,0.0,0.0,0.0,0.0,0.0,0.0,0.0,0.0,0.0,0.0,0.0,0.0,0.0,0.0,-2.8301,-2.8301,-2.9075,-2.9637,-2.9634,-3.0469,-3.0898,-3.0898,-3.0898,-3.0996,-3.1211,-3.1836,-3.2266,-3.248,-3.3125,-3.3418,-3.3418,-3.3418,-3.3535,-3.3769,-3.4199,-3.4648,-3.5078,-3.5527,-3.584,-3.6016,-3.6016,-3.6016,-3.6016,-3.6016,-3.6016,-3.6016,-1.0273,-1.0625,-1.1016,-1.141,-1.1875,-1.2344,-1.2695,-1.252,-1.2637,-1.3418,-1.3574,-1.3316,-1.2597,-1.2922,-1.2871,-1.2052,-1.1154,-1.0232,-0.9338,-0.8423,-0.8034,-0.8284,-0.8348,-0.867,-0.9355,-0.873,-0.8496,-0.877,-0.7637,-0.7109,-0.709,-0.6719,-0.707,-0.7969,-0.7324,-0.7651,-0.8676,-0.8169,-0.9183,-1.1398,0.0,-1.6562,-1.8105,-2.0098,-2.1016,-2.1445,-2.3066,-2.4219,-2.4687,-2.3066,0.0,-2.043,-1.8984,-1.7734,0.0,-1.4043,-1.4277,-1.4883,-1.3036,-1.2969,-1.3398,-1.3477,-1.3437,-1.3633,0.0,0.0,0.0,0.0,0.0,0.0,0.0,0.0,0.0,0.0,0.0,0.0,0.0,0.0,0.0,0.0,0.0,0.0,0.0,0.0,-2.7773,-2.8027,-2.868,-2.9114,-2.9366,-3.0315,-3.0898,-3.0898,-3.0898,-3.1094,-3.1504,-3.1953,-3.2383,-3.2793,-3.3223,-3.3418,-3.3418,-3.3418,-3.3652,-3.4101,-3.4512,-3.4961,-3.543,-3.584,-3.6016,-3.6016,-3.6016,-3.6016,-3.6016,-3.6016,-3.6016,-3.6016,-1.0215,-1.0625,-1.0918,-1.0977,-1.168,-1.22,-1.2258,-1.2598,-1.2969,-1.3437,-1.3828,-1.3917,-1.3642,-1.4052,-1.4021,-1.3316,-1.2837,-1.1853,-1.0318,-0.9787,-0.9802,-1.041,-0.9039,-0.9004,-1.0664,-0.918,-0.8203,-0.7841,-0.7344,-0.7109,-0.7109,-0.7051,-0.6875,-0.6699,-0.8444,-0.895,-0.8567,-1.0332,-1.2539,0.0,-1.6072,-1.6035,0.0,-1.8418,-2.0234,-2.1602,-2.4434,-2.5039,-2.4277,0.0,-2.1914,-2.0801,0.0,-1.873,-1.8906,-1.5977,-1.6055,-1.6621,-1.4492,-1.4512,-1.4863,-1.3769,-1.4316,-1.4785,0.0,0.0,-1.3782,0.0,0.0,0.0,0.0,0.0,0.0,0.0,0.0,0.0,0.0,0.0,0.0,0.0,0.0,0.0,0.0,0.0,0.0,-2.707,-2.6934,-2.7285,-2.8418,-3.0019,-3.0898,-3.0898,-3.0898,-3.1094,-3.1504,-3.1953,-3.2383,-3.2793,-3.3223,-3.3418,-3.3418,-3.3418,-3.3652,-3.4101,-3.4512,-3.4961,-3.543,-3.584,-3.6016,-3.6016,-3.6016,-3.6016,-3.6016,-3.6016,-3.6016,-3.6016,-0.9713,-1.0449,-1.084,-1.0586,-1.127,-1.1836,-1.1836,-1.2852,-1.3574,-1.3516,-1.3867,-1.409,-1.4066,-1.3865,-1.3672,-1.3439,0.0,-1.1905,0.0,0.0,-1.0059,-0.9819,-0.9322,-0.917,-0.9557,-0.8814,-0.8164,-0.7705,-0.7031,-0.6562,-0.6328,-0.6328,-0.6895,-0.7969,-0.9087,-0.9966,-1.063,-1.1827,-1.2651,0.0,0.0,0.0,0.0,-1.9531,-2.1953,-2.332,-2.5098,-2.5176,-2.4414,0.0,-2.2988,0.0,0.0,0.0,0.0,-1.5978,-1.5638,-1.5551,-1.3849,-1.4354,-1.5156,-1.4121,0.0,0.0,-1.3516,0.0,-1.3086,0.0,0.0,0.0,0.0,0.0,0.0,0.0,0.0,0.0,0.0,0.0,0.0,0.0,0.0,0.0,0.0,0.0,0.0,0.0,0.0,-2.668,-2.8203,-2.9687,-3.0605,-3.0879,-3.1133,-3.1465,-3.1894,-3.2324,-3.2734,-3.3164,-3.334,-3.3418,-3.3418,-3.3418,-3.3789,-3.4453,-3.4629,-3.5098,-3.5762,-3.5937,-3.6016,-3.6016,-3.6016,-3.6016,-3.6016,-3.6016,-3.6016,-3.6016,-0.8744,-0.9696,-1.0331,-1.0156,-1.082,-1.1508,-1.1743,-1.3008,-1.3879,-1.3578,-1.4107,-1.4451,-1.4413,-1.3949,-1.3623,-1.3633,-1.2984,-1.2212,0.0,0.0,-1.068,-1.0409,-0.9787,0.0,-0.9504,-0.873,-0.8042,-0.7539,-0.69,-0.6504,-0.6309,-0.6191,-0.7031,-0.8691,-0.9707,-1.082,-1.2032,-1.3246,-1.3645,-1.3614,-1.5775,-1.6816,-1.7461,-2.0996,-2.3203,-2.4531,-2.543,-2.5176,-2.4453,-2.4746,-2.3113,0.0,-2.1872,0.0,-1.7499,0.0,-1.6139,-1.5443,-1.4374,0.0,0.0,0.0,0.0,0.0,0.0,0.0,0.0,0.0,0.0,0.0,0.0,0.0,-1.3841,-1.4221,0.0,0.0,0.0,0.0,0.0,0.0,0.0,0.0,0.0,0.0,0.0,0.0,0.0,0.0,-2.75,-2.9258,-3.0293,-3.0527,-3.1172,-3.1719,-3.2168,-3.2578,-3.3008,-3.3418,-3.3418,-3.3418,-3.3418,-3.3535,-3.4004,-3.4707,-3.4824,-3.5312,-3.6016,-3.6016,-3.6016,-3.6016,-3.6016,-3.6016,-3.6016,-3.6016,-3.6016,-3.6016,-0.7181,-0.8176,-0.9171,-0.9539,-1.0332,-1.1211,-1.2025,-1.2969,-1.3575,0.0,0.0,0.0,0.0,0.0,0.0,0.0,0.0,-1.3561,-1.2365,0.0,-1.2445,0.0,0.0,-0.987,0.0,-0.9325,-0.7717,-0.7118,-0.7073,-0.7285,-0.7627,-0.7246,-0.7305,-0.7841,-1.0391,-1.1562,-1.1811,-1.4746,-1.6934,-1.8414,-1.936,-2.1016,-2.2793,0.0,-2.2949,-2.4531,-2.543,0.0,0.0,-2.3027,-2.1663,0.0,0.0,0.0,0.0,0.0,0.0,0.0,0.0,0.0,0.0,-1.5578,0.0,0.0,0.0,0.0,-1.3867,0.0,0.0,0.0,-1.3555,-1.3477,-1.3547,-1.3547,-1.3959,0.0,0.0,0.0,0.0,0.0,0.0,0.0,0.0,0.0,0.0,0.0,0.0,0.0,-2.5703,-2.8594,-3.0019,-2.9629,-3.0859,-3.1719,-3.2168,-3.2578,-3.3008,-3.3418,-3.3418,-3.3418,-3.3437,-3.3867,-3.4297,-3.4726,-3.5176,-3.5605,-3.6016,-3.6016,-3.6016,-3.6016,-3.6016,-3.6016,-3.6016,-3.6016,-3.6016,-3.6016,-0.6118,-0.7129,-0.8031,-0.8344,-0.9022,-0.9753,-1.0426,-1.2364,0.0,0.0,0.0,0.0,0.0,0.0,-1.4194,0.0,0.0,-1.3828,-1.3227,-1.2981,0.0,0.0,0.0,-1.0347,0.0,0.0,-0.7746,-0.6579,-0.658,-0.6692,-0.6906,-0.6776,-0.7367,-0.8652,-1.0704,-1.2072,-1.3131,0.0,0.0,0.0,0.0,-2.104,-2.3164,0.0,0.0,-2.4438,-2.4406,-2.3777,0.0,-2.2256,-2.0686,-1.9206,-1.9886,-1.8577,-1.6798,-1.7085,-1.6773,0.0,0.0,0.0,-1.7004,-1.5289,0.0,0.0,0.0,0.0,0.0,0.0,0.0,0.0,-1.4434,-1.4355,-1.416,-1.3594,-1.3633,-1.3574,0.0,0.0,0.0,0.0,0.0,0.0,0.0,0.0,0.0,0.0,0.0,0.0,0.0,-2.8086,-2.9394,-3.041,-3.1426,-3.2012,-3.2168,-3.2871,-3.3281,-3.3418,-3.3418,-3.3418,-3.3437,-3.3867,-3.4297,-3.4726,-3.5195,-3.5625,-3.6016,-3.6016,-3.6016,-3.6016,-3.6016,-3.6016,-3.6016,-3.6016,-3.6016,-3.6152,-0.5652,-0.6518,-0.7367,-0.8051,-0.8747,-0.9313,-0.9653,0.0,0.0,0.0,-1.398,0.0,-1.4775,0.0,-1.3936,0.0,-1.4349,-1.4068,-1.3667,-1.3595,0.0,-1.2933,-1.2155,0.0,0.0,0.0,-0.853,-0.725,-0.6985,-0.6885,-0.7032,-0.6755,-0.732,-0.8579,-1.0191,-1.1542,-1.2774,-1.5889,-1.7543,0.0,0.0,-2.1123,0.0,0.0,-2.3336,-2.3185,0.0,-2.2763,-2.2253,-2.2045,-2.0764,-1.9346,-2.0364,-1.8855,-1.6866,-1.7372,-1.712,-1.6697,-1.6936,-1.74,0.0,-1.6173,-1.5539,0.0,-1.2803,0.0,-1.4321,0.0,0.0,0.0,0.0,-1.4514,-1.3955,-1.3773,-1.3623,-1.3359,0.0,-1.2891,0.0,0.0,0.0,0.0,0.0,0.0,0.0,0.0,0.0,0.0,0.0,0.0,-2.8359,-2.9473,-3.0644,-3.1387,-3.1719,-3.2559,-3.3125,-3.3418,-3.3418,-3.3418,-3.3437,-3.4023,-3.4434,-3.4726,-3.5351,-3.5762,-3.6016,-3.6016,-3.6016,-3.6016,-3.6016,-3.6016,-3.6016,-3.6016,-3.6016,-3.6287,-0.575,-0.635,-0.7263,-0.8517,-0.9354,0.0,0.0,0.0,-1.2759,0.0,-1.3726,-1.4568,-1.4402,-1.3931,-1.3741,-1.4295,-1.4348,0.0,-1.3556,-1.3948,0.0,0.0,-1.3253,-1.2849,-1.2849,0.0,0.0,0.0,-0.82,-0.7881,-0.7986,-0.7257,-0.7145,-0.7663,-0.9068,-1.0127,-1.1114,-1.4952,-1.7316,-1.8605,-2.0702,-2.1213,-2.0745,-2.1229,0.0,-2.1028,-2.1762,-2.2012,-2.2094,-2.2209,-2.1464,-2.0614,-2.1894,-2.052,-1.8698,-2.0085,-1.9566,-1.8604,-1.9055,-1.8542,-1.7949,-1.798,0.0,0.0,0.0,0.0,-1.6556,0.0,0.0,0.0,0.0,0.0,-1.2967,-1.3961,-1.3737,-1.334,-1.293,0.0,0.0,0.0,0.0,0.0,0.0,0.0,0.0,0.0,0.0,0.0,0.0,0.0,0.0,-2.7051,-2.8672,-2.998,-3.0879,-3.1719,-3.2559,-3.3418,-3.3418,-3.3437,-3.3476,-3.4316,-3.4707,-3.4785,-3.5644,-3.6016,-3.6016,-3.6016,-3.6016,-3.6016,-3.6016,-3.6016,-3.6016,-3.6016,-3.6016,-3.6287,-0.5646,-0.6814,-0.7944,-0.8105,-0.852,-0.8984,0.0,0.0,0.0,0.0,-1.3892,-1.4469,-1.2991,-1.2843,-1.258,-1.1827,-1.2719,0.0,0.0,0.0,0.0,-1.4402,-1.3561,-1.3093,-1.3093,-1.1411,0.0,-0.9506,-0.8207,-0.7673,-0.7891,-0.7167,-0.7142,-0.7786,-0.8795,-1.0114,-1.1776,-1.3887,-1.6207,-1.8593,-1.8798,-1.8891,0.0,0.0,-1.835,-1.8575,-2.0128,-2.0696,-2.0818,-1.9852,-1.9346,-1.9016,-1.9456,-1.903,-1.8601,-1.8919,-1.8861,-1.8771,-1.8945,-1.8632,-1.8235,-1.7521,-1.6745,-1.5749,0.0,0.0,0.0,0.0,0.0,0.0,0.0,0.0,0.0,-1.3164,-1.3002,-1.3008,-1.2891,0.0,0.0,0.0,0.0,0.0,0.0,0.0,0.0,0.0,0.0,0.0,0.0,0.0,0.0,-2.7441,-2.8535,-2.9668,-3.0879,-3.1426,-3.2266,-3.3418,-3.3418,-3.3594,-3.3926,-3.4453,-3.4883,-3.5234,-3.5781,-3.6016,-3.6016,-3.6016,-3.6016,-3.6016,-3.6016,-3.6016,-3.6016,-3.6016,-3.6016,-3.6403,-0.6232,-0.7373,-0.8301,-0.8145,0.0,0.0,-0.8644,0.0,0.0,-1.0935,-1.2593,0.0,-1.1712,-1.1783,-1.1901,-1.1811,-1.2118,0.0,0.0,0.0,0.0,-1.3799,-1.3473,-1.3347,-1.3473,-1.2634,0.0,-1.004,0.0,-0.8106,-0.7887,-0.6976,-0.6731,-0.7139,-0.8322,-0.9315,-1.0302,-1.2704,-1.5019,-1.7175,-1.7272,0.0,0.0,-1.7626,-1.7803,-1.822,-1.924,-1.9718,-1.9667,-1.905,-1.8878,-1.8878,-1.8878,-1.8878,-1.8878,-1.8878,-1.8985,-1.9118,-1.9118,-1.8998,-1.8758,-1.825,-1.7742,-1.7114,-1.6086,-1.6728,-1.7413,0.0,0.0,0.0,0.0,0.0,0.0,-1.282,-1.2757,0.0,0.0,0.0,0.0,0.0,0.0,0.0,0.0,0.0,0.0,0.0,0.0,0.0,0.0,0.0,0.0,-2.7031,-2.793,-2.9004,-3.0293,-3.0723,-3.1406,-3.2324,-3.2695,-3.3105,-3.3535,-3.4336,-3.4961,-3.541,-3.584,-3.6016,-3.6016,-3.6016,-3.6016,-3.6016,-3.6016,-3.6016,-3.6016,-3.6016,-3.6016,-3.6403,-0.707,-0.7747,-0.8276,-0.8417,0.0,0.0,0.0,-0.9049,0.0,-0.9296,0.0,-1.1532,-1.0522,-1.07,-1.1313,-1.2232,0.0,-1.1558,-1.2137,-1.1786,-1.1921,-1.2803,-1.3217,-1.3637,-1.3872,-1.4078,0.0,0.0,0.0,-0.8818,-0.7862,-0.676,-0.6209,-0.6206,-0.7685,-0.8361,-0.8552,-1.1877,-1.403,-1.5359,-1.6334,-1.6914,-1.7221,-1.7903,-1.8477,-1.8931,-1.8971,-1.8985,-1.9025,-1.9279,-1.9372,-1.9372,-1.9372,-1.9372,-1.9372,-1.9372,-1.9372,-1.9372,-1.9372,-1.9372,-1.9372,-1.9372,-1.9372,-1.9092,-1.805,-1.8448,-1.8858,-1.8022,-1.7204,-1.7013,0.0,0.0,0.0,0.0,0.0,0.0,0.0,0.0,0.0,0.0,0.0,0.0,0.0,0.0,0.0,0.0,0.0,0.0,0.0,0.0,0.0,-2.625,-2.7129,0.0,-2.9473,0.0,-3.0351,-3.082,-3.1719,-3.2383,-3.2832,-3.4121,-3.4961,-3.541,-3.584,-3.6016,-3.6016,-3.6016,-3.6016,-3.6016,-3.6016,-3.6016,-3.6016,-3.6016,-3.6016,-3.6287,-0.7332,-0.7392,-0.777,-0.858,0.0,-0.6948,-0.7855,-0.8971,-0.9837,-1.0154,-1.0676,0.0,-0.9592,-0.9724,-0.9482,-0.8814,-0.9639,0.0,0.0,0.0,0.0,-1.1734,-1.3093,-1.3825,-1.3872,-1.427,-1.3904,0.0,0.0,-0.9272,-0.7862,-0.6961,-0.6253,-0.5838,-0.7086,-0.8815,-1.0929,-1.2786,0.0,-1.5123,-1.6531,-1.7101,-1.7275,-1.8357,-1.8838,-1.8958,-1.9199,-1.9292,-1.9292,-1.9345,-1.9372,-1.9372,-1.9372,-1.9372,-1.9372,-1.9372,-1.9372,-1.9372,-1.9372,-1.9372,-1.9372,-1.9372,-1.9372,-1.9319,-1.9105,-1.9166,-1.928,-1.9166,-1.8534,-1.7901,-1.7128,0.0,0.0,0.0,0.0,0.0,0.0,0.0,0.0,0.0,0.0,0.0,0.0,0.0,0.0,0.0,0.0,0.0,0.0,0.0,0.0,0.0,0.0,0.0,0.0,0.0,-2.9902,-3.0332,-3.1582,-3.2383,-3.2832,-3.4121,-3.4961,-3.541,-3.584,-3.6016,-3.6016,-3.6016,-3.6016,-3.6016,-3.6016,-3.6016,-3.6016,-3.6016,-3.6016,-3.6287,-0.7845,0.0,0.0,0.0,0.0,0.0,0.0,-0.8263,0.0,-0.8703,-0.94,-0.9526,-0.8512,-0.8557,-0.8803,-0.8893,-0.897,-0.9182,-0.9681,-0.9853,-1.0147,-1.0729,-1.1492,0.0,-1.1843,-1.2664,-1.2549,-1.1362,0.0,-0.9444,-0.8377,-0.7789,-0.6947,-0.6012,-0.7495,-0.9299,-1.1303,0.0,0.0,-1.5511,-1.6687,-1.7515,-1.813,-1.8704,-1.9025,-1.9172,-1.9319,-1.9372,-1.9372,-1.9372,-1.9372,-1.9372,-1.9372,-1.9372,-1.9372,-1.9372,-1.9372,-1.9372,-1.9372,-1.9372,-1.9372,-1.9372,-1.9372,-1.9372,-1.9372,-1.9372,-1.9372,-1.9372,-1.9145,-1.8584,-1.7382,-1.6261,0.0,0.0,0.0,0.0,0.0,0.0,0.0,0.0,0.0,0.0,0.0,0.0,0.0,0.0,0.0,0.0,0.0,0.0,0.0,0.0,0.0,0.0,0.0,0.0,0.0,-3.0215,-3.1543,-3.25,-3.3164,-3.4219,-3.5078,-3.5723,-3.5937,-3.6016,-3.6016,-3.6016,-3.6016,-3.6016,-3.6016,-3.6016,-3.6016,-3.6016,-3.6016,-3.6152,-0.7982,-0.8707,0.0,0.0,-0.8163,0.0,-0.7861,-0.7658,-0.7421,-0.7299,-0.8129,-0.8494,-0.778,-0.7902,-0.8428,-0.9509,-0.8627,-0.8428,-0.9509,-0.8627,-0.8428,-0.9509,-0.9838,-1.0053,-1.0053,-1.1373,-1.1397,0.0,0.0,0.0,-0.8635,-0.8567,-0.807,-0.7285,0.0,0.0,0.0,0.0,-1.4883,-1.6192,-1.7141,-1.809,-1.8931,-1.8998,-1.9158,-1.9372,-1.9372,-1.9372,-1.9372,-1.9372,-1.9372,-1.9372,-1.9372,-1.9372,-1.9372,-1.9372,-1.9372,-1.9372,-1.9372,-1.9372,-1.9372,-1.9372,-1.9372,-1.9372,-1.9372,-1.9372,-1.9372,-1.9372,-1.9372,-1.8998,-1.7809,-1.7145,0.0,0.0,0.0,0.0,0.0,0.0,0.0,0.0,0.0,0.0,0.0,0.0,0.0,0.0,0.0,0.0,0.0,0.0,0.0,0.0,0.0,-2.7305,-2.8496,0.0,-2.9726,0.0,-3.1504,-3.2559,-3.332,-3.4277,-3.5137,-3.5898,-3.5976,-3.6016,-3.6016,-3.6016,-3.6016,-3.6016,-3.6016,-3.6016,-3.6016,-3.6016,-3.6016,-3.6035,0.0,0.0,0.0,0.0,0.0,0.0,0.0,-0.775,-0.7767,-0.7746,-0.787,-0.7938,-0.7984,-0.8024,-0.8038,-0.8137,-0.8038,-0.8038,-0.8137,-0.8038,-0.8038,-0.8137,-0.9453,-1.0138,-1.0138,-1.1624,-1.1905,0.0,0.0,0.0,0.0,-0.8783,-0.9659,0.0,0.0,0.0,0.0,-1.5217,-1.6166,-1.7128,-1.829,-1.8824,-1.8958,-1.9225,-1.9345,-1.9372,-1.9372,-1.9372,-1.9372,-1.9372,-1.9372,-1.9372,-1.9372,-1.9372,-1.9372,-1.9372,-1.9372,-1.9372,-1.9372,-1.9372,-1.9372,-1.9372,-1.9372,-1.9372,-1.9372,-1.9372,-1.9372,-1.9372,-1.9372,-1.8998,-1.7809,-1.844,-1.8851,0.0,0.0,0.0,0.0,0.0,-1.6937,-1.9633,0.0,0.0,0.0,0.0,0.0,0.0,-1.7618,0.0,0.0,0.0,0.0,-2.4473,0.0,-2.6289,-2.7187,-2.8769,0.0,-2.9648,-3.1348,-3.2402,-3.2891,-3.4141,-3.498,-3.5469,-3.5859,-3.6016,-3.6016,-3.6016,-3.6016,-3.6016,-3.6016,-3.6016,-3.6016,-3.6016,-3.6016,-3.6074,0.0,0.0,0.0,0.0,0.0,0.0,0.0,-0.7806,-0.7841,-0.7936,-0.795,-0.797,-0.8031,-0.8038,-0.8038,-0.8038,-0.8038,-0.8038,-0.8038,-0.8126,-0.818,-0.818,-0.8823,-0.9205,-0.9205,-0.9792,-1.0128,0.0,0.0,0.0,0.0,-0.9236,0.0,0.0,0.0,-1.3774,-1.511,-1.6166,-1.7141,-1.8009,-1.8664,-1.9025,-1.9199,-1.9319,-1.9372,-1.9372,-1.9372,-1.9372,-1.9372,-1.9372,-1.9372,-1.9372,-1.9372,-1.9372,-1.9372,-1.9372,-1.9372,-1.9372,-1.9372,-1.9372,-1.9372,-1.9372,-1.9372,-1.9372,-1.9372,-1.9372,-1.9372,-1.9372,-1.9372,-1.9225,-1.8744,-1.845,-1.836,0.0,0.0,0.0,0.0,0.0,0.0,-1.8571,0.0,-1.7348,0.0,0.0,0.0,0.0,0.0,0.0,0.0,0.0,0.0,-2.2852,0.0,-2.6269,-2.7402,-2.8848,-3.0215,-3.1523,-3.2461,-3.3281,-3.3965,-3.4473,-3.5098,-3.5781,-3.5937,-3.6016,-3.6016,-3.6016,-3.6016,-3.6016,-3.6016,-3.6016,-3.6016,-3.6016,-3.6191,-3.6465,-0.7423,0.0,-0.8429,0.0,-0.7861,-0.7952,-0.7842,-0.7848,-0.7916,-0.8024,-0.8038,-0.8038,-0.8038,-0.8038,-0.8038,-0.8038,-0.8038,-0.8058,-0.8106,-0.8208,-0.8289,-0.833,-0.8472,0.0,-0.8547,-0.8594,-0.8822,-0.9415,-0.8973,0.0,0.0,-0.9809,0.0,0.0,-1.4442,-1.5271,-1.6233,-1.7154,-1.7956,-1.8637,-1.8931,-1.9185,-1.9372,-1.9372,-1.9372,-1.9372,-1.9372,-1.9372,-1.9372,-1.9372,-1.9372,-1.9372,-1.9372,-1.9372,-1.9372,-1.9372,-1.9372,-1.9372,-1.9372,-1.9372,-1.9372,-1.9372,-1.9372,-1.9372,-1.9372,-1.9372,-1.9372,-1.9372,-1.9372,-1.9372,-1.9372,-1.8677,-1.817,-1.833,0.0,0.0,0.0,0.0,0.0,0.0,-1.7177,0.0,0.0,0.0,0.0,0.0,0.0,0.0,0.0,0.0,0.0,0.0,0.0,0.0,0.0,-2.8809,-3.0527,-3.2422,-3.3105,-3.3867,-3.4707,-3.4961,-3.543,-3.6016,-3.6016,-3.6016,-3.6016,-3.6016,-3.6016,-3.6016,-3.6016,-3.6016,-3.6016,-3.6016,-3.6289,-3.6738,-0.7326,-0.7451,-0.7499,-0.7563,-0.7706,-0.7801,-0.7807,-0.7936,-0.8038,-0.8038,-0.8038,-0.8038,-0.8038,-0.8038,-0.8038,-0.8038,-0.8038,-0.8106,-0.8255,-0.8269,-0.833,0.0,0.0,-0.871,-0.871,-0.8859,-0.8933,-0.8927,0.0,0.0,-0.8567,-1.0565,-1.3197,-1.6233,-1.6246,-1.6901,-1.8036,-1.8343,-1.8651,-1.8945,-1.9239,-1.9359,-1.9372,-1.9372,-1.9372,-1.9372,-1.9372,-1.9372,-1.9372,-1.9372,-1.9372,-1.9372,-1.9372,-1.9372,-1.9372,-1.9372,-1.9372,-1.9372,-1.9372,-1.9372,-1.9372,-1.9372,-1.9372,-1.9372,-1.9372,-1.9372,-1.9372,-1.9372,-1.9372,-1.9372,-1.9372,-1.9359,-1.9065,-1.8196,0.0,0.0,0.0,0.0,0.0,-1.646,0.0,0.0,0.0,0.0,0.0,0.0,0.0,0.0,0.0,0.0,0.0,-2.3105,-2.3984,0.0,-2.6387,-2.8516,-3.0234,-3.1543,-3.2812,-3.3867,-3.4726,-3.5605,-3.6016,-3.6016,-3.6016,-3.6016,-3.6016,-3.6016,-3.6016,-3.6016,-3.6016,-3.6016,-3.6016,-3.6016,-3.6289,-3.6738,-0.7516,-0.7604,-0.7685,-0.7733,-0.7868,-0.797,-0.797,-0.8011,-0.8038,-0.8038,-0.8038,-0.8079,-0.8187,-0.8201,-0.8201,0.0,-0.8289,-0.8364,0.0,-0.8513,-0.8587,-0.8635,-0.8784,-0.8866,-0.8866,-0.8913,-0.894,-0.894,0.0,0.0,0.0,-1.0537,-1.212,-1.5169,-1.4664,-1.4645,-1.4966,-1.5366,-1.6275,-1.731,-1.7579,-1.8402,-1.9372,-1.9372,-1.9372,-1.9372,-1.9372,-1.9372,-1.9372,-1.9372,-1.9372,-1.9372,-1.9372,-1.9372,-1.9372,-1.9372,-1.9372,-1.9372,-1.9372,-1.9372,-1.9372,-1.9372,-1.9372,-1.9372,-1.9372,-1.9372,-1.9372,-1.9372,-1.9372,-1.9372,-1.9372,-1.9372,-1.9279,-1.8998,-1.9185,0.0,0.0,0.0,-1.8156,-1.7275,-1.7123,0.0,0.0,0.0,0.0,0.0,0.0,0.0,0.0,0.0,0.0,0.0,-2.4414,0.0,-2.6797,-2.8652,-3.0371,-3.1973,-3.2949,-3.3867,-3.4726,-3.5625,-3.6016,-3.6016,-3.6016,-3.6016,-3.6016,-3.6016,-3.6016,-3.6016,-3.6016,-3.6016,-3.6016,-3.6016,-3.6484,-3.7109,-0.778,-0.7848,-0.7909,-0.7896,-0.7977,-0.8038,-0.8038,-0.8045,-0.8052,-0.8038,-0.8092,-0.8167,-0.8262,-0.837,0.0,-0.8357,-0.8431,-0.8506,-0.8567,-0.8655,-0.8737,-0.8791,-0.8886,-0.894,-0.894,0.0,0.0,-0.894,-0.8662,-0.9553,-1.1435,-1.0733,-1.1782,-1.4162,-1.3744,-1.3588,-1.3748,-1.4134,-1.5119,-1.6738,-1.6903,-1.7923,-1.9372,-1.9372,-1.9372,-1.9372,-1.9372,-1.9372,-1.9372,-1.9372,-1.9372,-1.9372,-1.9372,-1.9372,-1.9372,-1.9372,-1.9372,-1.9372,-1.9372,-1.9372,-1.9372,-1.9372,-1.9372,-1.9372,-1.9372,-1.9372,-1.9372,-1.9372,-1.9372,-1.9372,-1.9372,-1.9372,-1.9372,-1.9372,-1.9372,-1.9372,-1.9372,0.0,-1.8143,0.0,0.0,0.0,0.0,-1.8221,0.0,0.0,0.0,0.0,0.0,0.0,0.0,-2.4414,-2.6055,0.0,-2.7969,-2.9531,-3.0937,-3.2187,-3.334,-3.4277,-3.498,-3.5684,-3.6016,-3.6016,-3.6016,-3.6016,-3.6016,-3.6016,-3.6016,-3.6016,-3.6016,-3.6016,-3.6035,-3.6211,-3.6699,-3.7324,-0.7772,-0.7872,0.0,0.0,-0.8038,0.0,-0.8038,-0.7959,-0.7972,-0.7852,-0.8086,-0.8289,-0.8303,-0.8547,-0.8655,-0.8526,0.0,0.0,0.0,-0.8723,-0.8791,-0.8933,-0.894,-0.894,-0.894,-0.894,-0.894,-0.894,-0.8947,-0.9713,-1.1126,-1.1025,-1.1788,-1.3406,-1.3315,-1.3419,-1.3907,-1.3917,-1.4982,-1.6844,-1.6727,-1.7806,-1.9372,-1.9243,-1.9243,-1.9372,-1.9372,-1.9372,-1.9372,-1.9372,-1.9372,-1.9372,-1.9372,-1.9372,-1.9372,-1.9372,-1.9372,-1.9372,-1.9372,-1.9372,-1.9372,-1.9372,-1.9372,-1.9372,-1.9372,-1.9372,-1.9372,-1.9372,-1.9372,-1.9372,-1.9372,-1.9372,-1.9372,-1.9372,-1.9372,-1.9372,-1.9372,0.0,-1.7983,0.0,0.0,0.0,0.0,-1.8612,-2.0945,0.0,0.0,0.0,0.0,0.0,-2.4785,-2.7617,-2.8496,-2.9121,-2.957,-3.0859,-3.1777,-3.2324,-3.3926,-3.4941,-3.541,-3.582,-3.6016,-3.6016,-3.6016,-3.6016,-3.6016,-3.6016,-3.6016,-3.6016,-3.6016,-3.6016,-3.6074,-3.6504,-3.6934,-3.7363,0.0,0.0,-0.7979,-0.7965,-0.7965,-0.7965,-0.7965,-0.7972,-0.7598,-0.6444,-0.7425,-0.837,-0.8581,-0.8669,-0.8743,-0.8825,-0.8832,-0.8845,-0.8879,-0.8886,-0.8899,-0.894,-0.894,-0.894,-0.894,-0.894,-0.894,-0.894,-0.9049,-0.9876,-1.1201,-1.0228,-1.0539,-1.1933,-1.0941,-1.059,-1.0665,-1.0786,-1.2525,-1.5074,-1.3885,-1.5784,-1.9243,-1.804,-1.8286,-1.9372,-1.9372,-1.9372,-1.9372,-1.9372,-1.9372,-1.9372,-1.9372,-1.9372,-1.9372,-1.9372,-1.9372,-1.9372,-1.9372,-1.9372,-1.9372,-1.9372,-1.9372,-1.9372,-1.9372,-1.9372,-1.9372,-1.9372,-1.9372,-1.9372,-1.9372,-1.9372,-1.9372,-1.9372,-1.9372,-1.9372,-1.9372,-1.8865,0.0,0.0,-1.8156,-1.8237,-1.8103,-2.1539,-2.3508,0.0,0.0,0.0,0.0,-2.7402,-2.7402,-2.8125,-2.8652,-2.9121,-2.957,-3.0859,-3.2226,-3.3633,-3.4355,-3.4941,-3.541,-3.582,-3.6016,-3.6016,-3.6016,-3.6016,-3.6016,-3.6016,-3.6016,-3.6016,-3.6016,-3.6016,-3.6074,-3.6504,-3.6934,-3.7363,-0.221,-0.3316,-0.473,-0.5937,-0.716,-0.7979,-0.7979,-0.8046,-0.7286,-0.5154,-0.7038,-0.8567,-0.8602,-0.8777,-0.8845,-0.8933,-0.894,-0.894,-0.894,-0.894,-0.894,-0.894,-0.894,-0.894,-0.894,-0.894,-0.8974,-0.9035,-0.9184,-0.971,-1.0379,-0.968,-0.9881,-1.0638,-0.9919,-0.9646,-0.9713,-0.9788,-1.1261,-1.3407,-1.2569,-1.4589,-1.8169,-1.7325,-1.804,-1.9372,-1.9372,-1.9372,-1.9372,-1.9372,-1.9372,-1.9372,-1.9372,-1.9372,-1.9372,-1.9372,-1.9372,-1.9372,-1.9372,-1.9372,-1.9372,-1.9372,-1.9372,-1.9372,-1.9372,-1.9372,-1.9372,-1.9372,-1.9372,-1.9372,-1.9372,-1.9372,-1.9372,-1.9372,-1.9372,-1.9372,-1.9372,-1.8865,0.0,-1.8677,-1.8824,-1.8971,-1.9118,-2.2659,-2.4664,-2.3957,0.0,0.0,-2.916,-2.9551,-2.9766,-2.9766,-3.0176,-3.0605,-3.1035,-3.1934,-3.3047,-3.4355,-3.459,-3.5039,-3.5684,-3.5918,-3.6016,-3.6016,-3.6016,-3.6016,-3.6016,-3.6016,-3.6016,-3.6016,-3.6016,-3.6016,-3.6094,-3.6719,-3.7109,-3.7383,0.0,0.0,-0.0704,-0.3012,-0.5244,-0.7101,-0.7925,-0.7962,-0.69,-0.3748,-0.6221,-0.8336,-0.8669,-0.8763,-0.894,-0.894,-0.894,-0.894,-0.894,-0.894,-0.894,-0.894,-0.894,-0.8947,-0.8974,-0.8994,-0.9062,-0.9191,-0.934,-0.9415,-0.9415,-0.9435,-0.9517,-0.9639,-0.9639,-0.9707,-0.9822,-0.9822,-1.0778,-1.2217,-1.1976,-1.3875,-1.6962,-1.6492,-1.7572,-1.9372,-1.9127,-1.9243,-1.9372,-1.9372,-1.9372,-1.9372,-1.9372,-1.9372,-1.9372,-1.9372,-1.9372,-1.9372,-1.9372,-1.9372,-1.9372,-1.9372,-1.9372,-1.9372,-1.9372,-1.9372,-1.9372,-1.9372,-1.9399,-1.9439,-1.9439,-1.9466,-1.9466,-1.9386,-1.9332,-1.9319,-1.9359,0.0,-1.8691,-1.9078,-1.9158,-1.9292,-1.9546,-2.2951,-2.506,-2.506,-2.8302,-3.0293,0.0,-3.1074,-3.1543,-3.1621,-3.2031,-3.2461,-3.2891,-3.3301,-3.3926,-3.4707,-3.4766,-3.5234,-3.6016,-3.6016,-3.6016,-3.6016,-3.6016,-3.6016,-3.6016,-3.6016,-3.6016,-3.6016,-3.6016,-3.6016,-3.6133,-3.6992,-3.7305,-3.7422,0.0,0.0,-0.0101,-0.0503,-0.0916,-0.2783,-0.7261,-0.802,-0.6201,-0.1296,-0.3257,-0.6141,-0.8589,-0.883,-0.894,-0.894,-0.894,-0.894,-0.894,-0.894,-0.894,-0.894,-0.894,-0.8994,-0.9117,-0.9245,-0.932,-0.9347,-0.9496,-0.9571,-0.9578,-0.9693,-0.9768,-0.9788,-0.9788,-0.9802,-0.9822,-0.9822,-1.0778,-1.2097,-1.0778,-1.2919,-1.6727,-1.3994,-1.5666,-1.9243,-1.7806,-1.8286,-1.9372,-1.9372,-1.9372,-1.9372,-1.9372,-1.9372,-1.9372,-1.9372,-1.9372,-1.9372,-1.9372,-1.9372,-1.9372,-1.9372,-1.9372,-1.9372,-1.9372,-1.9372,-1.9372,-1.9372,-1.9559,-1.9733,-1.9733,-1.9933,-1.9933,-1.9452,-1.9158,-1.9078,-1.9332,0.0,-1.9145,-1.9933,-2.0254,-2.0428,-2.0468,-2.3779,-2.5803,-2.5803,-2.891,-3.0781,-3.0781,-3.125,-3.168,-3.2051,-3.248,-3.2891,-3.332,-3.375,-3.4219,-3.4707,-3.5098,-3.5547,-3.6016,-3.6016,-3.6016,-3.6016,-3.6016,-3.6016,-3.6016,-3.6016,-3.6016,-3.6016,-3.6016,-3.6016,-3.6133,-3.6992,-3.7305,-3.7422,0.0,0.0,0.0,0.0,0.0,-0.0829,-0.3322,-0.3722,-0.2819,-0.0328,-0.1209,-0.3766,-0.8412,-0.8863,-0.8954,-0.894,-0.894,-0.894,-0.894,-0.894,-0.8974,-0.9049,-0.9055,-0.9123,-0.9273,-0.9422,-0.9503,-0.9503,-0.9652,-0.9727,-0.9727,-0.9788,-0.9822,-0.9822,-0.9822,-0.9822,-0.9822,-0.9822,-1.0179,-1.0899,-1.0058,-1.1615,-1.4232,-1.2808,-1.4708,-1.804,-1.7325,-1.804,-1.9372,-1.9372,-1.9372,-1.9372,-1.9372,-1.9372,-1.9372,-1.9372,-1.9372,-1.9372,-1.9372,-1.9372,-1.9372,-1.9372,-1.9372,-1.9412,-1.9559,-1.9599,-1.9639,-1.98,-1.9947,-2.004,-2.004,-2.0147,-2.0147,-1.988,-1.972,0.0,0.0,-1.972,-1.984,-2.0401,-2.0588,-2.0735,-2.0895,-2.3222,-2.5024,-2.5984,-2.8505,-3.0363,-3.123,-3.1855,-3.2305,-3.25,-3.291,-3.3223,-3.3418,-3.3848,-3.4277,-3.4707,-3.5176,-3.5605,-3.6016,-3.6016,-3.6016,-3.6016,-3.6016,-3.6016,-3.6016,-3.6016,-3.6016,-3.6016,-3.6016,-3.6152,-3.6445,-3.707,-3.7441,-3.7734,0.0,0.0,0.0,0.0,0.0,0.0,0.0,0.0,0.0,0.0,0.0,-0.1787,-0.6279,-0.8078,-0.8856,-0.8947,-0.8974,-0.8988,-0.8988,-0.9022,-0.9076,-0.915,-0.9218,-0.9313,-0.9435,-0.9585,-0.9659,-0.9659,-0.9768,-0.9822,-0.9822,-0.9822,-0.9822,-0.9822,-0.9822,-0.9822,-0.9822,-0.9822,-0.9822,-0.9822,-0.9822,-1.0778,-1.2217,-1.1736,-1.3636,-1.6492,-1.6492,-1.7443,-1.8881,-1.9243,-1.9372,-1.9372,-1.9372,-1.9372,-1.9372,-1.9372,-1.9372,-1.9372,-1.9372,-1.9372,-1.9372,-1.9372,-1.9412,-1.9533,-1.9746,-1.9853,-1.996,-2.0187,-2.0294,-2.0334,-2.0334,-2.0388,-2.0388,-2.0254,0.0,0.0,0.0,-2.0174,-2.0294,-2.0722,-2.0775,-2.0869,-2.1082,-2.2591,-2.4332,-2.5978,-2.7974,-2.9804,-3.154,-3.2383,-3.2832,-3.293,-3.3242,-3.3476,-3.3574,-3.4004,-3.4434,-3.4863,-3.5312,-3.5703,-3.6016,-3.6016,-3.6016,-3.6016,-3.6016,-3.6016,-3.6016,-3.6016,-3.6016,-3.6035,-3.6133,-3.6367,-3.6738,-3.7246,-3.7637,-3.7988,0.0,0.0,0.0,0.0,0.0,0.0,0.0,0.0,0.0,0.0,0.0,-0.0112,-0.0559,-0.5588,-0.8863,-0.8863,-0.9069,-0.9137,-0.9137,-0.9273,-0.9293,-0.9157,-0.9422,-0.9585,-0.9591,-0.9734,-0.9802,-0.9802,-0.9815,-0.9822,-0.9822,-0.9822,-0.9822,-0.9822,-0.9822,-0.9822,-0.9822,-0.9822,-0.9822,-0.9822,-0.9822,-1.0778,-1.2097,-1.0536,-1.1976,-1.4718,-1.4718,-1.5784,-1.7443,-1.8881,-1.9372,-1.9372,-1.9372,-1.9372,-1.9372,-1.9372,-1.9372,-1.9372,-1.9372,-1.9372,-1.9372,-1.9372,-1.9573,-1.9773,-1.98,-2.0013,-2.0214,-2.0227,-2.0454,-2.0641,-2.0641,-2.0869,-2.0869,-2.0321,0.0,0.0,-2.0201,-2.0,-2.0147,-2.0975,-2.1082,-2.1082,-2.1109,-2.2591,-2.444,-2.6356,-2.8132,-2.9934,-3.209,-3.2559,-3.2969,-3.3359,-3.3398,-3.3613,-3.4023,-3.4434,-3.4883,-3.5351,-3.5762,-3.5996,-3.6016,-3.6016,-3.6016,-3.6016,-3.6016,-3.6016,-3.6016,-3.6016,-3.6016,-3.6055,-3.6465,-3.6641,-3.6758,-3.7578,-3.7891,-3.7988,0.0,0.0,0.0,0.0,0.0,0.0,0.0,0.0,0.0,0.0,0.0,0.0,0.0,-0.3684,-0.6969,-0.8871,-0.9137,-0.9191,-0.9286,-0.9435,-0.9496,-0.9442,-0.9632,-0.9741,-0.9741,-0.9795,-0.9822,-0.9822,-0.9822,-0.9822,-0.9822,-0.9822,-0.9822,-0.9822,-0.9822,-0.9822,-0.9822,-0.9822,-0.9822,-0.9822,-0.9822,-1.0179,-1.0657,-1.0058,-1.114,-1.3168,-1.3168,-1.4123,-1.5784,-1.7325,-1.7923,-1.8052,-1.9127,-1.8765,-1.7923,-1.7923,-1.8764,-1.9639,-1.9639,-1.9639,-1.9639,-1.9639,-1.9853,-2.012,-2.0294,-2.0428,-2.0561,-2.0735,-2.0869,-2.0949,-2.0949,-2.1029,-2.1029,-2.0815,0.0,-2.0655,-2.0762,-2.0681,-2.0735,-2.1069,-2.1109,-2.1189,-2.1363,-2.2016,-2.3134,-2.5088,-2.709,-2.9045,-3.0872,-3.2431,-3.3262,-3.3418,-3.3691,-3.3906,-3.4082,-3.4785,-3.5215,-3.5391,-3.582,-3.6016,-3.6016,-3.6016,-3.6016,-3.6016,-3.6016,-3.6016,-3.6016,-3.6016,-3.6016,-3.6055,-3.6504,-3.6836,-3.7129,-3.7715,-3.8086,-3.8359,0.0,0.0,0.0,0.0,0.0,0.0,0.0,0.0,0.0,0.0,0.0,-0.0672,-0.2573,-0.393,-0.5886,-0.8944,-0.9252,-0.934,-0.9449,-0.9591,-0.968,-0.968,-0.9768,-0.9822,-0.9822,-0.9822,-0.9822,-0.9822,-0.9822,-0.9822,-0.9822,-0.9822,-0.9822,-0.9822,-0.9822,-0.9822,-0.9822,-0.9822,-0.9822,-0.9822,-0.9822,-0.9822,-0.9822,-0.9822,-1.0543,-1.1495,-1.1976,-1.2928,-1.4123,-1.5666,-1.6256,-1.6492,-1.7572,-1.7455,-1.7103,-1.7669,-1.8788,-1.9826,-1.9907,-2.0,-2.0054,-1.996,-2.016,-2.0428,-2.0628,-2.0748,-2.0869,-2.1069,-2.1109,-2.1109,-2.1109,-2.1109,-2.1109,-2.1109,-2.1109,-2.1109,-2.1109,-2.1109,-2.1149,-2.1243,-2.1256,-2.1363,-2.1657,-2.1697,-2.2572,-2.4405,-2.6064,-2.7927,-3.0247,-3.234,-3.3496,-3.3633,-3.4043,-3.4336,-3.4492,-3.5098,-3.5469,-3.5586,-3.5879,-3.6016,-3.6016,-3.6016,-3.6016,-3.6016,-3.6016,-3.6016,-3.6016,-3.6016,-3.6094,-3.6269,-3.6699,-3.7129,-3.7539,-3.7969,-3.832,-3.8574,0.0,0.0,0.0,0.0,0.0,0.0,0.0,0.0,0.0,0.0,0.0,-0.2242,-0.8227,-0.6483,-0.607,-0.8957,-0.9449,-0.9612,-0.9612,-0.9741,-0.9822,-0.9822,-0.9822,-0.9822,-0.9822,-0.9822,-0.9822,-0.9822,-0.9822,-0.9822,-0.9822,-0.9822,-0.9822,-0.9822,-0.9822,-0.9822,-0.9822,-0.9822,-0.9822,-0.9822,-0.9822,-0.9822,-0.9822,-0.9822,-0.9822,-1.0065,-1.1615,-1.2217,-1.2457,-1.4004,-1.4599,-1.4609,-1.4609,-1.5666,-1.7373,-1.9233,-1.98,-1.9867,-2.016,-2.0454,-2.0615,-2.0307,-2.0454,-2.0681,-2.0681,-2.0909,-2.1109,-2.1109,-2.1109,-2.1109,-2.1109,-2.1109,-2.1109,-2.1109,-2.1109,-2.1109,-2.1109,-2.1109,-2.1229,-2.1523,-2.155,-2.167,-2.1964,-2.1991,-2.289,-2.4877,-2.5171,-2.674,-3.0624,-3.2492,-3.3633,-3.4062,-3.4473,-3.4922,-3.5391,-3.5391,-3.5605,-3.6016,-3.6016,-3.6016,-3.6016,-3.6016,-3.6016,-3.6016,-3.6016,-3.6016,-3.6016,-3.6016,-3.6269,-3.6719,-3.7129,-3.7559,-3.7969,-3.8418,-3.8574,-3.8574,0.0,0.0,0.0,0.0,0.0,0.0,0.0,0.0,0.0,0.0,0.0,-0.2478,-0.883,-0.8622,-0.8468,-0.949,-0.9571,-0.9652,-0.9754,-0.9795,-0.9822,-0.9822,-0.9822,-0.9822,-0.9822,-0.9822,-0.9822,-0.9822,-0.9822,-0.9822,-0.9822,-0.9822,-0.9822,-0.9822,-0.9822,-0.9822,-0.9822,-0.9822,-0.9822,-0.9822,-0.9822,-0.9822,-0.9822,-0.9822,-0.9822,-0.9822,-1.0301,-1.0543,-1.0778,-1.2337,-1.2928,-1.2955,-1.2977,-1.4952,-1.7159,-1.6808,-1.8496,-2.0441,-2.0521,-2.0762,-2.0909,-2.0615,-2.0762,-2.0975,-2.0975,-2.1042,-2.1109,-2.1109,-2.1109,-2.1109,-2.1109,-2.1109,-2.1109,-2.1109,-2.1109,-2.1109,-2.1109,-2.1296,-2.1456,-2.1537,-2.1737,-2.1977,-2.2258,-2.2285,-2.2673,-2.3499,-2.5901,-2.8833,-3.2492,-3.3436,-3.3945,-3.4062,-3.4805,-3.5254,-3.5391,-3.5684,-3.5898,-3.6016,-3.6016,-3.6016,-3.6016,-3.6016,-3.6016,-3.6016,-3.6016,-3.6016,-3.6016,-3.6016,-3.6269,-3.6719,-3.7129,-3.7559,-3.7969,-3.8418,-3.8574,-3.8574,0.0,0.0,0.0,0.0,0.0,0.0,0.0,0.0,0.0,0.0,0.0,-0.2044,-0.7247,-0.8865,-0.9586,-0.9737,-0.9673,-0.9727,-0.9815,-0.9822,-0.9822,-0.9822,-0.9822,-0.9822,-0.9822,-0.9822,-0.9822,-0.9822,-0.9822,-0.9822,-0.9822,-0.9822,-0.9822,-0.9822,-0.9822,-0.9822,-0.9822,-0.9822,-0.9822,-0.9822,-0.9822,-0.9822,-0.9822,-0.9822,-0.9822,-0.9822,-0.9822,-0.9822,-0.9937,-1.0899,-1.1308,-1.1516,-1.23,-1.444,-1.6564,-1.6436,-1.8505,-2.0695,-2.0815,-2.0975,-2.1069,-2.0895,-2.0975,-2.1109,-2.1109,-2.1109,-2.1109,-2.1109,-2.1109,-2.1109,-2.1109,-2.1109,-2.1109,-2.1109,-2.1109,-2.1149,-2.1269,-2.1443,-2.1643,-2.1871,-2.2044,-2.2271,-2.2565,-2.2592,-2.293,-2.391,-2.6573,-2.9543,-3.2483,-3.354,-3.4238,-3.459,-3.5117,-3.5469,-3.5644,-3.5898,-3.6016,-3.6016,-3.6016,-3.6016,-3.6016,-3.6016,-3.6016,-3.6016,-3.6016,-3.6016,-3.6016,-3.6016,-3.6367,-3.6953,-3.7207,-3.7656,-3.8223,-3.8476,-3.8574,-3.8574,0.0,0.0,0.0,0.0,0.0,0.0,0.0,0.0,0.0,0.0,-0.0228,-0.1609,-0.4596,-0.7825,-0.9786,-0.9632,-0.9747,-0.9822,-0.9822,-0.9822,-0.9822,-0.9822,-0.9822,-0.9822,-0.9822,-0.9822,-0.9822,-0.9822,-0.9822,-0.9822,-0.9822,-0.9822,-0.9822,-0.9822,-0.9822,-0.9822,-0.9822,-0.9822,-0.9822,-0.9822,-0.9822,-0.9822,-0.9822,-0.9822,-0.9822,-0.9822,-0.9822,-0.9822,-0.9822,-0.9836,-0.9944,-1.0343,-1.1988,-1.3663,-1.5452,-1.7326,-1.9187,-2.0637,-2.1029,-2.1109,-2.1109,-2.1109,-2.1109,-2.1109,-2.1109,-2.1109,-2.1109,-2.1109,-2.1109,-2.1109,-2.1109,-2.1109,-2.1122,-2.1149,-2.1149,-2.1256,-2.155,-2.1617,-2.183,-2.2352,-2.2445,-2.2565,-2.2832,-2.2859,-2.3665,-2.5383,-2.7004,-2.9023,-3.1235,-3.3065,-3.442,-3.5371,-3.543,-3.5625,-3.6016,-3.6016,-3.6016,-3.6016,-3.6016,-3.6016,-3.6016,-3.6016,-3.6016,-3.6016,-3.6016,-3.6016,-3.6016,-3.6055,-3.6562,-3.7305,-3.7344,-3.7851,-3.8574,-3.8574,-3.8574,-3.8574,0.0,0.0,0.0,0.0,0.0,0.0,0.0,0.0,0.0,0.0,-0.2295,-0.4064,-0.4864,-0.7806,-0.9827,-0.9768,-0.9802,-0.9822,-0.9822,-0.9822,-0.9822,-0.9822,-0.9822,-0.9822,-0.9822,-0.9822,-0.9822,-0.9822,-0.9822,-0.9822,-0.9822,-0.9822,-0.9822,-0.9822,-0.9822,-0.9822,-0.9822,-0.9822,-0.9822,-0.9822,-0.9822,-0.9822,-0.9822,-0.9822,-0.9822,-0.9822,-0.9822,-0.9822,-0.9836,-0.9958,-1.01,-1.0383,-1.0777,-1.2218,-1.3906,-1.5782,-1.7652,-1.9345,-2.0703,-2.1109,-2.1109,-2.1109,-2.1109,-2.1109,-2.1109,-2.1109,-2.1109,-2.1109,-2.1109,-2.1109,-2.1109,-2.1109,-2.1189,-2.1416,-2.1456,-2.1563,-2.1857,-2.2084,-2.2271,-2.2405,-2.2619,-2.2792,-2.2859,-2.2859,-2.3665,-2.5383,-2.6163,-2.7954,-3.1253,-3.2247,-3.3647,-3.5391,-3.5723,-3.5937,-3.6016,-3.6016,-3.6016,-3.6016,-3.6016,-3.6016,-3.6016,-3.6016,-3.6016,-3.6016,-3.6016,-3.6016,-3.6035,-3.6387,-3.6836,-3.7324,-3.7656,-3.8105,-3.8574,-3.8574,-3.8574,-3.8574,0.0,0.0,0.0,0.0,0.0,0.0,0.0,0.0,0.0,0.0,-0.1523,-0.379,-0.6865,-0.8769,-0.9815,-0.9836,-0.9829,-0.9822,-0.9822,-0.9822,-0.9822,-0.9822,-0.9822,-0.9822,-0.9822,-0.9822,-0.9822,-0.9822,-0.9822,-0.9822,-0.9822,-0.9822,-0.9822,-0.9822,-0.9822,-0.9822,-0.9822,-0.9822,-0.9822,-0.9822,-0.9822,-0.9822,-0.9822,-0.9822,-0.9822,-0.9822,-0.9822,-0.9869,-0.9964,-1.0188,-1.0317,-1.0405,-1.0555,-1.1758,-1.3578,-1.5365,-1.7076,-1.8896,-2.0589,-2.1109,-2.1109,-2.1109,-2.1109,-2.1109,-2.1109,-2.1109,-2.1109,-2.1109,-2.1109,-2.1109,-2.1109,-2.1229,-2.1376,-2.1523,-2.167,-2.1857,-2.2151,-2.2325,-2.2472,-2.2619,-2.2766,-2.2859,-2.2859,-2.2859,-2.3721,-2.5606,-2.5906,-2.7772,-3.1658,-3.234,-3.3502,-3.5684,-3.5898,-3.6016,-3.6016,-3.6016,-3.6016,-3.6016,-3.6016,-3.6016,-3.6016,-3.6016,-3.6016,-3.6016,-3.6016,-3.6016,-3.6055,-3.6484,-3.6914,-3.7344,-3.7754,-3.8184,-3.8574,-3.8574,-3.8574,-3.8574,0.0,0.0,0.0,0.0,0.0,0.0,0.0,0.0,0.0,0.0,0.0,-0.2052,-0.7527,-0.861,-0.9161,-0.9734,-0.9836,-0.9822,-0.9822,-0.9822,-0.9822,-0.9822,-0.9822,-0.9822,-0.9822,-0.9822,-0.9822,-0.9822,-0.9822,-0.9822,-0.9822,-0.9822,-0.9822,-0.9822,-0.9822,-0.9822,-0.9822,-0.9822,-0.9822,-0.9822,-0.9822,-0.9822,-0.9822,-0.9822,-0.9836,-0.9863,-0.9863,-0.9971,-1.0161,-1.0405,-1.0507,-1.0555,-1.0677,-1.163,-1.3325,-1.5265,-1.6947,-1.8512,-2.0589,-2.1109,-2.1109,-2.1109,-2.1109,-2.1109,-2.1109,-2.1109,-2.1109,-2.1109,-2.1109,-2.1122,-2.1176,-2.139,-2.159,-2.1683,-2.1897,-2.2164,-2.2458,-2.2498,-2.2579,-2.2832,-2.2859,-2.2859,-2.2859,-2.2913,-2.3708,-2.5461,-2.5579,-2.7507,-3.1837,-3.2081,-3.3376,-3.586,-3.6016,-3.6016,-3.6016,-3.6016,-3.6016,-3.6016,-3.6016,-3.6016,-3.6016,-3.6016,-3.6016,-3.6016,-3.6016,-3.6055,-3.6172,-3.6601,-3.7031,-3.7441,-3.7871,-3.8262,-3.8574,-3.8574,-3.8574,-3.8594,0.0,0.0,0.0,0.0,0.0,0.0,0.0,0.0,0.0,0.0,0.0,-0.0364,-0.1225,-0.3809,-0.6766,-0.9605,-0.9849,-0.9842,-0.9822,-0.9822,-0.9822,-0.9822,-0.9822,-0.9822,-0.9822,-0.9822,-0.9822,-0.9822,-0.9822,-0.9822,-0.9822,-0.9822,-0.9822,-0.9822,-0.9822,-0.9822,-0.9822,-0.9822,-0.9822,-0.9822,-0.9822,-0.9822,-0.9822,-0.9822,-0.9903,-1.0019,-1.0019,-1.0195,-1.0439,-1.048,-1.0582,-1.069,-1.0711,-1.085,-1.163,-1.5014,-1.6043,-1.6947,-2.0195,-2.1109,-2.1109,-2.1109,-2.1109,-2.1109,-2.1109,-2.1109,-2.1109,-2.1109,-2.1109,-2.1189,-2.1443,-2.1523,-2.1724,-2.2218,-2.2338,-2.2458,-2.2766,-2.2806,-2.2819,-2.2859,-2.2859,-2.2859,-2.2859,-2.31,-2.3413,-2.3593,-2.4208,-2.6212,-3.0043,-3.05,-3.2245,-3.5879,-3.6016,-3.6016,-3.6016,-3.6016,-3.6016,-3.6016,-3.6016,-3.6016,-3.6016,-3.6016,-3.6016,-3.6016,-3.6016,-3.623,-3.6621,-3.7031,-3.7461,-3.7871,-3.832,-3.8516,-3.8574,-3.8574,-3.8574,-3.8633,0.0,0.0,0.0,0.0,0.0,0.0,0.0,0.0,0.0,0.0,0.0,0.0,0.0,-0.1354,-0.3441,-0.6761,-0.8738,-0.9849,-0.9842,-0.9829,-0.9829,-0.9842,-0.9829,-0.9822,-0.9822,-0.9822,-0.9822,-0.9822,-0.9822,-0.9822,-0.9822,-0.9822,-0.9822,-0.9822,-0.9822,-0.9822,-0.9822,-0.9822,-0.9822,-0.9822,-0.9822,-0.9822,-0.9829,-0.9917,-0.9992,-1.0073,-1.0236,-1.0378,-1.0507,-1.0588,-1.0663,-1.0717,-1.0717,-1.0717,-1.1372,-1.4884,-1.5913,-1.6689,-2.0195,-2.1109,-2.1109,-2.1109,-2.1109,-2.1109,-2.1109,-2.1243,-2.1309,-2.1149,-2.1243,-2.1403,-2.1523,-2.1817,-2.2124,-2.2378,-2.2565,-2.2712,-2.2846,-2.2859,-2.2859,-2.2859,-2.2859,-2.2926,-2.31,-2.3247,-2.346,-2.3794,-2.4062,-2.5538,-2.8395,-2.8694,-3.0042,-3.2735,-3.3882,-3.4452,-3.4452,-3.5451,-3.6016,-3.6016,-3.6016,-3.6016,-3.6016,-3.6016,-3.6016,-3.6016,-3.6016,-3.6269,-3.6699,-3.7129,-3.7539,-3.7969,-3.8398,-3.8574,-3.8574,-3.8574,-3.8574,-3.8633]}]]